<?xml version="1.0" encoding="UTF-8" standalone="no" ?>
<gpx xmlns="http://www.topografix.com/GPX/1/1" xmlns:xsi="http://www.w3.org/2001/XMLSchema-instance" xsi:schemaLocation="http://www.topografix.com/GPX/1/1 http://www.topografix.com/GPX/1/1/gpx.xsd" version="1.1" creator="VisuGPX - https://www.visugpx.com">
  <metadata>
    <name>Lomener - Gavres - Lomener</name>
    <desc><![CDATA[petite ballade entre Lomener et Gavres, et quelques erreurs de parcours...]]></desc>
  </metadata>
  <trk>
    <name><![CDATA[Lomener - Gavres - Lomener_1]]></name>
    <trkseg>
      <trkpt lat="47.70268" lon="-3.43147">
        <ele>5</ele>
        <time>2011-09-03T10:51:14Z</time>
      </trkpt>
      <trkpt lat="47.70267" lon="-3.43154">
        <ele>5</ele>
        <time>2011-09-03T10:51:16Z</time>
      </trkpt>
      <trkpt lat="47.70268" lon="-3.4316">
        <ele>5</ele>
        <time>2011-09-03T10:51:18Z</time>
      </trkpt>
      <trkpt lat="47.70274" lon="-3.43167">
        <ele>5</ele>
        <time>2011-09-03T10:51:21Z</time>
      </trkpt>
      <trkpt lat="47.70335" lon="-3.43206">
        <ele>6</ele>
        <time>2011-09-03T10:51:39Z</time>
      </trkpt>
      <trkpt lat="47.70364" lon="-3.43222">
        <ele>6</ele>
        <time>2011-09-03T10:51:47Z</time>
      </trkpt>
      <trkpt lat="47.70435" lon="-3.43253">
        <ele>5</ele>
        <time>2011-09-03T10:52:02Z</time>
      </trkpt>
      <trkpt lat="47.70445" lon="-3.43253">
        <ele>4</ele>
        <time>2011-09-03T10:52:04Z</time>
      </trkpt>
      <trkpt lat="47.7045" lon="-3.4325">
        <ele>5</ele>
        <time>2011-09-03T10:52:05Z</time>
      </trkpt>
      <trkpt lat="47.70454" lon="-3.43244">
        <ele>5</ele>
        <time>2011-09-03T10:52:06Z</time>
      </trkpt>
      <trkpt lat="47.7046" lon="-3.4323">
        <ele>5</ele>
        <time>2011-09-03T10:52:08Z</time>
      </trkpt>
      <trkpt lat="47.70465" lon="-3.43207">
        <ele>5</ele>
        <time>2011-09-03T10:52:11Z</time>
      </trkpt>
      <trkpt lat="47.70469" lon="-3.43159">
        <ele>5</ele>
        <time>2011-09-03T10:52:22Z</time>
      </trkpt>
      <trkpt lat="47.70477" lon="-3.43115">
        <ele>4</ele>
        <time>2011-09-03T10:52:29Z</time>
      </trkpt>
      <trkpt lat="47.70532" lon="-3.42709">
        <ele>5</ele>
        <time>2011-09-03T10:53:24Z</time>
      </trkpt>
      <trkpt lat="47.70543" lon="-3.42645">
        <ele>4</ele>
        <time>2011-09-03T10:53:33Z</time>
      </trkpt>
      <trkpt lat="47.70554" lon="-3.42597">
        <ele>4</ele>
        <time>2011-09-03T10:53:40Z</time>
      </trkpt>
      <trkpt lat="47.70564" lon="-3.42535">
        <ele>5</ele>
        <time>2011-09-03T10:53:49Z</time>
      </trkpt>
      <trkpt lat="47.70572" lon="-3.42501">
        <ele>5</ele>
        <time>2011-09-03T10:53:54Z</time>
      </trkpt>
      <trkpt lat="47.70581" lon="-3.42475">
        <ele>5</ele>
        <time>2011-09-03T10:53:58Z</time>
      </trkpt>
      <trkpt lat="47.70593" lon="-3.42452">
        <ele>5</ele>
        <time>2011-09-03T10:54:02Z</time>
      </trkpt>
      <trkpt lat="47.70621" lon="-3.42405">
        <ele>6</ele>
        <time>2011-09-03T10:54:11Z</time>
      </trkpt>
      <trkpt lat="47.70636" lon="-3.42366">
        <ele>6</ele>
        <time>2011-09-03T10:54:18Z</time>
      </trkpt>
      <trkpt lat="47.70676" lon="-3.4216">
        <ele>10</ele>
        <time>2011-09-03T10:54:48Z</time>
      </trkpt>
      <trkpt lat="47.70684" lon="-3.42133">
        <ele>11</ele>
        <time>2011-09-03T10:54:52Z</time>
      </trkpt>
      <trkpt lat="47.70689" lon="-3.4212">
        <ele>11</ele>
        <time>2011-09-03T10:54:54Z</time>
      </trkpt>
      <trkpt lat="47.70692" lon="-3.42115">
        <ele>11</ele>
        <time>2011-09-03T10:54:55Z</time>
      </trkpt>
      <trkpt lat="47.707" lon="-3.42107">
        <ele>11</ele>
        <time>2011-09-03T10:54:57Z</time>
      </trkpt>
      <trkpt lat="47.70709" lon="-3.42102">
        <ele>11</ele>
        <time>2011-09-03T10:54:59Z</time>
      </trkpt>
      <trkpt lat="47.70783" lon="-3.421">
        <ele>12</ele>
        <time>2011-09-03T10:55:15Z</time>
      </trkpt>
      <trkpt lat="47.70808" lon="-3.42096">
        <ele>12</ele>
        <time>2011-09-03T10:55:20Z</time>
      </trkpt>
      <trkpt lat="47.70818" lon="-3.42089">
        <ele>13</ele>
        <time>2011-09-03T10:55:22Z</time>
      </trkpt>
      <trkpt lat="47.70833" lon="-3.42069">
        <ele>12</ele>
        <time>2011-09-03T10:55:26Z</time>
      </trkpt>
      <trkpt lat="47.70843" lon="-3.42066">
        <ele>13</ele>
        <time>2011-09-03T10:55:28Z</time>
      </trkpt>
      <trkpt lat="47.70852" lon="-3.4207">
        <ele>13</ele>
        <time>2011-09-03T10:55:30Z</time>
      </trkpt>
      <trkpt lat="47.70869" lon="-3.42086">
        <ele>13</ele>
        <time>2011-09-03T10:55:34Z</time>
      </trkpt>
      <trkpt lat="47.70879" lon="-3.4209">
        <ele>13</ele>
        <time>2011-09-03T10:55:36Z</time>
      </trkpt>
      <trkpt lat="47.70904" lon="-3.42095">
        <ele>13</ele>
        <time>2011-09-03T10:55:41Z</time>
      </trkpt>
      <trkpt lat="47.70924" lon="-3.42093">
        <ele>13</ele>
        <time>2011-09-03T10:55:45Z</time>
      </trkpt>
      <trkpt lat="47.70958" lon="-3.42083">
        <ele>13</ele>
        <time>2011-09-03T10:55:52Z</time>
      </trkpt>
      <trkpt lat="47.71089" lon="-3.42025">
        <ele>15</ele>
        <time>2011-09-03T10:56:20Z</time>
      </trkpt>
      <trkpt lat="47.71107" lon="-3.42018">
        <ele>16</ele>
        <time>2011-09-03T10:56:24Z</time>
      </trkpt>
      <trkpt lat="47.71117" lon="-3.42016">
        <ele>16</ele>
        <time>2011-09-03T10:56:26Z</time>
      </trkpt>
      <trkpt lat="47.71131" lon="-3.42016">
        <ele>16</ele>
        <time>2011-09-03T10:56:29Z</time>
      </trkpt>
      <trkpt lat="47.7114" lon="-3.42018">
        <ele>16</ele>
        <time>2011-09-03T10:56:31Z</time>
      </trkpt>
      <trkpt lat="47.71171" lon="-3.42028">
        <ele>17</ele>
        <time>2011-09-03T10:56:38Z</time>
      </trkpt>
      <trkpt lat="47.7124" lon="-3.42055">
        <ele>17</ele>
        <time>2011-09-03T10:56:53Z</time>
      </trkpt>
      <trkpt lat="47.71245" lon="-3.42055">
        <ele>17</ele>
        <time>2011-09-03T10:56:54Z</time>
      </trkpt>
      <trkpt lat="47.71249" lon="-3.42053">
        <ele>17</ele>
        <time>2011-09-03T10:56:55Z</time>
      </trkpt>
      <trkpt lat="47.71253" lon="-3.4205">
        <ele>16</ele>
        <time>2011-09-03T10:56:56Z</time>
      </trkpt>
      <trkpt lat="47.71258" lon="-3.42038">
        <ele>16</ele>
        <time>2011-09-03T10:56:58Z</time>
      </trkpt>
      <trkpt lat="47.7126" lon="-3.42032">
        <ele>16</ele>
        <time>2011-09-03T10:56:59Z</time>
      </trkpt>
      <trkpt lat="47.71264" lon="-3.42004">
        <ele>17</ele>
        <time>2011-09-03T10:57:03Z</time>
      </trkpt>
      <trkpt lat="47.71268" lon="-3.41991">
        <ele>17</ele>
        <time>2011-09-03T10:57:05Z</time>
      </trkpt>
      <trkpt lat="47.71271" lon="-3.41986">
        <ele>17</ele>
        <time>2011-09-03T10:57:06Z</time>
      </trkpt>
      <trkpt lat="47.7129" lon="-3.41968">
        <ele>16</ele>
        <time>2011-09-03T10:57:11Z</time>
      </trkpt>
      <trkpt lat="47.71308" lon="-3.41945">
        <ele>16</ele>
        <time>2011-09-03T10:57:16Z</time>
      </trkpt>
      <trkpt lat="47.71338" lon="-3.4191">
        <ele>16</ele>
        <time>2011-09-03T10:57:24Z</time>
      </trkpt>
      <trkpt lat="47.71342" lon="-3.41905">
        <ele>16</ele>
        <time>2011-09-03T10:57:25Z</time>
      </trkpt>
      <trkpt lat="47.71351" lon="-3.4188">
        <ele>16</ele>
        <time>2011-09-03T10:57:29Z</time>
      </trkpt>
      <trkpt lat="47.71357" lon="-3.41853">
        <ele>16</ele>
        <time>2011-09-03T10:57:33Z</time>
      </trkpt>
      <trkpt lat="47.71362" lon="-3.41821">
        <ele>17</ele>
        <time>2011-09-03T10:57:38Z</time>
      </trkpt>
      <trkpt lat="47.71371" lon="-3.41686">
        <ele>17</ele>
        <time>2011-09-03T10:57:57Z</time>
      </trkpt>
      <trkpt lat="47.71375" lon="-3.41651">
        <ele>17</ele>
        <time>2011-09-03T10:58:02Z</time>
      </trkpt>
      <trkpt lat="47.71382" lon="-3.41618">
        <ele>18</ele>
        <time>2011-09-03T10:58:07Z</time>
      </trkpt>
      <trkpt lat="47.71403" lon="-3.4154">
        <ele>20</ele>
        <time>2011-09-03T10:58:19Z</time>
      </trkpt>
      <trkpt lat="47.71425" lon="-3.41494">
        <ele>24</ele>
        <time>2011-09-03T10:58:28Z</time>
      </trkpt>
      <trkpt lat="47.71434" lon="-3.41468">
        <ele>25</ele>
        <time>2011-09-03T10:58:33Z</time>
      </trkpt>
      <trkpt lat="47.71455" lon="-3.41407">
        <ele>26</ele>
        <time>2011-09-03T10:58:44Z</time>
      </trkpt>
      <trkpt lat="47.71467" lon="-3.41358">
        <ele>26</ele>
        <time>2011-09-03T10:58:53Z</time>
      </trkpt>
      <trkpt lat="47.71484" lon="-3.41347">
        <ele>27</ele>
        <time>2011-09-03T10:58:58Z</time>
      </trkpt>
      <trkpt lat="47.71525" lon="-3.4133">
        <ele>27</ele>
        <time>2011-09-03T10:59:08Z</time>
      </trkpt>
      <trkpt lat="47.71606" lon="-3.41305">
        <ele>25</ele>
        <time>2011-09-03T10:59:26Z</time>
      </trkpt>
      <trkpt lat="47.7162" lon="-3.41299">
        <ele>25</ele>
        <time>2011-09-03T10:59:29Z</time>
      </trkpt>
      <trkpt lat="47.71638" lon="-3.41287">
        <ele>25</ele>
        <time>2011-09-03T10:59:33Z</time>
      </trkpt>
      <trkpt lat="47.71654" lon="-3.41271">
        <ele>25</ele>
        <time>2011-09-03T10:59:37Z</time>
      </trkpt>
      <trkpt lat="47.71663" lon="-3.41255">
        <ele>25</ele>
        <time>2011-09-03T10:59:40Z</time>
      </trkpt>
      <trkpt lat="47.71672" lon="-3.41231">
        <ele>26</ele>
        <time>2011-09-03T10:59:44Z</time>
      </trkpt>
      <trkpt lat="47.71676" lon="-3.41149">
        <ele>27</ele>
        <time>2011-09-03T10:59:56Z</time>
      </trkpt>
      <trkpt lat="47.71681" lon="-3.41124">
        <ele>28</ele>
        <time>2011-09-03T11:00:00Z</time>
      </trkpt>
      <trkpt lat="47.71696" lon="-3.41082">
        <ele>29</ele>
        <time>2011-09-03T11:00:07Z</time>
      </trkpt>
      <trkpt lat="47.71702" lon="-3.41071">
        <ele>29</ele>
        <time>2011-09-03T11:00:09Z</time>
      </trkpt>
      <trkpt lat="47.7171" lon="-3.41063">
        <ele>29</ele>
        <time>2011-09-03T11:00:11Z</time>
      </trkpt>
      <trkpt lat="47.71722" lon="-3.41055">
        <ele>29</ele>
        <time>2011-09-03T11:00:14Z</time>
      </trkpt>
      <trkpt lat="47.7174" lon="-3.41051">
        <ele>29</ele>
        <time>2011-09-03T11:00:18Z</time>
      </trkpt>
      <trkpt lat="47.71756" lon="-3.41051">
        <ele>29</ele>
        <time>2011-09-03T11:00:21Z</time>
      </trkpt>
      <trkpt lat="47.71822" lon="-3.41053">
        <ele>29</ele>
        <time>2011-09-03T11:00:33Z</time>
      </trkpt>
      <trkpt lat="47.71832" lon="-3.41052">
        <ele>29</ele>
        <time>2011-09-03T11:00:35Z</time>
      </trkpt>
      <trkpt lat="47.71842" lon="-3.41047">
        <ele>29</ele>
        <time>2011-09-03T11:00:37Z</time>
      </trkpt>
      <trkpt lat="47.71852" lon="-3.41039">
        <ele>29</ele>
        <time>2011-09-03T11:00:39Z</time>
      </trkpt>
      <trkpt lat="47.71863" lon="-3.41024">
        <ele>29</ele>
        <time>2011-09-03T11:00:42Z</time>
      </trkpt>
      <trkpt lat="47.71896" lon="-3.40956">
        <ele>32</ele>
        <time>2011-09-03T11:00:54Z</time>
      </trkpt>
      <trkpt lat="47.71909" lon="-3.40936">
        <ele>33</ele>
        <time>2011-09-03T11:00:58Z</time>
      </trkpt>
      <trkpt lat="47.71925" lon="-3.40919">
        <ele>33</ele>
        <time>2011-09-03T11:01:02Z</time>
      </trkpt>
      <trkpt lat="47.71947" lon="-3.40901">
        <ele>32</ele>
        <time>2011-09-03T11:01:07Z</time>
      </trkpt>
      <trkpt lat="47.71956" lon="-3.40895">
        <ele>32</ele>
        <time>2011-09-03T11:01:09Z</time>
      </trkpt>
      <trkpt lat="47.71972" lon="-3.40894">
        <ele>32</ele>
        <time>2011-09-03T11:01:12Z</time>
      </trkpt>
      <trkpt lat="47.71986" lon="-3.40897">
        <ele>32</ele>
        <time>2011-09-03T11:01:15Z</time>
      </trkpt>
      <trkpt lat="47.7202" lon="-3.4091">
        <ele>31</ele>
        <time>2011-09-03T11:01:22Z</time>
      </trkpt>
      <trkpt lat="47.72063" lon="-3.40925">
        <ele>32</ele>
        <time>2011-09-03T11:01:31Z</time>
      </trkpt>
      <trkpt lat="47.72172" lon="-3.40956">
        <ele>34</ele>
        <time>2011-09-03T11:01:53Z</time>
      </trkpt>
      <trkpt lat="47.72187" lon="-3.40957">
        <ele>34</ele>
        <time>2011-09-03T11:01:56Z</time>
      </trkpt>
      <trkpt lat="47.72197" lon="-3.40956">
        <ele>34</ele>
        <time>2011-09-03T11:01:58Z</time>
      </trkpt>
      <trkpt lat="47.72231" lon="-3.40945">
        <ele>34</ele>
        <time>2011-09-03T11:02:05Z</time>
      </trkpt>
      <trkpt lat="47.72245" lon="-3.40942">
        <ele>34</ele>
        <time>2011-09-03T11:02:08Z</time>
      </trkpt>
      <trkpt lat="47.7226" lon="-3.40943">
        <ele>34</ele>
        <time>2011-09-03T11:02:11Z</time>
      </trkpt>
      <trkpt lat="47.72275" lon="-3.40947">
        <ele>34</ele>
        <time>2011-09-03T11:02:14Z</time>
      </trkpt>
      <trkpt lat="47.72295" lon="-3.40957">
        <ele>34</ele>
        <time>2011-09-03T11:02:18Z</time>
      </trkpt>
      <trkpt lat="47.72318" lon="-3.40974">
        <ele>34</ele>
        <time>2011-09-03T11:02:23Z</time>
      </trkpt>
      <trkpt lat="47.72416" lon="-3.41059">
        <ele>35</ele>
        <time>2011-09-03T11:02:46Z</time>
      </trkpt>
      <trkpt lat="47.72445" lon="-3.41086">
        <ele>35</ele>
        <time>2011-09-03T11:02:55Z</time>
      </trkpt>
      <trkpt lat="47.72457" lon="-3.41095">
        <ele>35</ele>
        <time>2011-09-03T11:02:58Z</time>
      </trkpt>
      <trkpt lat="47.72467" lon="-3.41098">
        <ele>35</ele>
        <time>2011-09-03T11:03:00Z</time>
      </trkpt>
      <trkpt lat="47.72482" lon="-3.41099">
        <ele>35</ele>
        <time>2011-09-03T11:03:03Z</time>
      </trkpt>
      <trkpt lat="47.72524" lon="-3.41087">
        <ele>35</ele>
        <time>2011-09-03T11:03:12Z</time>
      </trkpt>
      <trkpt lat="47.72528" lon="-3.41083">
        <ele>36</ele>
        <time>2011-09-03T11:03:13Z</time>
      </trkpt>
      <trkpt lat="47.72537" lon="-3.41066">
        <ele>36</ele>
        <time>2011-09-03T11:03:16Z</time>
      </trkpt>
      <trkpt lat="47.72541" lon="-3.41061">
        <ele>36</ele>
        <time>2011-09-03T11:03:17Z</time>
      </trkpt>
      <trkpt lat="47.72561" lon="-3.41055">
        <ele>36</ele>
        <time>2011-09-03T11:03:21Z</time>
      </trkpt>
      <trkpt lat="47.72579" lon="-3.41044">
        <ele>36</ele>
        <time>2011-09-03T11:03:25Z</time>
      </trkpt>
      <trkpt lat="47.72603" lon="-3.41035">
        <ele>38</ele>
        <time>2011-09-03T11:03:30Z</time>
      </trkpt>
      <trkpt lat="47.7262" lon="-3.41021">
        <ele>38</ele>
        <time>2011-09-03T11:03:34Z</time>
      </trkpt>
      <trkpt lat="47.72631" lon="-3.41007">
        <ele>39</ele>
        <time>2011-09-03T11:03:37Z</time>
      </trkpt>
      <trkpt lat="47.72642" lon="-3.40982">
        <ele>39</ele>
        <time>2011-09-03T11:03:41Z</time>
      </trkpt>
      <trkpt lat="47.72648" lon="-3.40961">
        <ele>39</ele>
        <time>2011-09-03T11:03:44Z</time>
      </trkpt>
      <trkpt lat="47.7266" lon="-3.40899">
        <ele>38</ele>
        <time>2011-09-03T11:03:52Z</time>
      </trkpt>
      <trkpt lat="47.72661" lon="-3.40882">
        <ele>37</ele>
        <time>2011-09-03T11:03:54Z</time>
      </trkpt>
      <trkpt lat="47.72675" lon="-3.40814">
        <ele>35</ele>
        <time>2011-09-03T11:04:02Z</time>
      </trkpt>
      <trkpt lat="47.72685" lon="-3.40787">
        <ele>35</ele>
        <time>2011-09-03T11:04:05Z</time>
      </trkpt>
      <trkpt lat="47.72703" lon="-3.40765">
        <ele>35</ele>
        <time>2011-09-03T11:04:08Z</time>
      </trkpt>
      <trkpt lat="47.72717" lon="-3.40757">
        <ele>34</ele>
        <time>2011-09-03T11:04:10Z</time>
      </trkpt>
      <trkpt lat="47.72724" lon="-3.40755">
        <ele>34</ele>
        <time>2011-09-03T11:04:11Z</time>
      </trkpt>
      <trkpt lat="47.72741" lon="-3.40758">
        <ele>33</ele>
        <time>2011-09-03T11:04:13Z</time>
      </trkpt>
      <trkpt lat="47.72756" lon="-3.40768">
        <ele>32</ele>
        <time>2011-09-03T11:04:15Z</time>
      </trkpt>
      <trkpt lat="47.72784" lon="-3.40794">
        <ele>32</ele>
        <time>2011-09-03T11:04:19Z</time>
      </trkpt>
      <trkpt lat="47.72801" lon="-3.40798">
        <ele>32</ele>
        <time>2011-09-03T11:04:21Z</time>
      </trkpt>
      <trkpt lat="47.7281" lon="-3.40798">
        <ele>31</ele>
        <time>2011-09-03T11:04:22Z</time>
      </trkpt>
      <trkpt lat="47.72842" lon="-3.40785">
        <ele>28</ele>
        <time>2011-09-03T11:04:26Z</time>
      </trkpt>
      <trkpt lat="47.7285" lon="-3.40783">
        <ele>28</ele>
        <time>2011-09-03T11:04:27Z</time>
      </trkpt>
      <trkpt lat="47.72934" lon="-3.40796">
        <ele>27</ele>
        <time>2011-09-03T11:04:39Z</time>
      </trkpt>
      <trkpt lat="47.7296" lon="-3.40798">
        <ele>27</ele>
        <time>2011-09-03T11:04:44Z</time>
      </trkpt>
      <trkpt lat="47.7298" lon="-3.40797">
        <ele>27</ele>
        <time>2011-09-03T11:04:48Z</time>
      </trkpt>
      <trkpt lat="47.72985" lon="-3.40796">
        <ele>27</ele>
        <time>2011-09-03T11:04:49Z</time>
      </trkpt>
      <trkpt lat="47.72995" lon="-3.4079">
        <ele>27</ele>
        <time>2011-09-03T11:04:51Z</time>
      </trkpt>
      <trkpt lat="47.73008" lon="-3.40778">
        <ele>26</ele>
        <time>2011-09-03T11:04:54Z</time>
      </trkpt>
      <trkpt lat="47.7302" lon="-3.40762">
        <ele>26</ele>
        <time>2011-09-03T11:04:57Z</time>
      </trkpt>
      <trkpt lat="47.73063" lon="-3.40672">
        <ele>24</ele>
        <time>2011-09-03T11:05:10Z</time>
      </trkpt>
      <trkpt lat="47.73071" lon="-3.40659">
        <ele>23</ele>
        <time>2011-09-03T11:05:12Z</time>
      </trkpt>
      <trkpt lat="47.7308" lon="-3.40649">
        <ele>23</ele>
        <time>2011-09-03T11:05:14Z</time>
      </trkpt>
      <trkpt lat="47.73091" lon="-3.40643">
        <ele>23</ele>
        <time>2011-09-03T11:05:16Z</time>
      </trkpt>
      <trkpt lat="47.7311" lon="-3.40641">
        <ele>23</ele>
        <time>2011-09-03T11:05:19Z</time>
      </trkpt>
      <trkpt lat="47.73152" lon="-3.40649">
        <ele>24</ele>
        <time>2011-09-03T11:05:26Z</time>
      </trkpt>
      <trkpt lat="47.7317" lon="-3.40649">
        <ele>24</ele>
        <time>2011-09-03T11:05:29Z</time>
      </trkpt>
      <trkpt lat="47.73175" lon="-3.40647">
        <ele>24</ele>
        <time>2011-09-03T11:05:30Z</time>
      </trkpt>
      <trkpt lat="47.73192" lon="-3.40637">
        <ele>23</ele>
        <time>2011-09-03T11:05:33Z</time>
      </trkpt>
      <trkpt lat="47.73202" lon="-3.40627">
        <ele>23</ele>
        <time>2011-09-03T11:05:35Z</time>
      </trkpt>
      <trkpt lat="47.73207" lon="-3.4062">
        <ele>23</ele>
        <time>2011-09-03T11:05:36Z</time>
      </trkpt>
      <trkpt lat="47.73216" lon="-3.40604">
        <ele>23</ele>
        <time>2011-09-03T11:05:38Z</time>
      </trkpt>
      <trkpt lat="47.73223" lon="-3.40573">
        <ele>20</ele>
        <time>2011-09-03T11:05:41Z</time>
      </trkpt>
      <trkpt lat="47.73225" lon="-3.40551">
        <ele>19</ele>
        <time>2011-09-03T11:05:43Z</time>
      </trkpt>
      <trkpt lat="47.73224" lon="-3.40514">
        <ele>18</ele>
        <time>2011-09-03T11:05:46Z</time>
      </trkpt>
      <trkpt lat="47.73216" lon="-3.40464">
        <ele>17</ele>
        <time>2011-09-03T11:05:50Z</time>
      </trkpt>
      <trkpt lat="47.73218" lon="-3.40438">
        <ele>16</ele>
        <time>2011-09-03T11:05:52Z</time>
      </trkpt>
      <trkpt lat="47.73223" lon="-3.40427">
        <ele>16</ele>
        <time>2011-09-03T11:05:53Z</time>
      </trkpt>
      <trkpt lat="47.73229" lon="-3.40418">
        <ele>16</ele>
        <time>2011-09-03T11:05:54Z</time>
      </trkpt>
      <trkpt lat="47.73245" lon="-3.40407">
        <ele>14</ele>
        <time>2011-09-03T11:05:56Z</time>
      </trkpt>
      <trkpt lat="47.73253" lon="-3.40403">
        <ele>12</ele>
        <time>2011-09-03T11:05:57Z</time>
      </trkpt>
      <trkpt lat="47.73279" lon="-3.40399">
        <ele>11</ele>
        <time>2011-09-03T11:06:00Z</time>
      </trkpt>
      <trkpt lat="47.73296" lon="-3.40389">
        <ele>10</ele>
        <time>2011-09-03T11:06:02Z</time>
      </trkpt>
      <trkpt lat="47.73301" lon="-3.40377">
        <ele>10</ele>
        <time>2011-09-03T11:06:03Z</time>
      </trkpt>
      <trkpt lat="47.73314" lon="-3.40305">
        <ele>8</ele>
        <time>2011-09-03T11:06:08Z</time>
      </trkpt>
      <trkpt lat="47.7333" lon="-3.40269">
        <ele>7</ele>
        <time>2011-09-03T11:06:11Z</time>
      </trkpt>
      <trkpt lat="47.73341" lon="-3.4025">
        <ele>8</ele>
        <time>2011-09-03T11:06:13Z</time>
      </trkpt>
      <trkpt lat="47.73348" lon="-3.40244">
        <ele>9</ele>
        <time>2011-09-03T11:06:14Z</time>
      </trkpt>
      <trkpt lat="47.73355" lon="-3.40242">
        <ele>10</ele>
        <time>2011-09-03T11:06:15Z</time>
      </trkpt>
      <trkpt lat="47.73368" lon="-3.40245">
        <ele>11</ele>
        <time>2011-09-03T11:06:17Z</time>
      </trkpt>
      <trkpt lat="47.73382" lon="-3.40257">
        <ele>9</ele>
        <time>2011-09-03T11:06:20Z</time>
      </trkpt>
      <trkpt lat="47.73426" lon="-3.40304">
        <ele>9</ele>
        <time>2011-09-03T11:06:30Z</time>
      </trkpt>
      <trkpt lat="47.73445" lon="-3.4032">
        <ele>8</ele>
        <time>2011-09-03T11:06:34Z</time>
      </trkpt>
      <trkpt lat="47.73456" lon="-3.40323">
        <ele>8</ele>
        <time>2011-09-03T11:06:36Z</time>
      </trkpt>
      <trkpt lat="47.73466" lon="-3.40323">
        <ele>8</ele>
        <time>2011-09-03T11:06:38Z</time>
      </trkpt>
      <trkpt lat="47.73482" lon="-3.40318">
        <ele>7</ele>
        <time>2011-09-03T11:06:41Z</time>
      </trkpt>
      <trkpt lat="47.73497" lon="-3.4031">
        <ele>7</ele>
        <time>2011-09-03T11:06:44Z</time>
      </trkpt>
      <trkpt lat="47.73511" lon="-3.40298">
        <ele>7</ele>
        <time>2011-09-03T11:06:47Z</time>
      </trkpt>
      <trkpt lat="47.73557" lon="-3.40252">
        <ele>7</ele>
        <time>2011-09-03T11:06:58Z</time>
      </trkpt>
      <trkpt lat="47.73581" lon="-3.40231">
        <ele>11</ele>
        <time>2011-09-03T11:07:06Z</time>
      </trkpt>
      <trkpt lat="47.73645" lon="-3.40185">
        <ele>13</ele>
        <time>2011-09-03T11:07:26Z</time>
      </trkpt>
      <trkpt lat="47.7367" lon="-3.40164">
        <ele>15</ele>
        <time>2011-09-03T11:07:34Z</time>
      </trkpt>
      <trkpt lat="47.7368" lon="-3.40152">
        <ele>16</ele>
        <time>2011-09-03T11:07:38Z</time>
      </trkpt>
      <trkpt lat="47.73726" lon="-3.40092">
        <ele>17</ele>
        <time>2011-09-03T11:07:56Z</time>
      </trkpt>
      <trkpt lat="47.73743" lon="-3.40066">
        <ele>19</ele>
        <time>2011-09-03T11:08:02Z</time>
      </trkpt>
      <trkpt lat="47.7375" lon="-3.40047">
        <ele>20</ele>
        <time>2011-09-03T11:08:06Z</time>
      </trkpt>
      <trkpt lat="47.73756" lon="-3.4002">
        <ele>20</ele>
        <time>2011-09-03T11:08:11Z</time>
      </trkpt>
      <trkpt lat="47.73757" lon="-3.39998">
        <ele>20</ele>
        <time>2011-09-03T11:08:15Z</time>
      </trkpt>
      <trkpt lat="47.73755" lon="-3.39978">
        <ele>20</ele>
        <time>2011-09-03T11:08:18Z</time>
      </trkpt>
      <trkpt lat="47.73746" lon="-3.39954">
        <ele>21</ele>
        <time>2011-09-03T11:08:22Z</time>
      </trkpt>
      <trkpt lat="47.73716" lon="-3.39895">
        <ele>20</ele>
        <time>2011-09-03T11:08:33Z</time>
      </trkpt>
      <trkpt lat="47.73702" lon="-3.39859">
        <ele>20</ele>
        <time>2011-09-03T11:08:39Z</time>
      </trkpt>
      <trkpt lat="47.73697" lon="-3.39838">
        <ele>20</ele>
        <time>2011-09-03T11:08:42Z</time>
      </trkpt>
      <trkpt lat="47.73693" lon="-3.39808">
        <ele>18</ele>
        <time>2011-09-03T11:08:46Z</time>
      </trkpt>
      <trkpt lat="47.73691" lon="-3.3977">
        <ele>18</ele>
        <time>2011-09-03T11:08:51Z</time>
      </trkpt>
      <trkpt lat="47.73708" lon="-3.39561">
        <ele>24</ele>
        <time>2011-09-03T11:09:19Z</time>
      </trkpt>
      <trkpt lat="47.73729" lon="-3.39365">
        <ele>22</ele>
        <time>2011-09-03T11:09:46Z</time>
      </trkpt>
      <trkpt lat="47.73743" lon="-3.39211">
        <ele>23</ele>
        <time>2011-09-03T11:10:07Z</time>
      </trkpt>
      <trkpt lat="47.73749" lon="-3.39175">
        <ele>24</ele>
        <time>2011-09-03T11:10:12Z</time>
      </trkpt>
      <trkpt lat="47.73765" lon="-3.39122">
        <ele>25</ele>
        <time>2011-09-03T11:10:21Z</time>
      </trkpt>
      <trkpt lat="47.73768" lon="-3.39105">
        <ele>24</ele>
        <time>2011-09-03T11:10:24Z</time>
      </trkpt>
      <trkpt lat="47.73774" lon="-3.39094">
        <ele>24</ele>
        <time>2011-09-03T11:10:26Z</time>
      </trkpt>
      <trkpt lat="47.73778" lon="-3.39081">
        <ele>23</ele>
        <time>2011-09-03T11:10:28Z</time>
      </trkpt>
      <trkpt lat="47.73809" lon="-3.38984">
        <ele>21</ele>
        <time>2011-09-03T11:10:41Z</time>
      </trkpt>
      <trkpt lat="47.73828" lon="-3.38886">
        <ele>19</ele>
        <time>2011-09-03T11:10:52Z</time>
      </trkpt>
      <trkpt lat="47.73858" lon="-3.38798">
        <ele>19</ele>
        <time>2011-09-03T11:11:03Z</time>
      </trkpt>
      <trkpt lat="47.73874" lon="-3.38724">
        <ele>18</ele>
        <time>2011-09-03T11:11:13Z</time>
      </trkpt>
      <trkpt lat="47.73889" lon="-3.38667">
        <ele>19</ele>
        <time>2011-09-03T11:11:21Z</time>
      </trkpt>
      <trkpt lat="47.73903" lon="-3.38642">
        <ele>19</ele>
        <time>2011-09-03T11:11:25Z</time>
      </trkpt>
      <trkpt lat="47.73918" lon="-3.38628">
        <ele>21</ele>
        <time>2011-09-03T11:11:40Z</time>
      </trkpt>
      <trkpt lat="47.73931" lon="-3.38606">
        <ele>21</ele>
        <time>2011-09-03T11:11:45Z</time>
      </trkpt>
      <trkpt lat="47.73958" lon="-3.38567">
        <ele>22</ele>
        <time>2011-09-03T11:11:53Z</time>
      </trkpt>
      <trkpt lat="47.73967" lon="-3.38551">
        <ele>23</ele>
        <time>2011-09-03T11:11:56Z</time>
      </trkpt>
      <trkpt lat="47.73977" lon="-3.38522">
        <ele>23</ele>
        <time>2011-09-03T11:12:01Z</time>
      </trkpt>
      <trkpt lat="47.73982" lon="-3.38469">
        <ele>22</ele>
        <time>2011-09-03T11:12:12Z</time>
      </trkpt>
      <trkpt lat="47.73982" lon="-3.3841">
        <ele>20</ele>
        <time>2011-09-03T11:12:19Z</time>
      </trkpt>
      <trkpt lat="47.73991" lon="-3.38263">
        <ele>15</ele>
        <time>2011-09-03T11:12:32Z</time>
      </trkpt>
      <trkpt lat="47.73997" lon="-3.38188">
        <ele>14</ele>
        <time>2011-09-03T11:12:39Z</time>
      </trkpt>
      <trkpt lat="47.74001" lon="-3.38175">
        <ele>15</ele>
        <time>2011-09-03T11:12:42Z</time>
      </trkpt>
      <trkpt lat="47.74003" lon="-3.38173">
        <ele>15</ele>
        <time>2011-09-03T11:12:43Z</time>
      </trkpt>
      <trkpt lat="47.74006" lon="-3.38172">
        <ele>15</ele>
        <time>2011-09-03T11:12:44Z</time>
      </trkpt>
      <trkpt lat="47.74012" lon="-3.38177">
        <ele>16</ele>
        <time>2011-09-03T11:12:46Z</time>
      </trkpt>
      <trkpt lat="47.74054" lon="-3.38216">
        <ele>18</ele>
        <time>2011-09-03T11:12:56Z</time>
      </trkpt>
      <trkpt lat="47.74108" lon="-3.3827">
        <ele>20</ele>
        <time>2011-09-03T11:13:09Z</time>
      </trkpt>
      <trkpt lat="47.74151" lon="-3.38308">
        <ele>20</ele>
        <time>2011-09-03T11:13:19Z</time>
      </trkpt>
      <trkpt lat="47.74162" lon="-3.38324">
        <ele>20</ele>
        <time>2011-09-03T11:13:23Z</time>
      </trkpt>
      <trkpt lat="47.7419" lon="-3.38355">
        <ele>20</ele>
        <time>2011-09-03T11:13:31Z</time>
      </trkpt>
      <trkpt lat="47.7425" lon="-3.38415">
        <ele>19</ele>
        <time>2011-09-03T11:13:47Z</time>
      </trkpt>
      <trkpt lat="47.74257" lon="-3.38421">
        <ele>19</ele>
        <time>2011-09-03T11:13:49Z</time>
      </trkpt>
      <trkpt lat="47.74262" lon="-3.38423">
        <ele>19</ele>
        <time>2011-09-03T11:13:51Z</time>
      </trkpt>
      <trkpt lat="47.74266" lon="-3.38415">
        <ele>18</ele>
        <time>2011-09-03T11:13:53Z</time>
      </trkpt>
      <trkpt lat="47.74278" lon="-3.38382">
        <ele>18</ele>
        <time>2011-09-03T11:13:58Z</time>
      </trkpt>
      <trkpt lat="47.74335" lon="-3.38202">
        <ele>18</ele>
        <time>2011-09-03T11:14:22Z</time>
      </trkpt>
      <trkpt lat="47.74352" lon="-3.38159">
        <ele>18</ele>
        <time>2011-09-03T11:14:28Z</time>
      </trkpt>
      <trkpt lat="47.74375" lon="-3.38125">
        <ele>17</ele>
        <time>2011-09-03T11:15:31Z</time>
      </trkpt>
      <trkpt lat="47.74379" lon="-3.3811">
        <ele>17</ele>
        <time>2011-09-03T11:15:33Z</time>
      </trkpt>
      <trkpt lat="47.74384" lon="-3.38068">
        <ele>17</ele>
        <time>2011-09-03T11:15:38Z</time>
      </trkpt>
      <trkpt lat="47.74391" lon="-3.38044">
        <ele>17</ele>
        <time>2011-09-03T11:15:41Z</time>
      </trkpt>
      <trkpt lat="47.74427" lon="-3.37934">
        <ele>15</ele>
        <time>2011-09-03T11:15:56Z</time>
      </trkpt>
      <trkpt lat="47.74484" lon="-3.37778">
        <ele>15</ele>
        <time>2011-09-03T11:16:16Z</time>
      </trkpt>
      <trkpt lat="47.74496" lon="-3.37735">
        <ele>14</ele>
        <time>2011-09-03T11:16:21Z</time>
      </trkpt>
      <trkpt lat="47.745" lon="-3.37719">
        <ele>14</ele>
        <time>2011-09-03T11:16:23Z</time>
      </trkpt>
      <trkpt lat="47.74505" lon="-3.37532">
        <ele>11</ele>
        <time>2011-09-03T11:16:45Z</time>
      </trkpt>
      <trkpt lat="47.74509" lon="-3.37465">
        <ele>10</ele>
        <time>2011-09-03T11:16:53Z</time>
      </trkpt>
      <trkpt lat="47.7451" lon="-3.37393">
        <ele>9</ele>
        <time>2011-09-03T11:17:03Z</time>
      </trkpt>
      <trkpt lat="47.74517" lon="-3.37233">
        <ele>7</ele>
        <time>2011-09-03T11:17:23Z</time>
      </trkpt>
      <trkpt lat="47.74521" lon="-3.37085">
        <ele>9</ele>
        <time>2011-09-03T11:17:41Z</time>
      </trkpt>
      <trkpt lat="47.74535" lon="-3.36839">
        <ele>10</ele>
        <time>2011-09-03T11:18:11Z</time>
      </trkpt>
      <trkpt lat="47.74537" lon="-3.36818">
        <ele>10</ele>
        <time>2011-09-03T11:18:14Z</time>
      </trkpt>
      <trkpt lat="47.74541" lon="-3.36799">
        <ele>10</ele>
        <time>2011-09-03T11:18:17Z</time>
      </trkpt>
      <trkpt lat="47.74554" lon="-3.36775">
        <ele>10</ele>
        <time>2011-09-03T11:18:21Z</time>
      </trkpt>
      <trkpt lat="47.74599" lon="-3.36719">
        <ele>9</ele>
        <time>2011-09-03T11:18:35Z</time>
      </trkpt>
      <trkpt lat="47.74613" lon="-3.36699">
        <ele>9</ele>
        <time>2011-09-03T11:18:44Z</time>
      </trkpt>
      <trkpt lat="47.74743" lon="-3.36532">
        <ele>7</ele>
        <time>2011-09-03T11:19:15Z</time>
      </trkpt>
      <trkpt lat="47.74784" lon="-3.36477">
        <ele>10</ele>
        <time>2011-09-03T11:19:26Z</time>
      </trkpt>
      <trkpt lat="47.74812" lon="-3.36436">
        <ele>11</ele>
        <time>2011-09-03T11:19:49Z</time>
      </trkpt>
      <trkpt lat="47.74814" lon="-3.36432">
        <ele>11</ele>
        <time>2011-09-03T11:19:50Z</time>
      </trkpt>
      <trkpt lat="47.74816" lon="-3.36421">
        <ele>11</ele>
        <time>2011-09-03T11:19:52Z</time>
      </trkpt>
      <trkpt lat="47.74818" lon="-3.36358">
        <ele>11</ele>
        <time>2011-09-03T11:20:05Z</time>
      </trkpt>
      <trkpt lat="47.74821" lon="-3.36347">
        <ele>11</ele>
        <time>2011-09-03T11:20:07Z</time>
      </trkpt>
      <trkpt lat="47.74825" lon="-3.36341">
        <ele>11</ele>
        <time>2011-09-03T11:20:09Z</time>
      </trkpt>
      <trkpt lat="47.74861" lon="-3.36311">
        <ele>13</ele>
        <time>2011-09-03T11:20:20Z</time>
      </trkpt>
      <trkpt lat="47.74886" lon="-3.36288">
        <ele>14</ele>
        <time>2011-09-03T11:20:28Z</time>
      </trkpt>
      <trkpt lat="47.74936" lon="-3.36257">
        <ele>15</ele>
        <time>2011-09-03T11:20:43Z</time>
      </trkpt>
      <trkpt lat="47.74958" lon="-3.3622">
        <ele>15</ele>
        <time>2011-09-03T11:20:52Z</time>
      </trkpt>
      <trkpt lat="47.74985" lon="-3.36204">
        <ele>16</ele>
        <time>2011-09-03T11:21:15Z</time>
      </trkpt>
      <trkpt lat="47.75025" lon="-3.36174">
        <ele>16</ele>
        <time>2011-09-03T11:21:25Z</time>
      </trkpt>
      <trkpt lat="47.7509" lon="-3.36135">
        <ele>14</ele>
        <time>2011-09-03T11:21:39Z</time>
      </trkpt>
      <trkpt lat="47.75113" lon="-3.36128">
        <ele>14</ele>
        <time>2011-09-03T11:21:44Z</time>
      </trkpt>
      <trkpt lat="47.75159" lon="-3.36121">
        <ele>13</ele>
        <time>2011-09-03T11:22:17Z</time>
      </trkpt>
      <trkpt lat="47.75163" lon="-3.36116">
        <ele>13</ele>
        <time>2011-09-03T11:22:18Z</time>
      </trkpt>
      <trkpt lat="47.75167" lon="-3.3611">
        <ele>13</ele>
        <time>2011-09-03T11:22:19Z</time>
      </trkpt>
      <trkpt lat="47.75167" lon="-3.36103">
        <ele>13</ele>
        <time>2011-09-03T11:22:20Z</time>
      </trkpt>
      <trkpt lat="47.75165" lon="-3.36073">
        <ele>12</ele>
        <time>2011-09-03T11:22:24Z</time>
      </trkpt>
      <trkpt lat="47.75159" lon="-3.36039">
        <ele>12</ele>
        <time>2011-09-03T11:22:28Z</time>
      </trkpt>
      <trkpt lat="47.75147" lon="-3.36007">
        <ele>12</ele>
        <time>2011-09-03T11:22:32Z</time>
      </trkpt>
      <trkpt lat="47.75149" lon="-3.35992">
        <ele>11</ele>
        <time>2011-09-03T11:22:34Z</time>
      </trkpt>
      <trkpt lat="47.75153" lon="-3.35988">
        <ele>11</ele>
        <time>2011-09-03T11:22:35Z</time>
      </trkpt>
      <trkpt lat="47.75163" lon="-3.35989">
        <ele>11</ele>
        <time>2011-09-03T11:22:37Z</time>
      </trkpt>
      <trkpt lat="47.75174" lon="-3.35992">
        <ele>11</ele>
        <time>2011-09-03T11:22:39Z</time>
      </trkpt>
      <trkpt lat="47.75201" lon="-3.36004">
        <ele>11</ele>
        <time>2011-09-03T11:22:45Z</time>
      </trkpt>
      <trkpt lat="47.75204" lon="-3.36001">
        <ele>11</ele>
        <time>2011-09-03T11:22:46Z</time>
      </trkpt>
      <trkpt lat="47.75208" lon="-3.35992">
        <ele>10</ele>
        <time>2011-09-03T11:22:48Z</time>
      </trkpt>
      <trkpt lat="47.7524" lon="-3.35855">
        <ele>6</ele>
        <time>2011-09-03T11:23:06Z</time>
      </trkpt>
      <trkpt lat="47.75246" lon="-3.3584">
        <ele>5</ele>
        <time>2011-09-03T11:23:08Z</time>
      </trkpt>
      <trkpt lat="47.7526" lon="-3.35824">
        <ele>6</ele>
        <time>2011-09-03T11:23:11Z</time>
      </trkpt>
      <trkpt lat="47.75264" lon="-3.35821">
        <ele>6</ele>
        <time>2011-09-03T11:23:12Z</time>
      </trkpt>
      <trkpt lat="47.75279" lon="-3.35823">
        <ele>6</ele>
        <time>2011-09-03T11:23:15Z</time>
      </trkpt>
      <trkpt lat="47.75308" lon="-3.35843">
        <ele>8</ele>
        <time>2011-09-03T11:23:21Z</time>
      </trkpt>
      <trkpt lat="47.75313" lon="-3.35846">
        <ele>8</ele>
        <time>2011-09-03T11:23:22Z</time>
      </trkpt>
      <trkpt lat="47.75325" lon="-3.35849">
        <ele>8</ele>
        <time>2011-09-03T11:23:25Z</time>
      </trkpt>
      <trkpt lat="47.75327" lon="-3.35849">
        <ele>8</ele>
        <time>2011-09-03T11:23:26Z</time>
      </trkpt>
      <trkpt lat="47.75335" lon="-3.35843">
        <ele>10</ele>
        <time>2011-09-03T11:23:30Z</time>
      </trkpt>
      <trkpt lat="47.75339" lon="-3.35829">
        <ele>10</ele>
        <time>2011-09-03T11:23:35Z</time>
      </trkpt>
      <trkpt lat="47.75344" lon="-3.35828">
        <ele>10</ele>
        <time>2011-09-03T11:23:37Z</time>
      </trkpt>
      <trkpt lat="47.75364" lon="-3.35845">
        <ele>11</ele>
        <time>2011-09-03T11:23:42Z</time>
      </trkpt>
      <trkpt lat="47.75369" lon="-3.35847">
        <ele>11</ele>
        <time>2011-09-03T11:23:43Z</time>
      </trkpt>
      <trkpt lat="47.75374" lon="-3.35848">
        <ele>11</ele>
        <time>2011-09-03T11:23:44Z</time>
      </trkpt>
      <trkpt lat="47.75384" lon="-3.35845">
        <ele>12</ele>
        <time>2011-09-03T11:23:46Z</time>
      </trkpt>
      <trkpt lat="47.75398" lon="-3.35837">
        <ele>13</ele>
        <time>2011-09-03T11:23:49Z</time>
      </trkpt>
      <trkpt lat="47.75413" lon="-3.35826">
        <ele>14</ele>
        <time>2011-09-03T11:23:52Z</time>
      </trkpt>
      <trkpt lat="47.75426" lon="-3.35812">
        <ele>14</ele>
        <time>2011-09-03T11:23:55Z</time>
      </trkpt>
      <trkpt lat="47.75432" lon="-3.35801">
        <ele>14</ele>
        <time>2011-09-03T11:23:57Z</time>
      </trkpt>
      <trkpt lat="47.75439" lon="-3.3578">
        <ele>14</ele>
        <time>2011-09-03T11:24:00Z</time>
      </trkpt>
      <trkpt lat="47.7545" lon="-3.35737">
        <ele>12</ele>
        <time>2011-09-03T11:24:06Z</time>
      </trkpt>
      <trkpt lat="47.75451" lon="-3.3573">
        <ele>12</ele>
        <time>2011-09-03T11:24:07Z</time>
      </trkpt>
      <trkpt lat="47.75449" lon="-3.35724">
        <ele>12</ele>
        <time>2011-09-03T11:24:08Z</time>
      </trkpt>
      <trkpt lat="47.75442" lon="-3.35715">
        <ele>12</ele>
        <time>2011-09-03T11:24:10Z</time>
      </trkpt>
      <trkpt lat="47.7544" lon="-3.35708">
        <ele>12</ele>
        <time>2011-09-03T11:24:11Z</time>
      </trkpt>
      <trkpt lat="47.75441" lon="-3.35694">
        <ele>12</ele>
        <time>2011-09-03T11:24:13Z</time>
      </trkpt>
      <trkpt lat="47.75453" lon="-3.35659">
        <ele>11</ele>
        <time>2011-09-03T11:24:18Z</time>
      </trkpt>
      <trkpt lat="47.75452" lon="-3.35645">
        <ele>11</ele>
        <time>2011-09-03T11:24:20Z</time>
      </trkpt>
      <trkpt lat="47.75444" lon="-3.35628">
        <ele>11</ele>
        <time>2011-09-03T11:24:23Z</time>
      </trkpt>
      <trkpt lat="47.75443" lon="-3.35621">
        <ele>11</ele>
        <time>2011-09-03T11:24:24Z</time>
      </trkpt>
      <trkpt lat="47.75445" lon="-3.35608">
        <ele>10</ele>
        <time>2011-09-03T11:24:26Z</time>
      </trkpt>
      <trkpt lat="47.75483" lon="-3.35488">
        <ele>4</ele>
        <time>2011-09-03T11:24:43Z</time>
      </trkpt>
      <trkpt lat="47.75485" lon="-3.35481">
        <ele>4</ele>
        <time>2011-09-03T11:24:44Z</time>
      </trkpt>
      <trkpt lat="47.75496" lon="-3.35464">
        <ele>4</ele>
        <time>2011-09-03T11:24:47Z</time>
      </trkpt>
      <trkpt lat="47.75504" lon="-3.35457">
        <ele>5</ele>
        <time>2011-09-03T11:24:49Z</time>
      </trkpt>
      <trkpt lat="47.75509" lon="-3.35455">
        <ele>5</ele>
        <time>2011-09-03T11:24:50Z</time>
      </trkpt>
      <trkpt lat="47.75524" lon="-3.35458">
        <ele>5</ele>
        <time>2011-09-03T11:24:53Z</time>
      </trkpt>
      <trkpt lat="47.75564" lon="-3.3547">
        <ele>5</ele>
        <time>2011-09-03T11:25:00Z</time>
      </trkpt>
      <trkpt lat="47.75592" lon="-3.35466">
        <ele>4.1</ele>
        <time>2011-09-03T11:25:05Z</time>
      </trkpt>
      <trkpt lat="47.75622" lon="-3.35469">
        <ele>3.4</ele>
        <time>2011-09-03T11:25:10Z</time>
      </trkpt>
      <trkpt lat="47.75661" lon="-3.35471">
        <ele>3.8</ele>
        <time>2011-09-03T11:25:17Z</time>
      </trkpt>
      <trkpt lat="47.75683" lon="-3.35476">
        <ele>4.6</ele>
        <time>2011-09-03T11:25:21Z</time>
      </trkpt>
      <trkpt lat="47.75709" lon="-3.35485">
        <ele>4.9</ele>
        <time>2011-09-03T11:25:26Z</time>
      </trkpt>
      <trkpt lat="47.75719" lon="-3.35481">
        <ele>4.7</ele>
        <time>2011-09-03T11:25:28Z</time>
      </trkpt>
      <trkpt lat="47.75734" lon="-3.35482">
        <ele>3.5</ele>
        <time>2011-09-03T11:25:31Z</time>
      </trkpt>
      <trkpt lat="47.75739" lon="-3.3548">
        <ele>3</ele>
        <time>2011-09-03T11:25:32Z</time>
      </trkpt>
      <trkpt lat="47.75761" lon="-3.35457">
        <ele>2</ele>
        <time>2011-09-03T11:25:37Z</time>
      </trkpt>
      <trkpt lat="47.75834" lon="-3.35367">
        <ele>2</ele>
        <time>2011-09-03T11:25:55Z</time>
      </trkpt>
      <trkpt lat="47.75908" lon="-3.35279">
        <ele>1</ele>
        <time>2011-09-03T11:26:11Z</time>
      </trkpt>
      <trkpt lat="47.75913" lon="-3.35268">
        <ele>1</ele>
        <time>2011-09-03T11:26:13Z</time>
      </trkpt>
      <trkpt lat="47.75912" lon="-3.35258">
        <ele>1</ele>
        <time>2011-09-03T11:26:15Z</time>
      </trkpt>
      <trkpt lat="47.75909" lon="-3.35254">
        <ele>1</ele>
        <time>2011-09-03T11:26:16Z</time>
      </trkpt>
      <trkpt lat="47.75901" lon="-3.35245">
        <ele>1</ele>
        <time>2011-09-03T11:26:18Z</time>
      </trkpt>
      <trkpt lat="47.75834" lon="-3.35188">
        <ele>1</ele>
        <time>2011-09-03T11:26:32Z</time>
      </trkpt>
      <trkpt lat="47.75802" lon="-3.35157">
        <ele>3</ele>
        <time>2011-09-03T11:26:39Z</time>
      </trkpt>
      <trkpt lat="47.75777" lon="-3.35143">
        <ele>3</ele>
        <time>2011-09-03T11:26:44Z</time>
      </trkpt>
      <trkpt lat="47.75746" lon="-3.35136">
        <ele>3</ele>
        <time>2011-09-03T11:26:51Z</time>
      </trkpt>
      <trkpt lat="47.75742" lon="-3.35135">
        <ele>3</ele>
        <time>2011-09-03T11:26:52Z</time>
      </trkpt>
      <trkpt lat="47.75738" lon="-3.35125">
        <ele>3</ele>
        <time>2011-09-03T11:26:54Z</time>
      </trkpt>
      <trkpt lat="47.75737" lon="-3.35108">
        <ele>3</ele>
        <time>2011-09-03T11:26:57Z</time>
      </trkpt>
      <trkpt lat="47.75749" lon="-3.35034">
        <ele>4</ele>
        <time>2011-09-03T11:27:09Z</time>
      </trkpt>
      <trkpt lat="47.75763" lon="-3.34974">
        <ele>8</ele>
        <time>2011-09-03T11:27:19Z</time>
      </trkpt>
      <trkpt lat="47.75768" lon="-3.3493">
        <ele>8</ele>
        <time>2011-09-03T11:27:29Z</time>
      </trkpt>
      <trkpt lat="47.75767" lon="-3.34892">
        <ele>8</ele>
        <time>2011-09-03T11:27:35Z</time>
      </trkpt>
      <trkpt lat="47.7577" lon="-3.34805">
        <ele>8</ele>
        <time>2011-09-03T11:27:49Z</time>
      </trkpt>
      <trkpt lat="47.7577" lon="-3.34759">
        <ele>8</ele>
        <time>2011-09-03T11:27:57Z</time>
      </trkpt>
      <trkpt lat="47.75765" lon="-3.34738">
        <ele>7</ele>
        <time>2011-09-03T11:28:00Z</time>
      </trkpt>
      <trkpt lat="47.75757" lon="-3.34723">
        <ele>8</ele>
        <time>2011-09-03T11:28:02Z</time>
      </trkpt>
      <trkpt lat="47.75746" lon="-3.34708">
        <ele>6</ele>
        <time>2011-09-03T11:28:04Z</time>
      </trkpt>
      <trkpt lat="47.75726" lon="-3.34684">
        <ele>7</ele>
        <time>2011-09-03T11:28:08Z</time>
      </trkpt>
      <trkpt lat="47.75719" lon="-3.34672">
        <ele>7</ele>
        <time>2011-09-03T11:28:10Z</time>
      </trkpt>
      <trkpt lat="47.75717" lon="-3.34658">
        <ele>8</ele>
        <time>2011-09-03T11:28:12Z</time>
      </trkpt>
      <trkpt lat="47.75715" lon="-3.34624">
        <ele>9</ele>
        <time>2011-09-03T11:28:17Z</time>
      </trkpt>
      <trkpt lat="47.75705" lon="-3.34584">
        <ele>10</ele>
        <time>2011-09-03T11:28:25Z</time>
      </trkpt>
      <trkpt lat="47.75697" lon="-3.34545">
        <ele>11</ele>
        <time>2011-09-03T11:28:32Z</time>
      </trkpt>
      <trkpt lat="47.75687" lon="-3.3449">
        <ele>13</ele>
        <time>2011-09-03T11:28:42Z</time>
      </trkpt>
      <trkpt lat="47.75684" lon="-3.34456">
        <ele>13</ele>
        <time>2011-09-03T11:28:48Z</time>
      </trkpt>
      <trkpt lat="47.75695" lon="-3.34373">
        <ele>16</ele>
        <time>2011-09-03T11:29:03Z</time>
      </trkpt>
      <trkpt lat="47.75707" lon="-3.34245">
        <ele>21</ele>
        <time>2011-09-03T11:29:26Z</time>
      </trkpt>
      <trkpt lat="47.75711" lon="-3.34217">
        <ele>22</ele>
        <time>2011-09-03T11:29:31Z</time>
      </trkpt>
      <trkpt lat="47.75722" lon="-3.34172">
        <ele>22</ele>
        <time>2011-09-03T11:29:39Z</time>
      </trkpt>
      <trkpt lat="47.75735" lon="-3.34126">
        <ele>23</ele>
        <time>2011-09-03T11:29:58Z</time>
      </trkpt>
      <trkpt lat="47.75749" lon="-3.3409">
        <ele>24</ele>
        <time>2011-09-03T11:30:05Z</time>
      </trkpt>
      <trkpt lat="47.75765" lon="-3.34061">
        <ele>24</ele>
        <time>2011-09-03T11:30:11Z</time>
      </trkpt>
      <trkpt lat="47.75776" lon="-3.34037">
        <ele>24</ele>
        <time>2011-09-03T11:30:16Z</time>
      </trkpt>
      <trkpt lat="47.75806" lon="-3.33984">
        <ele>25</ele>
        <time>2011-09-03T11:30:28Z</time>
      </trkpt>
      <trkpt lat="47.75824" lon="-3.33955">
        <ele>25</ele>
        <time>2011-09-03T11:30:34Z</time>
      </trkpt>
      <trkpt lat="47.75836" lon="-3.3393">
        <ele>25</ele>
        <time>2011-09-03T11:30:39Z</time>
      </trkpt>
      <trkpt lat="47.75845" lon="-3.33917">
        <ele>25</ele>
        <time>2011-09-03T11:30:42Z</time>
      </trkpt>
      <trkpt lat="47.75857" lon="-3.3389">
        <ele>24</ele>
        <time>2011-09-03T11:30:47Z</time>
      </trkpt>
      <trkpt lat="47.75874" lon="-3.33858">
        <ele>23</ele>
        <time>2011-09-03T11:30:53Z</time>
      </trkpt>
      <trkpt lat="47.75905" lon="-3.33809">
        <ele>20</ele>
        <time>2011-09-03T11:31:01Z</time>
      </trkpt>
      <trkpt lat="47.75909" lon="-3.33802">
        <ele>20</ele>
        <time>2011-09-03T11:31:02Z</time>
      </trkpt>
      <trkpt lat="47.7591" lon="-3.33795">
        <ele>20</ele>
        <time>2011-09-03T11:31:03Z</time>
      </trkpt>
      <trkpt lat="47.7591" lon="-3.33788">
        <ele>20</ele>
        <time>2011-09-03T11:31:04Z</time>
      </trkpt>
      <trkpt lat="47.75901" lon="-3.33775">
        <ele>20</ele>
        <time>2011-09-03T11:31:07Z</time>
      </trkpt>
      <trkpt lat="47.75896" lon="-3.33764">
        <ele>19</ele>
        <time>2011-09-03T11:31:09Z</time>
      </trkpt>
      <trkpt lat="47.75888" lon="-3.33701">
        <ele>18</ele>
        <time>2011-09-03T11:31:17Z</time>
      </trkpt>
      <trkpt lat="47.75889" lon="-3.33666">
        <ele>17</ele>
        <time>2011-09-03T11:31:21Z</time>
      </trkpt>
      <trkpt lat="47.75901" lon="-3.33491">
        <ele>17</ele>
        <time>2011-09-03T11:31:43Z</time>
      </trkpt>
      <trkpt lat="47.75905" lon="-3.33465">
        <ele>17</ele>
        <time>2011-09-03T11:31:46Z</time>
      </trkpt>
      <trkpt lat="47.75913" lon="-3.33432">
        <ele>17</ele>
        <time>2011-09-03T11:31:50Z</time>
      </trkpt>
      <trkpt lat="47.75946" lon="-3.33351">
        <ele>16</ele>
        <time>2011-09-03T11:32:01Z</time>
      </trkpt>
      <trkpt lat="47.75956" lon="-3.33316">
        <ele>15</ele>
        <time>2011-09-03T11:32:06Z</time>
      </trkpt>
      <trkpt lat="47.75972" lon="-3.33226">
        <ele>11</ele>
        <time>2011-09-03T11:32:17Z</time>
      </trkpt>
      <trkpt lat="47.75976" lon="-3.33181">
        <ele>10</ele>
        <time>2011-09-03T11:32:21Z</time>
      </trkpt>
      <trkpt lat="47.75976" lon="-3.33156">
        <ele>8</ele>
        <time>2011-09-03T11:32:23Z</time>
      </trkpt>
      <trkpt lat="47.75974" lon="-3.33132">
        <ele>8</ele>
        <time>2011-09-03T11:32:25Z</time>
      </trkpt>
      <trkpt lat="47.75965" lon="-3.33101">
        <ele>8</ele>
        <time>2011-09-03T11:32:28Z</time>
      </trkpt>
      <trkpt lat="47.75964" lon="-3.33091">
        <ele>8</ele>
        <time>2011-09-03T11:32:29Z</time>
      </trkpt>
      <trkpt lat="47.75965" lon="-3.33072">
        <ele>7</ele>
        <time>2011-09-03T11:32:31Z</time>
      </trkpt>
      <trkpt lat="47.75961" lon="-3.33054">
        <ele>7</ele>
        <time>2011-09-03T11:32:33Z</time>
      </trkpt>
      <trkpt lat="47.75953" lon="-3.33033">
        <ele>7</ele>
        <time>2011-09-03T11:32:36Z</time>
      </trkpt>
      <trkpt lat="47.75931" lon="-3.32998">
        <ele>7</ele>
        <time>2011-09-03T11:32:42Z</time>
      </trkpt>
      <trkpt lat="47.75924" lon="-3.32985">
        <ele>7</ele>
        <time>2011-09-03T11:32:44Z</time>
      </trkpt>
      <trkpt lat="47.75919" lon="-3.3297">
        <ele>7</ele>
        <time>2011-09-03T11:32:46Z</time>
      </trkpt>
      <trkpt lat="47.75914" lon="-3.32939">
        <ele>10</ele>
        <time>2011-09-03T11:32:50Z</time>
      </trkpt>
      <trkpt lat="47.75914" lon="-3.32915">
        <ele>9</ele>
        <time>2011-09-03T11:32:53Z</time>
      </trkpt>
      <trkpt lat="47.75931" lon="-3.32716">
        <ele>4</ele>
        <time>2011-09-03T11:33:17Z</time>
      </trkpt>
      <trkpt lat="47.75934" lon="-3.32638">
        <ele>4</ele>
        <time>2011-09-03T11:33:26Z</time>
      </trkpt>
      <trkpt lat="47.75944" lon="-3.32561">
        <ele>4</ele>
        <time>2011-09-03T11:33:35Z</time>
      </trkpt>
      <trkpt lat="47.75954" lon="-3.32511">
        <ele>4</ele>
        <time>2011-09-03T11:33:41Z</time>
      </trkpt>
      <trkpt lat="47.75974" lon="-3.32441">
        <ele>4</ele>
        <time>2011-09-03T11:33:50Z</time>
      </trkpt>
      <trkpt lat="47.75982" lon="-3.3242">
        <ele>5</ele>
        <time>2011-09-03T11:33:53Z</time>
      </trkpt>
      <trkpt lat="47.75991" lon="-3.32401">
        <ele>6</ele>
        <time>2011-09-03T11:33:56Z</time>
      </trkpt>
      <trkpt lat="47.76059" lon="-3.32288">
        <ele>8</ele>
        <time>2011-09-03T11:34:15Z</time>
      </trkpt>
      <trkpt lat="47.76068" lon="-3.32268">
        <ele>8</ele>
        <time>2011-09-03T11:34:18Z</time>
      </trkpt>
      <trkpt lat="47.76073" lon="-3.32229">
        <ele>9</ele>
        <time>2011-09-03T11:34:24Z</time>
      </trkpt>
      <trkpt lat="47.76071" lon="-3.32172">
        <ele>10</ele>
        <time>2011-09-03T11:34:35Z</time>
      </trkpt>
      <trkpt lat="47.76072" lon="-3.3214">
        <ele>11</ele>
        <time>2011-09-03T11:34:41Z</time>
      </trkpt>
      <trkpt lat="47.76079" lon="-3.32099">
        <ele>13</ele>
        <time>2011-09-03T11:34:48Z</time>
      </trkpt>
      <trkpt lat="47.7608" lon="-3.32088">
        <ele>13</ele>
        <time>2011-09-03T11:34:50Z</time>
      </trkpt>
      <trkpt lat="47.76082" lon="-3.32084">
        <ele>14</ele>
        <time>2011-09-03T11:34:51Z</time>
      </trkpt>
      <trkpt lat="47.76088" lon="-3.3208">
        <ele>15</ele>
        <time>2011-09-03T11:34:53Z</time>
      </trkpt>
      <trkpt lat="47.76136" lon="-3.32074">
        <ele>19</ele>
        <time>2011-09-03T11:35:06Z</time>
      </trkpt>
      <trkpt lat="47.76211" lon="-3.32087">
        <ele>19</ele>
        <time>2011-09-03T11:35:28Z</time>
      </trkpt>
      <trkpt lat="47.76221" lon="-3.32087">
        <ele>19</ele>
        <time>2011-09-03T11:35:31Z</time>
      </trkpt>
      <trkpt lat="47.7623" lon="-3.32084">
        <ele>20</ele>
        <time>2011-09-03T11:35:34Z</time>
      </trkpt>
      <trkpt lat="47.76243" lon="-3.32077">
        <ele>24</ele>
        <time>2011-09-03T11:35:38Z</time>
      </trkpt>
      <trkpt lat="47.76252" lon="-3.32069">
        <ele>23</ele>
        <time>2011-09-03T11:35:41Z</time>
      </trkpt>
      <trkpt lat="47.76265" lon="-3.32044">
        <ele>24</ele>
        <time>2011-09-03T11:35:47Z</time>
      </trkpt>
      <trkpt lat="47.76281" lon="-3.32004">
        <ele>25</ele>
        <time>2011-09-03T11:35:56Z</time>
      </trkpt>
      <trkpt lat="47.76309" lon="-3.31911">
        <ele>28</ele>
        <time>2011-09-03T11:36:15Z</time>
      </trkpt>
      <trkpt lat="47.76314" lon="-3.31886">
        <ele>29</ele>
        <time>2011-09-03T11:36:20Z</time>
      </trkpt>
      <trkpt lat="47.76339" lon="-3.317">
        <ele>33</ele>
        <time>2011-09-03T11:36:55Z</time>
      </trkpt>
      <trkpt lat="47.76352" lon="-3.31612">
        <ele>33</ele>
        <time>2011-09-03T11:37:10Z</time>
      </trkpt>
      <trkpt lat="47.76368" lon="-3.31556">
        <ele>33</ele>
        <time>2011-09-03T11:37:21Z</time>
      </trkpt>
      <trkpt lat="47.764" lon="-3.31462">
        <ele>32</ele>
        <time>2011-09-03T11:37:36Z</time>
      </trkpt>
      <trkpt lat="47.7642" lon="-3.31344">
        <ele>28</ele>
        <time>2011-09-03T11:37:49Z</time>
      </trkpt>
      <trkpt lat="47.7643" lon="-3.31305">
        <ele>26</ele>
        <time>2011-09-03T11:37:53Z</time>
      </trkpt>
      <trkpt lat="47.76448" lon="-3.31258">
        <ele>26</ele>
        <time>2011-09-03T11:37:58Z</time>
      </trkpt>
      <trkpt lat="47.76486" lon="-3.31171">
        <ele>26</ele>
        <time>2011-09-03T11:38:08Z</time>
      </trkpt>
      <trkpt lat="47.76498" lon="-3.31148">
        <ele>25</ele>
        <time>2011-09-03T11:38:11Z</time>
      </trkpt>
      <trkpt lat="47.76524" lon="-3.31109">
        <ele>26</ele>
        <time>2011-09-03T11:38:17Z</time>
      </trkpt>
      <trkpt lat="47.76578" lon="-3.3104">
        <ele>25</ele>
        <time>2011-09-03T11:38:30Z</time>
      </trkpt>
      <trkpt lat="47.76619" lon="-3.30983">
        <ele>26</ele>
        <time>2011-09-03T11:38:41Z</time>
      </trkpt>
      <trkpt lat="47.76633" lon="-3.3096">
        <ele>26</ele>
        <time>2011-09-03T11:38:45Z</time>
      </trkpt>
      <trkpt lat="47.76637" lon="-3.30945">
        <ele>26</ele>
        <time>2011-09-03T11:38:47Z</time>
      </trkpt>
      <trkpt lat="47.76639" lon="-3.30928">
        <ele>25</ele>
        <time>2011-09-03T11:38:49Z</time>
      </trkpt>
      <trkpt lat="47.76634" lon="-3.30885">
        <ele>24</ele>
        <time>2011-09-03T11:38:54Z</time>
      </trkpt>
      <trkpt lat="47.76624" lon="-3.30821">
        <ele>24</ele>
        <time>2011-09-03T11:39:03Z</time>
      </trkpt>
      <trkpt lat="47.7662" lon="-3.30775">
        <ele>24</ele>
        <time>2011-09-03T11:39:10Z</time>
      </trkpt>
      <trkpt lat="47.7662" lon="-3.30732">
        <ele>24</ele>
        <time>2011-09-03T11:39:16Z</time>
      </trkpt>
      <trkpt lat="47.76617" lon="-3.30666">
        <ele>26</ele>
        <time>2011-09-03T11:39:24Z</time>
      </trkpt>
      <trkpt lat="47.76624" lon="-3.30639">
        <ele>28</ele>
        <time>2011-09-03T11:39:29Z</time>
      </trkpt>
      <trkpt lat="47.76623" lon="-3.30623">
        <ele>28</ele>
        <time>2011-09-03T11:39:32Z</time>
      </trkpt>
      <trkpt lat="47.76618" lon="-3.30594">
        <ele>28</ele>
        <time>2011-09-03T11:39:37Z</time>
      </trkpt>
      <trkpt lat="47.76603" lon="-3.30541">
        <ele>31</ele>
        <time>2011-09-03T11:39:46Z</time>
      </trkpt>
      <trkpt lat="47.76583" lon="-3.30451">
        <ele>23</ele>
        <time>2011-09-03T11:39:59Z</time>
      </trkpt>
      <trkpt lat="47.76563" lon="-3.30383">
        <ele>20</ele>
        <time>2011-09-03T11:40:09Z</time>
      </trkpt>
      <trkpt lat="47.76487" lon="-3.30175">
        <time>2011-09-03T11:40:41Z</time>
      </trkpt>
      <trkpt lat="47.76353" lon="-3.29828">
        <ele>28</ele>
        <time>2011-09-03T11:41:33Z</time>
      </trkpt>
      <trkpt lat="47.76349" lon="-3.29823">
        <ele>28</ele>
        <time>2011-09-03T11:41:34Z</time>
      </trkpt>
      <trkpt lat="47.76345" lon="-3.2982">
        <ele>27</ele>
        <time>2011-09-03T11:41:35Z</time>
      </trkpt>
      <trkpt lat="47.7634" lon="-3.29821">
        <ele>27</ele>
        <time>2011-09-03T11:41:36Z</time>
      </trkpt>
      <trkpt lat="47.76337" lon="-3.29826">
        <ele>27</ele>
        <time>2011-09-03T11:41:37Z</time>
      </trkpt>
      <trkpt lat="47.76337" lon="-3.2984">
        <ele>27</ele>
        <time>2011-09-03T11:41:39Z</time>
      </trkpt>
      <trkpt lat="47.76345" lon="-3.29868">
        <ele>28</ele>
        <time>2011-09-03T11:41:43Z</time>
      </trkpt>
      <trkpt lat="47.76362" lon="-3.29912">
        <ele>28</ele>
        <time>2011-09-03T11:41:50Z</time>
      </trkpt>
      <trkpt lat="47.76373" lon="-3.29945">
        <ele>25</ele>
        <time>2011-09-03T11:41:56Z</time>
      </trkpt>
      <trkpt lat="47.76377" lon="-3.29968">
        <ele>24</ele>
        <time>2011-09-03T11:42:00Z</time>
      </trkpt>
      <trkpt lat="47.76376" lon="-3.29972">
        <ele>24</ele>
        <time>2011-09-03T11:42:01Z</time>
      </trkpt>
      <trkpt lat="47.76374" lon="-3.29974">
        <ele>24</ele>
        <time>2011-09-03T11:42:02Z</time>
      </trkpt>
      <trkpt lat="47.76375" lon="-3.29979">
        <ele>24</ele>
        <time>2011-09-03T11:43:10Z</time>
      </trkpt>
      <trkpt lat="47.76377" lon="-3.29983">
        <ele>24</ele>
        <time>2011-09-03T11:43:11Z</time>
      </trkpt>
      <trkpt lat="47.76388" lon="-3.30015">
        <ele>19</ele>
        <time>2011-09-03T11:43:16Z</time>
      </trkpt>
      <trkpt lat="47.76397" lon="-3.30026">
        <ele>19</ele>
        <time>2011-09-03T11:43:18Z</time>
      </trkpt>
      <trkpt lat="47.76409" lon="-3.3003">
        <ele>18</ele>
        <time>2011-09-03T11:43:20Z</time>
      </trkpt>
      <trkpt lat="47.76414" lon="-3.30029">
        <ele>19</ele>
        <time>2011-09-03T11:43:21Z</time>
      </trkpt>
      <trkpt lat="47.7643" lon="-3.30025">
        <ele>18</ele>
        <time>2011-09-03T11:43:26Z</time>
      </trkpt>
      <trkpt lat="47.76438" lon="-3.30017">
        <ele>18</ele>
        <time>2011-09-03T11:43:30Z</time>
      </trkpt>
      <trkpt lat="47.76438" lon="-3.30003">
        <ele>19</ele>
        <time>2011-09-03T11:43:32Z</time>
      </trkpt>
      <trkpt lat="47.76433" lon="-3.29989">
        <ele>22</ele>
        <time>2011-09-03T11:43:34Z</time>
      </trkpt>
      <trkpt lat="47.76423" lon="-3.29969">
        <ele>24</ele>
        <time>2011-09-03T11:43:38Z</time>
      </trkpt>
      <trkpt lat="47.7641" lon="-3.29948">
        <ele>26</ele>
        <time>2011-09-03T11:43:44Z</time>
      </trkpt>
      <trkpt lat="47.76404" lon="-3.29934">
        <ele>27</ele>
        <time>2011-09-03T11:43:47Z</time>
      </trkpt>
      <trkpt lat="47.76384" lon="-3.29856">
        <ele>29</ele>
        <time>2011-09-03T11:43:59Z</time>
      </trkpt>
      <trkpt lat="47.76372" lon="-3.29779">
        <ele>29</ele>
        <time>2011-09-03T11:44:11Z</time>
      </trkpt>
      <trkpt lat="47.76375" lon="-3.29769">
        <ele>29</ele>
        <time>2011-09-03T11:44:13Z</time>
      </trkpt>
      <trkpt lat="47.76385" lon="-3.2975">
        <ele>27</ele>
        <time>2011-09-03T11:44:17Z</time>
      </trkpt>
      <trkpt lat="47.76416" lon="-3.297">
        <ele>26</ele>
        <time>2011-09-03T11:44:26Z</time>
      </trkpt>
      <trkpt lat="47.76466" lon="-3.2961">
        <ele>24</ele>
        <time>2011-09-03T11:44:41Z</time>
      </trkpt>
      <trkpt lat="47.76469" lon="-3.29604">
        <ele>24</ele>
        <time>2011-09-03T11:44:42Z</time>
      </trkpt>
      <trkpt lat="47.76474" lon="-3.29577">
        <ele>24</ele>
        <time>2011-09-03T11:44:46Z</time>
      </trkpt>
      <trkpt lat="47.76472" lon="-3.29565">
        <ele>24</ele>
        <time>2011-09-03T11:44:48Z</time>
      </trkpt>
      <trkpt lat="47.76467" lon="-3.29558">
        <ele>24</ele>
        <time>2011-09-03T11:44:50Z</time>
      </trkpt>
      <trkpt lat="47.76429" lon="-3.29536">
        <ele>24</ele>
        <time>2011-09-03T11:44:58Z</time>
      </trkpt>
      <trkpt lat="47.76392" lon="-3.29524">
        <ele>24</ele>
        <time>2011-09-03T11:45:05Z</time>
      </trkpt>
      <trkpt lat="47.76367" lon="-3.2952">
        <ele>24</ele>
        <time>2011-09-03T11:45:11Z</time>
      </trkpt>
      <trkpt lat="47.76255" lon="-3.29518">
        <ele>25</ele>
        <time>2011-09-03T11:45:36Z</time>
      </trkpt>
      <trkpt lat="47.76235" lon="-3.29516">
        <ele>25</ele>
        <time>2011-09-03T11:45:39Z</time>
      </trkpt>
      <trkpt lat="47.76209" lon="-3.29508">
        <ele>25</ele>
        <time>2011-09-03T11:45:43Z</time>
      </trkpt>
      <trkpt lat="47.76166" lon="-3.29483">
        <ele>28</ele>
        <time>2011-09-03T11:45:53Z</time>
      </trkpt>
      <trkpt lat="47.76142" lon="-3.29477">
        <ele>29</ele>
        <time>2011-09-03T11:45:58Z</time>
      </trkpt>
      <trkpt lat="47.76127" lon="-3.29476">
        <ele>29</ele>
        <time>2011-09-03T11:46:01Z</time>
      </trkpt>
      <trkpt lat="47.76113" lon="-3.29477">
        <ele>30</ele>
        <time>2011-09-03T11:46:04Z</time>
      </trkpt>
      <trkpt lat="47.76099" lon="-3.2948">
        <ele>30</ele>
        <time>2011-09-03T11:46:07Z</time>
      </trkpt>
      <trkpt lat="47.7603" lon="-3.29508">
        <ele>28</ele>
        <time>2011-09-03T11:46:23Z</time>
      </trkpt>
      <trkpt lat="47.76009" lon="-3.29513">
        <ele>28</ele>
        <time>2011-09-03T11:46:28Z</time>
      </trkpt>
      <trkpt lat="47.75992" lon="-3.2952">
        <ele>28</ele>
        <time>2011-09-03T11:46:32Z</time>
      </trkpt>
      <trkpt lat="47.75984" lon="-3.29526">
        <ele>28</ele>
        <time>2011-09-03T11:46:34Z</time>
      </trkpt>
      <trkpt lat="47.75978" lon="-3.29535">
        <ele>28</ele>
        <time>2011-09-03T11:46:36Z</time>
      </trkpt>
      <trkpt lat="47.75961" lon="-3.29571">
        <ele>28</ele>
        <time>2011-09-03T11:46:43Z</time>
      </trkpt>
      <trkpt lat="47.75954" lon="-3.29579">
        <ele>29</ele>
        <time>2011-09-03T11:46:45Z</time>
      </trkpt>
      <trkpt lat="47.75947" lon="-3.29583">
        <ele>29</ele>
        <time>2011-09-03T11:46:47Z</time>
      </trkpt>
      <trkpt lat="47.75935" lon="-3.29583">
        <ele>29</ele>
        <time>2011-09-03T11:46:50Z</time>
      </trkpt>
      <trkpt lat="47.75905" lon="-3.29577">
        <ele>29</ele>
        <time>2011-09-03T11:46:57Z</time>
      </trkpt>
      <trkpt lat="47.75886" lon="-3.29575">
        <ele>29</ele>
        <time>2011-09-03T11:47:02Z</time>
      </trkpt>
      <trkpt lat="47.75835" lon="-3.29574">
        <ele>30</ele>
        <time>2011-09-03T11:47:14Z</time>
      </trkpt>
      <trkpt lat="47.75809" lon="-3.29572">
        <ele>31</ele>
        <time>2011-09-03T11:47:20Z</time>
      </trkpt>
      <trkpt lat="47.75788" lon="-3.29574">
        <ele>31</ele>
        <time>2011-09-03T11:47:25Z</time>
      </trkpt>
      <trkpt lat="47.75768" lon="-3.29577">
        <ele>31</ele>
        <time>2011-09-03T11:47:30Z</time>
      </trkpt>
      <trkpt lat="47.75732" lon="-3.29587">
        <ele>30</ele>
        <time>2011-09-03T11:47:39Z</time>
      </trkpt>
      <trkpt lat="47.75678" lon="-3.29598">
        <ele>29</ele>
        <time>2011-09-03T11:47:51Z</time>
      </trkpt>
      <trkpt lat="47.75597" lon="-3.2962">
        <ele>27</ele>
        <time>2011-09-03T11:48:08Z</time>
      </trkpt>
      <trkpt lat="47.75584" lon="-3.29622">
        <ele>27</ele>
        <time>2011-09-03T11:48:11Z</time>
      </trkpt>
      <trkpt lat="47.75544" lon="-3.29614">
        <ele>27</ele>
        <time>2011-09-03T11:48:20Z</time>
      </trkpt>
      <trkpt lat="47.75518" lon="-3.29607">
        <ele>27</ele>
        <time>2011-09-03T11:48:26Z</time>
      </trkpt>
      <trkpt lat="47.75444" lon="-3.29591">
        <ele>27</ele>
        <time>2011-09-03T11:48:43Z</time>
      </trkpt>
      <trkpt lat="47.75408" lon="-3.29588">
        <ele>27</ele>
        <time>2011-09-03T11:48:52Z</time>
      </trkpt>
      <trkpt lat="47.75386" lon="-3.29584">
        <ele>27</ele>
        <time>2011-09-03T11:48:57Z</time>
      </trkpt>
      <trkpt lat="47.75372" lon="-3.29585">
        <ele>26</ele>
        <time>2011-09-03T11:49:00Z</time>
      </trkpt>
      <trkpt lat="47.75358" lon="-3.29587">
        <ele>26</ele>
        <time>2011-09-03T11:49:03Z</time>
      </trkpt>
      <trkpt lat="47.75353" lon="-3.29587">
        <ele>26</ele>
        <time>2011-09-03T11:49:04Z</time>
      </trkpt>
      <trkpt lat="47.75341" lon="-3.2959">
        <ele>26</ele>
        <time>2011-09-03T11:49:06Z</time>
      </trkpt>
      <trkpt lat="47.753" lon="-3.29607">
        <ele>29</ele>
        <time>2011-09-03T11:49:13Z</time>
      </trkpt>
      <trkpt lat="47.75296" lon="-3.29609">
        <ele>29</ele>
        <time>2011-09-03T11:49:14Z</time>
      </trkpt>
      <trkpt lat="47.75292" lon="-3.29607">
        <ele>29</ele>
        <time>2011-09-03T11:49:15Z</time>
      </trkpt>
      <trkpt lat="47.75288" lon="-3.29605">
        <ele>29</ele>
        <time>2011-09-03T11:49:16Z</time>
      </trkpt>
      <trkpt lat="47.75281" lon="-3.29591">
        <ele>29</ele>
        <time>2011-09-03T11:49:19Z</time>
      </trkpt>
      <trkpt lat="47.75272" lon="-3.29566">
        <ele>29</ele>
        <time>2011-09-03T11:49:23Z</time>
      </trkpt>
      <trkpt lat="47.75267" lon="-3.29504">
        <ele>29</ele>
        <time>2011-09-03T11:49:32Z</time>
      </trkpt>
      <trkpt lat="47.75266" lon="-3.29463">
        <ele>30</ele>
        <time>2011-09-03T11:49:38Z</time>
      </trkpt>
      <trkpt lat="47.75261" lon="-3.29445">
        <ele>30</ele>
        <time>2011-09-03T11:49:41Z</time>
      </trkpt>
      <trkpt lat="47.75253" lon="-3.29431">
        <ele>31</ele>
        <time>2011-09-03T11:49:44Z</time>
      </trkpt>
      <trkpt lat="47.75222" lon="-3.29394">
        <ele>32</ele>
        <time>2011-09-03T11:49:54Z</time>
      </trkpt>
      <trkpt lat="47.75217" lon="-3.29384">
        <ele>33</ele>
        <time>2011-09-03T11:49:56Z</time>
      </trkpt>
      <trkpt lat="47.75217" lon="-3.29341">
        <ele>33</ele>
        <time>2011-09-03T11:50:03Z</time>
      </trkpt>
      <trkpt lat="47.75213" lon="-3.29287">
        <ele>33</ele>
        <time>2011-09-03T11:50:11Z</time>
      </trkpt>
      <trkpt lat="47.7521" lon="-3.29227">
        <ele>33</ele>
        <time>2011-09-03T11:50:20Z</time>
      </trkpt>
      <trkpt lat="47.75207" lon="-3.29216">
        <ele>33</ele>
        <time>2011-09-03T11:50:22Z</time>
      </trkpt>
      <trkpt lat="47.752" lon="-3.29206">
        <ele>33</ele>
        <time>2011-09-03T11:50:25Z</time>
      </trkpt>
      <trkpt lat="47.75191" lon="-3.29195">
        <ele>33</ele>
        <time>2011-09-03T11:50:28Z</time>
      </trkpt>
      <trkpt lat="47.75189" lon="-3.2919">
        <ele>33</ele>
        <time>2011-09-03T11:50:29Z</time>
      </trkpt>
      <trkpt lat="47.75177" lon="-3.29099">
        <ele>35</ele>
        <time>2011-09-03T11:50:43Z</time>
      </trkpt>
      <trkpt lat="47.75163" lon="-3.29056">
        <ele>35</ele>
        <time>2011-09-03T11:50:51Z</time>
      </trkpt>
      <trkpt lat="47.75154" lon="-3.29042">
        <ele>36</ele>
        <time>2011-09-03T11:50:54Z</time>
      </trkpt>
      <trkpt lat="47.7515" lon="-3.29031">
        <ele>36</ele>
        <time>2011-09-03T11:50:56Z</time>
      </trkpt>
      <trkpt lat="47.75148" lon="-3.29017">
        <ele>35</ele>
        <time>2011-09-03T11:50:58Z</time>
      </trkpt>
      <trkpt lat="47.75148" lon="-3.28979">
        <ele>35</ele>
        <time>2011-09-03T11:51:04Z</time>
      </trkpt>
      <trkpt lat="47.75144" lon="-3.28969">
        <ele>35</ele>
        <time>2011-09-03T11:51:06Z</time>
      </trkpt>
      <trkpt lat="47.75141" lon="-3.28967">
        <ele>35</ele>
        <time>2011-09-03T11:51:07Z</time>
      </trkpt>
      <trkpt lat="47.75138" lon="-3.28967">
        <ele>35</ele>
        <time>2011-09-03T11:51:08Z</time>
      </trkpt>
      <trkpt lat="47.75131" lon="-3.28972">
        <ele>35</ele>
        <time>2011-09-03T11:51:10Z</time>
      </trkpt>
      <trkpt lat="47.75105" lon="-3.29">
        <ele>35</ele>
        <time>2011-09-03T11:51:17Z</time>
      </trkpt>
      <trkpt lat="47.75094" lon="-3.29018">
        <ele>36</ele>
        <time>2011-09-03T11:51:21Z</time>
      </trkpt>
      <trkpt lat="47.75083" lon="-3.29045">
        <ele>38</ele>
        <time>2011-09-03T11:51:26Z</time>
      </trkpt>
      <trkpt lat="47.75069" lon="-3.29058">
        <ele>39</ele>
        <time>2011-09-03T11:51:30Z</time>
      </trkpt>
      <trkpt lat="47.75062" lon="-3.29074">
        <ele>39</ele>
        <time>2011-09-03T11:51:33Z</time>
      </trkpt>
      <trkpt lat="47.75046" lon="-3.2912">
        <ele>40</ele>
        <time>2011-09-03T11:51:40Z</time>
      </trkpt>
      <trkpt lat="47.75028" lon="-3.29165">
        <ele>40</ele>
        <time>2011-09-03T11:51:47Z</time>
      </trkpt>
      <trkpt lat="47.7502" lon="-3.29183">
        <ele>39</ele>
        <time>2011-09-03T11:51:50Z</time>
      </trkpt>
      <trkpt lat="47.75009" lon="-3.29199">
        <ele>39</ele>
        <time>2011-09-03T11:51:53Z</time>
      </trkpt>
      <trkpt lat="47.74956" lon="-3.29258">
        <ele>36</ele>
        <time>2011-09-03T11:52:06Z</time>
      </trkpt>
      <trkpt lat="47.74942" lon="-3.29267">
        <ele>36</ele>
        <time>2011-09-03T11:52:09Z</time>
      </trkpt>
      <trkpt lat="47.74905" lon="-3.29278">
        <ele>34</ele>
        <time>2011-09-03T11:52:16Z</time>
      </trkpt>
      <trkpt lat="47.7489" lon="-3.29286">
        <ele>34</ele>
        <time>2011-09-03T11:52:19Z</time>
      </trkpt>
      <trkpt lat="47.74871" lon="-3.29303">
        <ele>34</ele>
        <time>2011-09-03T11:52:23Z</time>
      </trkpt>
      <trkpt lat="47.74855" lon="-3.29323">
        <ele>33</ele>
        <time>2011-09-03T11:52:27Z</time>
      </trkpt>
      <trkpt lat="47.74842" lon="-3.29346">
        <ele>33</ele>
        <time>2011-09-03T11:52:31Z</time>
      </trkpt>
      <trkpt lat="47.74825" lon="-3.2938">
        <ele>33</ele>
        <time>2011-09-03T11:52:37Z</time>
      </trkpt>
      <trkpt lat="47.74721" lon="-3.29626">
        <ele>28</ele>
        <time>2011-09-03T11:53:13Z</time>
      </trkpt>
      <trkpt lat="47.747" lon="-3.29663">
        <ele>28</ele>
        <time>2011-09-03T11:53:19Z</time>
      </trkpt>
      <trkpt lat="47.74691" lon="-3.29671">
        <ele>25</ele>
        <time>2011-09-03T11:53:21Z</time>
      </trkpt>
      <trkpt lat="47.7468" lon="-3.29674">
        <ele>25</ele>
        <time>2011-09-03T11:53:23Z</time>
      </trkpt>
      <trkpt lat="47.74671" lon="-3.29673">
        <ele>26</ele>
        <time>2011-09-03T11:53:25Z</time>
      </trkpt>
      <trkpt lat="47.74658" lon="-3.29666">
        <ele>27</ele>
        <time>2011-09-03T11:53:28Z</time>
      </trkpt>
      <trkpt lat="47.74597" lon="-3.29625">
        <ele>30</ele>
        <time>2011-09-03T11:53:45Z</time>
      </trkpt>
      <trkpt lat="47.74556" lon="-3.296">
        <ele>32</ele>
        <time>2011-09-03T11:53:57Z</time>
      </trkpt>
      <trkpt lat="47.74545" lon="-3.29589">
        <ele>32</ele>
        <time>2011-09-03T11:54:00Z</time>
      </trkpt>
      <trkpt lat="47.74515" lon="-3.29572">
        <ele>34</ele>
        <time>2011-09-03T11:54:09Z</time>
      </trkpt>
      <trkpt lat="47.745" lon="-3.29567">
        <ele>34</ele>
        <time>2011-09-03T11:54:13Z</time>
      </trkpt>
      <trkpt lat="47.74485" lon="-3.2957">
        <ele>36</ele>
        <time>2011-09-03T11:54:17Z</time>
      </trkpt>
      <trkpt lat="47.74481" lon="-3.29573">
        <ele>36</ele>
        <time>2011-09-03T11:54:18Z</time>
      </trkpt>
      <trkpt lat="47.7447" lon="-3.29578">
        <ele>36</ele>
        <time>2011-09-03T11:54:21Z</time>
      </trkpt>
      <trkpt lat="47.74443" lon="-3.2959">
        <ele>36</ele>
        <time>2011-09-03T11:54:29Z</time>
      </trkpt>
      <trkpt lat="47.74423" lon="-3.2959">
        <ele>37</ele>
        <time>2011-09-03T11:54:35Z</time>
      </trkpt>
      <trkpt lat="47.74385" lon="-3.29588">
        <ele>37</ele>
        <time>2011-09-03T11:54:45Z</time>
      </trkpt>
      <trkpt lat="47.74357" lon="-3.29581">
        <ele>38</ele>
        <time>2011-09-03T11:54:52Z</time>
      </trkpt>
      <trkpt lat="47.74301" lon="-3.29557">
        <ele>38</ele>
        <time>2011-09-03T11:55:04Z</time>
      </trkpt>
      <trkpt lat="47.74273" lon="-3.29544">
        <ele>38</ele>
        <time>2011-09-03T11:55:10Z</time>
      </trkpt>
      <trkpt lat="47.74248" lon="-3.29533">
        <ele>38</ele>
        <time>2011-09-03T11:55:15Z</time>
      </trkpt>
      <trkpt lat="47.74217" lon="-3.29523">
        <ele>38</ele>
        <time>2011-09-03T11:55:21Z</time>
      </trkpt>
      <trkpt lat="47.74201" lon="-3.2952">
        <ele>38</ele>
        <time>2011-09-03T11:55:24Z</time>
      </trkpt>
      <trkpt lat="47.7418" lon="-3.29522">
        <ele>38</ele>
        <time>2011-09-03T11:55:28Z</time>
      </trkpt>
      <trkpt lat="47.74156" lon="-3.29527">
        <ele>38</ele>
        <time>2011-09-03T11:55:33Z</time>
      </trkpt>
      <trkpt lat="47.74085" lon="-3.29538">
        <ele>37</ele>
        <time>2011-09-03T11:55:47Z</time>
      </trkpt>
      <trkpt lat="47.74059" lon="-3.29545">
        <ele>36</ele>
        <time>2011-09-03T11:55:52Z</time>
      </trkpt>
      <trkpt lat="47.74019" lon="-3.29552">
        <ele>35</ele>
        <time>2011-09-03T11:56:00Z</time>
      </trkpt>
      <trkpt lat="47.73995" lon="-3.29553">
        <ele>34</ele>
        <time>2011-09-03T11:56:05Z</time>
      </trkpt>
      <trkpt lat="47.73982" lon="-3.29549">
        <ele>34</ele>
        <time>2011-09-03T11:56:08Z</time>
      </trkpt>
      <trkpt lat="47.7393" lon="-3.2952">
        <ele>34</ele>
        <time>2011-09-03T11:56:18Z</time>
      </trkpt>
      <trkpt lat="47.73912" lon="-3.29514">
        <ele>34</ele>
        <time>2011-09-03T11:56:21Z</time>
      </trkpt>
      <trkpt lat="47.73893" lon="-3.29515">
        <ele>34</ele>
        <time>2011-09-03T11:56:24Z</time>
      </trkpt>
      <trkpt lat="47.73882" lon="-3.29518">
        <ele>33</ele>
        <time>2011-09-03T11:56:26Z</time>
      </trkpt>
      <trkpt lat="47.73866" lon="-3.29525">
        <ele>33</ele>
        <time>2011-09-03T11:56:29Z</time>
      </trkpt>
      <trkpt lat="47.73816" lon="-3.29552">
        <ele>32</ele>
        <time>2011-09-03T11:56:39Z</time>
      </trkpt>
      <trkpt lat="47.73802" lon="-3.29557">
        <ele>32</ele>
        <time>2011-09-03T11:56:42Z</time>
      </trkpt>
      <trkpt lat="47.7378" lon="-3.29563">
        <ele>32</ele>
        <time>2011-09-03T11:56:46Z</time>
      </trkpt>
      <trkpt lat="47.73731" lon="-3.2957">
        <ele>31</ele>
        <time>2011-09-03T11:56:55Z</time>
      </trkpt>
      <trkpt lat="47.73688" lon="-3.29567">
        <ele>32</ele>
        <time>2011-09-03T11:57:03Z</time>
      </trkpt>
      <trkpt lat="47.73667" lon="-3.29568">
        <ele>32</ele>
        <time>2011-09-03T11:57:07Z</time>
      </trkpt>
      <trkpt lat="47.73567" lon="-3.29592">
        <ele>31</ele>
        <time>2011-09-03T11:57:26Z</time>
      </trkpt>
      <trkpt lat="47.73509" lon="-3.29609">
        <ele>32</ele>
        <time>2011-09-03T11:57:38Z</time>
      </trkpt>
      <trkpt lat="47.73489" lon="-3.29611">
        <ele>31</ele>
        <time>2011-09-03T11:57:42Z</time>
      </trkpt>
      <trkpt lat="47.73467" lon="-3.29612">
        <ele>31</ele>
        <time>2011-09-03T11:57:46Z</time>
      </trkpt>
      <trkpt lat="47.73446" lon="-3.29607">
        <ele>30</ele>
        <time>2011-09-03T11:57:50Z</time>
      </trkpt>
      <trkpt lat="47.7343" lon="-3.29601">
        <ele>30</ele>
        <time>2011-09-03T11:57:53Z</time>
      </trkpt>
      <trkpt lat="47.73403" lon="-3.29585">
        <ele>29</ele>
        <time>2011-09-03T11:57:58Z</time>
      </trkpt>
      <trkpt lat="47.73385" lon="-3.29577">
        <ele>27</ele>
        <time>2011-09-03T11:58:01Z</time>
      </trkpt>
      <trkpt lat="47.73368" lon="-3.29571">
        <ele>27</ele>
        <time>2011-09-03T11:58:04Z</time>
      </trkpt>
      <trkpt lat="47.73351" lon="-3.29568">
        <ele>27</ele>
        <time>2011-09-03T11:58:07Z</time>
      </trkpt>
      <trkpt lat="47.73339" lon="-3.29568">
        <ele>27</ele>
        <time>2011-09-03T11:58:09Z</time>
      </trkpt>
      <trkpt lat="47.73324" lon="-3.29571">
        <ele>27</ele>
        <time>2011-09-03T11:58:12Z</time>
      </trkpt>
      <trkpt lat="47.73266" lon="-3.29587">
        <ele>28</ele>
        <time>2011-09-03T11:58:24Z</time>
      </trkpt>
      <trkpt lat="47.73247" lon="-3.29588">
        <ele>28</ele>
        <time>2011-09-03T11:58:28Z</time>
      </trkpt>
      <trkpt lat="47.73204" lon="-3.29584">
        <ele>26</ele>
        <time>2011-09-03T11:58:36Z</time>
      </trkpt>
      <trkpt lat="47.73189" lon="-3.29586">
        <ele>26</ele>
        <time>2011-09-03T11:58:39Z</time>
      </trkpt>
      <trkpt lat="47.73168" lon="-3.29593">
        <ele>25</ele>
        <time>2011-09-03T11:58:43Z</time>
      </trkpt>
      <trkpt lat="47.73128" lon="-3.29616">
        <ele>24</ele>
        <time>2011-09-03T11:58:51Z</time>
      </trkpt>
      <trkpt lat="47.73114" lon="-3.29622">
        <ele>24</ele>
        <time>2011-09-03T11:58:54Z</time>
      </trkpt>
      <trkpt lat="47.73099" lon="-3.29626">
        <ele>24</ele>
        <time>2011-09-03T11:58:57Z</time>
      </trkpt>
      <trkpt lat="47.73069" lon="-3.29629">
        <ele>23</ele>
        <time>2011-09-03T11:59:03Z</time>
      </trkpt>
      <trkpt lat="47.73053" lon="-3.29634">
        <ele>23</ele>
        <time>2011-09-03T11:59:06Z</time>
      </trkpt>
      <trkpt lat="47.7304" lon="-3.29646">
        <ele>23</ele>
        <time>2011-09-03T11:59:09Z</time>
      </trkpt>
      <trkpt lat="47.73007" lon="-3.29684">
        <ele>22</ele>
        <time>2011-09-03T11:59:17Z</time>
      </trkpt>
      <trkpt lat="47.72981" lon="-3.29706">
        <ele>22</ele>
        <time>2011-09-03T11:59:23Z</time>
      </trkpt>
      <trkpt lat="47.72966" lon="-3.29714">
        <ele>22</ele>
        <time>2011-09-03T11:59:26Z</time>
      </trkpt>
      <trkpt lat="47.72951" lon="-3.29721">
        <ele>22</ele>
        <time>2011-09-03T11:59:29Z</time>
      </trkpt>
      <trkpt lat="47.72926" lon="-3.2973">
        <ele>22</ele>
        <time>2011-09-03T11:59:34Z</time>
      </trkpt>
      <trkpt lat="47.72915" lon="-3.29733">
        <ele>22</ele>
        <time>2011-09-03T11:59:36Z</time>
      </trkpt>
      <trkpt lat="47.729" lon="-3.29728">
        <ele>22</ele>
        <time>2011-09-03T11:59:39Z</time>
      </trkpt>
      <trkpt lat="47.72867" lon="-3.29705">
        <ele>23</ele>
        <time>2011-09-03T11:59:46Z</time>
      </trkpt>
      <trkpt lat="47.72857" lon="-3.29699">
        <ele>23</ele>
        <time>2011-09-03T11:59:48Z</time>
      </trkpt>
      <trkpt lat="47.72807" lon="-3.29678">
        <ele>24</ele>
        <time>2011-09-03T11:59:58Z</time>
      </trkpt>
      <trkpt lat="47.7277" lon="-3.29651">
        <ele>25</ele>
        <time>2011-09-03T12:00:06Z</time>
      </trkpt>
      <trkpt lat="47.72756" lon="-3.29644">
        <ele>25</ele>
        <time>2011-09-03T12:00:09Z</time>
      </trkpt>
      <trkpt lat="47.72737" lon="-3.29638">
        <ele>25</ele>
        <time>2011-09-03T12:00:13Z</time>
      </trkpt>
      <trkpt lat="47.72685" lon="-3.2963">
        <ele>25</ele>
        <time>2011-09-03T12:00:23Z</time>
      </trkpt>
      <trkpt lat="47.72668" lon="-3.2963">
        <ele>25</ele>
        <time>2011-09-03T12:00:26Z</time>
      </trkpt>
      <trkpt lat="47.72642" lon="-3.29632">
        <ele>23</ele>
        <time>2011-09-03T12:00:30Z</time>
      </trkpt>
      <trkpt lat="47.72606" lon="-3.29639">
        <ele>23</ele>
        <time>2011-09-03T12:00:36Z</time>
      </trkpt>
      <trkpt lat="47.72595" lon="-3.29639">
        <ele>22</ele>
        <time>2011-09-03T12:00:38Z</time>
      </trkpt>
      <trkpt lat="47.72577" lon="-3.29636">
        <ele>21</ele>
        <time>2011-09-03T12:00:41Z</time>
      </trkpt>
      <trkpt lat="47.7254" lon="-3.29622">
        <ele>20</ele>
        <time>2011-09-03T12:00:48Z</time>
      </trkpt>
      <trkpt lat="47.72514" lon="-3.2962">
        <ele>20</ele>
        <time>2011-09-03T12:00:53Z</time>
      </trkpt>
      <trkpt lat="47.72483" lon="-3.29621">
        <ele>20</ele>
        <time>2011-09-03T12:00:59Z</time>
      </trkpt>
      <trkpt lat="47.72452" lon="-3.29627">
        <ele>20</ele>
        <time>2011-09-03T12:01:05Z</time>
      </trkpt>
      <trkpt lat="47.72398" lon="-3.29631">
        <ele>20</ele>
        <time>2011-09-03T12:01:15Z</time>
      </trkpt>
      <trkpt lat="47.72367" lon="-3.29634">
        <ele>20</ele>
        <time>2011-09-03T12:01:21Z</time>
      </trkpt>
      <trkpt lat="47.7233" lon="-3.29634">
        <ele>19</ele>
        <time>2011-09-03T12:01:28Z</time>
      </trkpt>
      <trkpt lat="47.72303" lon="-3.29628">
        <ele>19</ele>
        <time>2011-09-03T12:01:33Z</time>
      </trkpt>
      <trkpt lat="47.72247" lon="-3.29606">
        <ele>19</ele>
        <time>2011-09-03T12:01:44Z</time>
      </trkpt>
      <trkpt lat="47.72232" lon="-3.29602">
        <ele>19</ele>
        <time>2011-09-03T12:01:47Z</time>
      </trkpt>
      <trkpt lat="47.72221" lon="-3.29601">
        <ele>19</ele>
        <time>2011-09-03T12:01:49Z</time>
      </trkpt>
      <trkpt lat="47.72206" lon="-3.29604">
        <ele>18</ele>
        <time>2011-09-03T12:01:52Z</time>
      </trkpt>
      <trkpt lat="47.72173" lon="-3.29617">
        <ele>18</ele>
        <time>2011-09-03T12:01:59Z</time>
      </trkpt>
      <trkpt lat="47.72153" lon="-3.29623">
        <ele>18</ele>
        <time>2011-09-03T12:02:03Z</time>
      </trkpt>
      <trkpt lat="47.72095" lon="-3.29628">
        <ele>18</ele>
        <time>2011-09-03T12:02:14Z</time>
      </trkpt>
      <trkpt lat="47.72068" lon="-3.29635">
        <ele>17</ele>
        <time>2011-09-03T12:02:19Z</time>
      </trkpt>
      <trkpt lat="47.72048" lon="-3.29642">
        <ele>16</ele>
        <time>2011-09-03T12:02:23Z</time>
      </trkpt>
      <trkpt lat="47.72029" lon="-3.29652">
        <ele>16</ele>
        <time>2011-09-03T12:02:27Z</time>
      </trkpt>
      <trkpt lat="47.72014" lon="-3.29662">
        <ele>16</ele>
        <time>2011-09-03T12:02:30Z</time>
      </trkpt>
      <trkpt lat="47.72" lon="-3.29674">
        <ele>15</ele>
        <time>2011-09-03T12:02:33Z</time>
      </trkpt>
      <trkpt lat="47.71987" lon="-3.2969">
        <ele>14</ele>
        <time>2011-09-03T12:02:36Z</time>
      </trkpt>
      <trkpt lat="47.71977" lon="-3.29708">
        <ele>14</ele>
        <time>2011-09-03T12:02:39Z</time>
      </trkpt>
      <trkpt lat="47.71969" lon="-3.29728">
        <ele>14</ele>
        <time>2011-09-03T12:02:42Z</time>
      </trkpt>
      <trkpt lat="47.71946" lon="-3.29791">
        <ele>14</ele>
        <time>2011-09-03T12:02:51Z</time>
      </trkpt>
      <trkpt lat="47.7192" lon="-3.29856">
        <ele>14</ele>
        <time>2011-09-03T12:03:01Z</time>
      </trkpt>
      <trkpt lat="47.71909" lon="-3.29872">
        <ele>15</ele>
        <time>2011-09-03T12:03:04Z</time>
      </trkpt>
      <trkpt lat="47.7189" lon="-3.29895">
        <ele>16</ele>
        <time>2011-09-03T12:03:09Z</time>
      </trkpt>
      <trkpt lat="47.71877" lon="-3.29913">
        <ele>16</ele>
        <time>2011-09-03T12:03:13Z</time>
      </trkpt>
      <trkpt lat="47.71849" lon="-3.29961">
        <ele>18</ele>
        <time>2011-09-03T12:03:22Z</time>
      </trkpt>
      <trkpt lat="47.71837" lon="-3.29973">
        <ele>18</ele>
        <time>2011-09-03T12:03:25Z</time>
      </trkpt>
      <trkpt lat="47.71803" lon="-3.29999">
        <ele>19</ele>
        <time>2011-09-03T12:03:33Z</time>
      </trkpt>
      <trkpt lat="47.71772" lon="-3.30027">
        <ele>18</ele>
        <time>2011-09-03T12:03:40Z</time>
      </trkpt>
      <trkpt lat="47.71715" lon="-3.30086">
        <ele>17</ele>
        <time>2011-09-03T12:03:54Z</time>
      </trkpt>
      <trkpt lat="47.71688" lon="-3.30119">
        <ele>16</ele>
        <time>2011-09-03T12:04:01Z</time>
      </trkpt>
      <trkpt lat="47.71599" lon="-3.3026">
        <ele>12</ele>
        <time>2011-09-03T12:04:27Z</time>
      </trkpt>
      <trkpt lat="47.71589" lon="-3.30286">
        <ele>12</ele>
        <time>2011-09-03T12:04:31Z</time>
      </trkpt>
      <trkpt lat="47.71544" lon="-3.30339">
        <ele>9</ele>
        <time>2011-09-03T12:04:42Z</time>
      </trkpt>
      <trkpt lat="47.7147" lon="-3.30441">
        <ele>7</ele>
        <time>2011-09-03T12:05:01Z</time>
      </trkpt>
      <trkpt lat="47.71433" lon="-3.30494">
        <ele>6</ele>
        <time>2011-09-03T12:05:11Z</time>
      </trkpt>
      <trkpt lat="47.71423" lon="-3.30512">
        <ele>6</ele>
        <time>2011-09-03T12:05:14Z</time>
      </trkpt>
      <trkpt lat="47.71397" lon="-3.30571">
        <ele>5</ele>
        <time>2011-09-03T12:05:23Z</time>
      </trkpt>
      <trkpt lat="47.71378" lon="-3.3061">
        <ele>5</ele>
        <time>2011-09-03T12:05:29Z</time>
      </trkpt>
      <trkpt lat="47.71345" lon="-3.30661">
        <ele>4</ele>
        <time>2011-09-03T12:05:40Z</time>
      </trkpt>
      <trkpt lat="47.71341" lon="-3.30664">
        <ele>4</ele>
        <time>2011-09-03T12:05:46Z</time>
      </trkpt>
      <trkpt lat="47.71339" lon="-3.30663">
        <ele>4</ele>
        <time>2011-09-03T12:05:47Z</time>
      </trkpt>
      <trkpt lat="47.71336" lon="-3.3066">
        <ele>4</ele>
        <time>2011-09-03T12:05:48Z</time>
      </trkpt>
      <trkpt lat="47.71332" lon="-3.3065">
        <ele>4</ele>
        <time>2011-09-03T12:05:50Z</time>
      </trkpt>
      <trkpt lat="47.71307" lon="-3.30566">
        <ele>5</ele>
        <time>2011-09-03T12:06:02Z</time>
      </trkpt>
      <trkpt lat="47.71235" lon="-3.30311">
        <ele>6</ele>
        <time>2011-09-03T12:06:37Z</time>
      </trkpt>
      <trkpt lat="47.71142" lon="-3.29989">
        <ele>3</ele>
        <time>2011-09-03T12:07:21Z</time>
      </trkpt>
      <trkpt lat="47.71137" lon="-3.29978">
        <ele>3</ele>
        <time>2011-09-03T12:07:23Z</time>
      </trkpt>
      <trkpt lat="47.71122" lon="-3.29962">
        <ele>3</ele>
        <time>2011-09-03T12:07:27Z</time>
      </trkpt>
      <trkpt lat="47.7112" lon="-3.29956">
        <ele>3</ele>
        <time>2011-09-03T12:07:28Z</time>
      </trkpt>
      <trkpt lat="47.71116" lon="-3.29919">
        <ele>3</ele>
        <time>2011-09-03T12:07:33Z</time>
      </trkpt>
      <trkpt lat="47.71098" lon="-3.2985">
        <ele>4</ele>
        <time>2011-09-03T12:07:42Z</time>
      </trkpt>
      <trkpt lat="47.71093" lon="-3.29794">
        <ele>5</ele>
        <time>2011-09-03T12:07:49Z</time>
      </trkpt>
      <trkpt lat="47.71089" lon="-3.29771">
        <ele>5</ele>
        <time>2011-09-03T12:07:52Z</time>
      </trkpt>
      <trkpt lat="47.71025" lon="-3.29511">
        <ele>7</ele>
        <time>2011-09-03T12:08:29Z</time>
      </trkpt>
      <trkpt lat="47.71023" lon="-3.29504">
        <ele>7</ele>
        <time>2011-09-03T12:08:30Z</time>
      </trkpt>
      <trkpt lat="47.7102" lon="-3.295">
        <ele>7</ele>
        <time>2011-09-03T12:08:31Z</time>
      </trkpt>
      <trkpt lat="47.71016" lon="-3.29498">
        <ele>7</ele>
        <time>2011-09-03T12:08:32Z</time>
      </trkpt>
      <trkpt lat="47.71012" lon="-3.29498">
        <ele>7</ele>
        <time>2011-09-03T12:08:33Z</time>
      </trkpt>
      <trkpt lat="47.70999" lon="-3.29502">
        <ele>7</ele>
        <time>2011-09-03T12:08:36Z</time>
      </trkpt>
      <trkpt lat="47.7092" lon="-3.29545">
        <ele>7</ele>
        <time>2011-09-03T12:08:55Z</time>
      </trkpt>
      <trkpt lat="47.70763" lon="-3.29623">
        <ele>8</ele>
        <time>2011-09-03T12:09:32Z</time>
      </trkpt>
      <trkpt lat="47.70741" lon="-3.29632">
        <ele>8</ele>
        <time>2011-09-03T12:09:37Z</time>
      </trkpt>
      <trkpt lat="47.70729" lon="-3.29636">
        <ele>8</ele>
        <time>2011-09-03T12:09:40Z</time>
      </trkpt>
      <trkpt lat="47.70699" lon="-3.29636">
        <ele>8</ele>
        <time>2011-09-03T12:09:47Z</time>
      </trkpt>
      <trkpt lat="47.70567" lon="-3.29626">
        <ele>7</ele>
        <time>2011-09-03T12:10:14Z</time>
      </trkpt>
      <trkpt lat="47.70537" lon="-3.29622">
        <ele>7</ele>
        <time>2011-09-03T12:10:20Z</time>
      </trkpt>
      <trkpt lat="47.70489" lon="-3.29612">
        <ele>6</ele>
        <time>2011-09-03T12:10:30Z</time>
      </trkpt>
      <trkpt lat="47.70422" lon="-3.29594">
        <ele>6</ele>
        <time>2011-09-03T12:10:46Z</time>
      </trkpt>
      <trkpt lat="47.70418" lon="-3.29592">
        <ele>6</ele>
        <time>2011-09-03T12:10:47Z</time>
      </trkpt>
      <trkpt lat="47.70415" lon="-3.29589">
        <ele>6</ele>
        <time>2011-09-03T12:10:48Z</time>
      </trkpt>
      <trkpt lat="47.70412" lon="-3.29578">
        <ele>6</ele>
        <time>2011-09-03T12:10:50Z</time>
      </trkpt>
      <trkpt lat="47.70412" lon="-3.29562">
        <ele>6</ele>
        <time>2011-09-03T12:12:41Z</time>
      </trkpt>
      <trkpt lat="47.70414" lon="-3.29574">
        <ele>6</ele>
        <time>2011-09-03T12:12:43Z</time>
      </trkpt>
      <trkpt lat="47.70419" lon="-3.29583">
        <ele>6</ele>
        <time>2011-09-03T12:12:45Z</time>
      </trkpt>
      <trkpt lat="47.70431" lon="-3.29589">
        <ele>6</ele>
        <time>2011-09-03T12:12:48Z</time>
      </trkpt>
      <trkpt lat="47.70495" lon="-3.29609">
        <ele>6</ele>
        <time>2011-09-03T12:13:03Z</time>
      </trkpt>
      <trkpt lat="47.70547" lon="-3.29617">
        <ele>7</ele>
        <time>2011-09-03T12:13:15Z</time>
      </trkpt>
      <trkpt lat="47.70592" lon="-3.29621">
        <ele>7</ele>
        <time>2011-09-03T12:13:24Z</time>
      </trkpt>
      <trkpt lat="47.70704" lon="-3.29628">
        <ele>8</ele>
        <time>2011-09-03T12:13:47Z</time>
      </trkpt>
      <trkpt lat="47.70725" lon="-3.29628">
        <ele>8</ele>
        <time>2011-09-03T12:13:51Z</time>
      </trkpt>
      <trkpt lat="47.7074" lon="-3.29626">
        <ele>8</ele>
        <time>2011-09-03T12:13:54Z</time>
      </trkpt>
      <trkpt lat="47.70763" lon="-3.29617">
        <ele>8</ele>
        <time>2011-09-03T12:13:59Z</time>
      </trkpt>
      <trkpt lat="47.70809" lon="-3.29593">
        <ele>8</ele>
        <time>2011-09-03T12:14:09Z</time>
      </trkpt>
      <trkpt lat="47.71006" lon="-3.29497">
        <ele>7</ele>
        <time>2011-09-03T12:14:50Z</time>
      </trkpt>
      <trkpt lat="47.71015" lon="-3.29491">
        <ele>7</ele>
        <time>2011-09-03T12:14:52Z</time>
      </trkpt>
      <trkpt lat="47.7102" lon="-3.29483">
        <ele>7</ele>
        <time>2011-09-03T12:14:54Z</time>
      </trkpt>
      <trkpt lat="47.71021" lon="-3.29477">
        <ele>7</ele>
        <time>2011-09-03T12:14:55Z</time>
      </trkpt>
      <trkpt lat="47.71019" lon="-3.29463">
        <ele>7</ele>
        <time>2011-09-03T12:14:57Z</time>
      </trkpt>
      <trkpt lat="47.70998" lon="-3.29379">
        <ele>6</ele>
        <time>2011-09-03T12:15:08Z</time>
      </trkpt>
      <trkpt lat="47.7099" lon="-3.29331">
        <ele>6</ele>
        <time>2011-09-03T12:15:14Z</time>
      </trkpt>
      <trkpt lat="47.70985" lon="-3.29291">
        <ele>6</ele>
        <time>2011-09-03T12:15:19Z</time>
      </trkpt>
      <trkpt lat="47.70982" lon="-3.29234">
        <ele>6</ele>
        <time>2011-09-03T12:15:26Z</time>
      </trkpt>
      <trkpt lat="47.70982" lon="-3.29184">
        <ele>6</ele>
        <time>2011-09-03T12:15:32Z</time>
      </trkpt>
      <trkpt lat="47.70987" lon="-3.2903">
        <ele>8</ele>
        <time>2011-09-03T12:15:51Z</time>
      </trkpt>
      <trkpt lat="47.70994" lon="-3.28939">
        <ele>9</ele>
        <time>2011-09-03T12:16:03Z</time>
      </trkpt>
      <trkpt lat="47.71007" lon="-3.28845">
        <ele>10</ele>
        <time>2011-09-03T12:16:16Z</time>
      </trkpt>
      <trkpt lat="47.71009" lon="-3.28803">
        <ele>11</ele>
        <time>2011-09-03T12:16:22Z</time>
      </trkpt>
      <trkpt lat="47.71009" lon="-3.28767">
        <ele>11</ele>
        <time>2011-09-03T12:16:27Z</time>
      </trkpt>
      <trkpt lat="47.71004" lon="-3.2866">
        <ele>13</ele>
        <time>2011-09-03T12:16:41Z</time>
      </trkpt>
      <trkpt lat="47.71006" lon="-3.28454">
        <ele>17</ele>
        <time>2011-09-03T12:17:09Z</time>
      </trkpt>
      <trkpt lat="47.71005" lon="-3.28394">
        <ele>18</ele>
        <time>2011-09-03T12:17:20Z</time>
      </trkpt>
      <trkpt lat="47.70976" lon="-3.28187">
        <ele>19</ele>
        <time>2011-09-03T12:17:55Z</time>
      </trkpt>
      <trkpt lat="47.70965" lon="-3.28122">
        <ele>20</ele>
        <time>2011-09-03T12:18:05Z</time>
      </trkpt>
      <trkpt lat="47.70952" lon="-3.2806">
        <ele>21</ele>
        <time>2011-09-03T12:18:14Z</time>
      </trkpt>
      <trkpt lat="47.70941" lon="-3.28019">
        <ele>21</ele>
        <time>2011-09-03T12:18:20Z</time>
      </trkpt>
      <trkpt lat="47.70897" lon="-3.27807">
        <ele>18</ele>
        <time>2011-09-03T12:18:52Z</time>
      </trkpt>
      <trkpt lat="47.70893" lon="-3.27801">
        <ele>18</ele>
        <time>2011-09-03T12:18:54Z</time>
      </trkpt>
      <trkpt lat="47.70858" lon="-3.27815">
        <ele>18</ele>
        <time>2011-09-03T12:19:42Z</time>
      </trkpt>
      <trkpt lat="47.70838" lon="-3.27821">
        <ele>17</ele>
        <time>2011-09-03T12:19:46Z</time>
      </trkpt>
      <trkpt lat="47.70828" lon="-3.27822">
        <ele>17</ele>
        <time>2011-09-03T12:19:48Z</time>
      </trkpt>
      <trkpt lat="47.7079" lon="-3.27825">
        <ele>16</ele>
        <time>2011-09-03T12:19:55Z</time>
      </trkpt>
      <trkpt lat="47.70765" lon="-3.27829">
        <ele>15</ele>
        <time>2011-09-03T12:20:00Z</time>
      </trkpt>
      <trkpt lat="47.7075" lon="-3.27829">
        <ele>15</ele>
        <time>2011-09-03T12:20:03Z</time>
      </trkpt>
      <trkpt lat="47.70746" lon="-3.27828">
        <ele>15</ele>
        <time>2011-09-03T12:20:04Z</time>
      </trkpt>
      <trkpt lat="47.70717" lon="-3.27812">
        <ele>14</ele>
        <time>2011-09-03T12:20:11Z</time>
      </trkpt>
      <trkpt lat="47.70701" lon="-3.278">
        <ele>14</ele>
        <time>2011-09-03T12:20:15Z</time>
      </trkpt>
      <trkpt lat="47.7067" lon="-3.27771">
        <ele>14</ele>
        <time>2011-09-03T12:20:21Z</time>
      </trkpt>
      <trkpt lat="47.70664" lon="-3.27767">
        <ele>14</ele>
        <time>2011-09-03T12:20:22Z</time>
      </trkpt>
      <trkpt lat="47.70653" lon="-3.27763">
        <ele>14</ele>
        <time>2011-09-03T12:20:24Z</time>
      </trkpt>
      <trkpt lat="47.70637" lon="-3.27763">
        <ele>14</ele>
        <time>2011-09-03T12:20:27Z</time>
      </trkpt>
      <trkpt lat="47.70581" lon="-3.27784">
        <ele>15</ele>
        <time>2011-09-03T12:20:42Z</time>
      </trkpt>
      <trkpt lat="47.7057" lon="-3.27786">
        <ele>15</ele>
        <time>2011-09-03T12:20:45Z</time>
      </trkpt>
      <trkpt lat="47.70556" lon="-3.27787">
        <ele>16</ele>
        <time>2011-09-03T12:20:49Z</time>
      </trkpt>
      <trkpt lat="47.70535" lon="-3.27782">
        <ele>16</ele>
        <time>2011-09-03T12:20:55Z</time>
      </trkpt>
      <trkpt lat="47.70477" lon="-3.2776">
        <ele>19</ele>
        <time>2011-09-03T12:21:12Z</time>
      </trkpt>
      <trkpt lat="47.70452" lon="-3.27757">
        <ele>19</ele>
        <time>2011-09-03T12:21:19Z</time>
      </trkpt>
      <trkpt lat="47.7043" lon="-3.27757">
        <ele>19</ele>
        <time>2011-09-03T12:21:25Z</time>
      </trkpt>
      <trkpt lat="47.70416" lon="-3.27755">
        <ele>20</ele>
        <time>2011-09-03T12:21:30Z</time>
      </trkpt>
      <trkpt lat="47.70411" lon="-3.27758">
        <ele>20</ele>
        <time>2011-09-03T12:21:32Z</time>
      </trkpt>
      <trkpt lat="47.70405" lon="-3.27773">
        <ele>19</ele>
        <time>2011-09-03T12:21:36Z</time>
      </trkpt>
      <trkpt lat="47.704" lon="-3.27784">
        <ele>19</ele>
        <time>2011-09-03T12:21:39Z</time>
      </trkpt>
      <trkpt lat="47.70399" lon="-3.27792">
        <ele>19</ele>
        <time>2011-09-03T12:21:41Z</time>
      </trkpt>
      <trkpt lat="47.70405" lon="-3.27831">
        <ele>19</ele>
        <time>2011-09-03T12:21:50Z</time>
      </trkpt>
      <trkpt lat="47.70406" lon="-3.27862">
        <ele>18</ele>
        <time>2011-09-03T12:21:56Z</time>
      </trkpt>
      <trkpt lat="47.70402" lon="-3.27913">
        <ele>18</ele>
        <time>2011-09-03T12:22:04Z</time>
      </trkpt>
      <trkpt lat="47.70405" lon="-3.27985">
        <ele>15</ele>
        <time>2011-09-03T12:22:16Z</time>
      </trkpt>
      <trkpt lat="47.70403" lon="-3.28022">
        <ele>13</ele>
        <time>2011-09-03T12:22:22Z</time>
      </trkpt>
      <trkpt lat="47.7039" lon="-3.28047">
        <ele>12</ele>
        <time>2011-09-03T12:22:31Z</time>
      </trkpt>
      <trkpt lat="47.70385" lon="-3.28062">
        <ele>12</ele>
        <time>2011-09-03T12:22:35Z</time>
      </trkpt>
      <trkpt lat="47.70381" lon="-3.28094">
        <ele>9</ele>
        <time>2011-09-03T12:22:43Z</time>
      </trkpt>
      <trkpt lat="47.70372" lon="-3.28139">
        <ele>9</ele>
        <time>2011-09-03T12:22:52Z</time>
      </trkpt>
      <trkpt lat="47.70362" lon="-3.28173">
        <ele>7</ele>
        <time>2011-09-03T12:22:59Z</time>
      </trkpt>
      <trkpt lat="47.70357" lon="-3.2818">
        <ele>7</ele>
        <time>2011-09-03T12:23:01Z</time>
      </trkpt>
      <trkpt lat="47.70291" lon="-3.28221">
        <ele>11</ele>
        <time>2011-09-03T12:23:18Z</time>
      </trkpt>
      <trkpt lat="47.70274" lon="-3.28234">
        <ele>12</ele>
        <time>2011-09-03T12:23:23Z</time>
      </trkpt>
      <trkpt lat="47.70255" lon="-3.28243">
        <ele>13</ele>
        <time>2011-09-03T12:23:29Z</time>
      </trkpt>
      <trkpt lat="47.70238" lon="-3.28255">
        <ele>16</ele>
        <time>2011-09-03T12:24:46Z</time>
      </trkpt>
      <trkpt lat="47.70149" lon="-3.28303">
        <ele>21</ele>
        <time>2011-09-03T12:25:39Z</time>
      </trkpt>
      <trkpt lat="47.70138" lon="-3.28308">
        <ele>21</ele>
        <time>2011-09-03T12:25:43Z</time>
      </trkpt>
      <trkpt lat="47.70132" lon="-3.28306">
        <ele>21</ele>
        <time>2011-09-03T12:25:45Z</time>
      </trkpt>
      <trkpt lat="47.70127" lon="-3.28296">
        <ele>21</ele>
        <time>2011-09-03T12:25:48Z</time>
      </trkpt>
      <trkpt lat="47.70083" lon="-3.28183">
        <ele>21</ele>
        <time>2011-09-03T12:26:10Z</time>
      </trkpt>
      <trkpt lat="47.70081" lon="-3.28178">
        <ele>21</ele>
        <time>2011-09-03T12:26:11Z</time>
      </trkpt>
      <trkpt lat="47.70075" lon="-3.28175">
        <ele>21</ele>
        <time>2011-09-03T12:26:13Z</time>
      </trkpt>
      <trkpt lat="47.70047" lon="-3.2819">
        <ele>21</ele>
        <time>2011-09-03T12:26:20Z</time>
      </trkpt>
      <trkpt lat="47.6998" lon="-3.28219">
        <ele>18</ele>
        <time>2011-09-03T12:26:35Z</time>
      </trkpt>
      <trkpt lat="47.69935" lon="-3.28242">
        <ele>17</ele>
        <time>2011-09-03T12:26:45Z</time>
      </trkpt>
      <trkpt lat="47.69927" lon="-3.28242">
        <ele>16</ele>
        <time>2011-09-03T12:26:47Z</time>
      </trkpt>
      <trkpt lat="47.69924" lon="-3.2824">
        <ele>16</ele>
        <time>2011-09-03T12:26:48Z</time>
      </trkpt>
      <trkpt lat="47.69921" lon="-3.28237">
        <ele>16</ele>
        <time>2011-09-03T12:26:49Z</time>
      </trkpt>
      <trkpt lat="47.69916" lon="-3.28226">
        <ele>15</ele>
        <time>2011-09-03T12:26:51Z</time>
      </trkpt>
      <trkpt lat="47.69897" lon="-3.2817">
        <ele>16</ele>
        <time>2011-09-03T12:27:00Z</time>
      </trkpt>
      <trkpt lat="47.69852" lon="-3.28045">
        <ele>17</ele>
        <time>2011-09-03T12:27:20Z</time>
      </trkpt>
      <trkpt lat="47.69768" lon="-3.27821">
        <ele>17</ele>
        <time>2011-09-03T12:27:53Z</time>
      </trkpt>
      <trkpt lat="47.6973" lon="-3.27712">
        <ele>18</ele>
        <time>2011-09-03T12:28:10Z</time>
      </trkpt>
      <trkpt lat="47.69676" lon="-3.27567">
        <ele>18</ele>
        <time>2011-09-03T12:28:33Z</time>
      </trkpt>
      <trkpt lat="47.69629" lon="-3.27444">
        <ele>15</ele>
        <time>2011-09-03T12:28:53Z</time>
      </trkpt>
      <trkpt lat="47.69617" lon="-3.27421">
        <ele>15</ele>
        <time>2011-09-03T12:28:58Z</time>
      </trkpt>
      <trkpt lat="47.69612" lon="-3.27364">
        <ele>15</ele>
        <time>2011-09-03T12:29:06Z</time>
      </trkpt>
      <trkpt lat="47.69602" lon="-3.27306">
        <ele>15</ele>
        <time>2011-09-03T12:29:14Z</time>
      </trkpt>
      <trkpt lat="47.69612" lon="-3.27193">
        <ele>17</ele>
        <time>2011-09-03T12:29:30Z</time>
      </trkpt>
      <trkpt lat="47.69627" lon="-3.27102">
        <ele>18</ele>
        <time>2011-09-03T12:29:43Z</time>
      </trkpt>
      <trkpt lat="47.69628" lon="-3.27081">
        <ele>18</ele>
        <time>2011-09-03T12:29:46Z</time>
      </trkpt>
      <trkpt lat="47.69627" lon="-3.27061">
        <ele>18</ele>
        <time>2011-09-03T12:29:49Z</time>
      </trkpt>
      <trkpt lat="47.69625" lon="-3.27048">
        <ele>17</ele>
        <time>2011-09-03T12:29:51Z</time>
      </trkpt>
      <trkpt lat="47.69621" lon="-3.27035">
        <ele>17</ele>
        <time>2011-09-03T12:29:53Z</time>
      </trkpt>
      <trkpt lat="47.69593" lon="-3.26953">
        <ele>17</ele>
        <time>2011-09-03T12:30:06Z</time>
      </trkpt>
      <trkpt lat="47.69584" lon="-3.2692">
        <ele>17</ele>
        <time>2011-09-03T12:30:11Z</time>
      </trkpt>
      <trkpt lat="47.69581" lon="-3.26898">
        <ele>17</ele>
        <time>2011-09-03T12:30:14Z</time>
      </trkpt>
      <trkpt lat="47.69577" lon="-3.26839">
        <ele>18</ele>
        <time>2011-09-03T12:30:22Z</time>
      </trkpt>
      <trkpt lat="47.69566" lon="-3.2673">
        <ele>19</ele>
        <time>2011-09-03T12:30:38Z</time>
      </trkpt>
      <trkpt lat="47.69564" lon="-3.26719">
        <ele>19</ele>
        <time>2011-09-03T12:30:40Z</time>
      </trkpt>
      <trkpt lat="47.6956" lon="-3.26711">
        <ele>19</ele>
        <time>2011-09-03T12:30:42Z</time>
      </trkpt>
      <trkpt lat="47.69553" lon="-3.26709">
        <ele>19</ele>
        <time>2011-09-03T12:30:44Z</time>
      </trkpt>
      <trkpt lat="47.6955" lon="-3.2671">
        <ele>19</ele>
        <time>2011-09-03T12:30:45Z</time>
      </trkpt>
      <trkpt lat="47.69547" lon="-3.26714">
        <ele>19</ele>
        <time>2011-09-03T12:30:46Z</time>
      </trkpt>
      <trkpt lat="47.69543" lon="-3.26724">
        <ele>19</ele>
        <time>2011-09-03T12:30:48Z</time>
      </trkpt>
      <trkpt lat="47.69523" lon="-3.26788">
        <ele>19</ele>
        <time>2011-09-03T12:30:58Z</time>
      </trkpt>
      <trkpt lat="47.69462" lon="-3.26967">
        <ele>17</ele>
        <time>2011-09-03T12:31:24Z</time>
      </trkpt>
      <trkpt lat="47.69448" lon="-3.26996">
        <ele>17</ele>
        <time>2011-09-03T12:31:29Z</time>
      </trkpt>
      <trkpt lat="47.69433" lon="-3.27018">
        <ele>16</ele>
        <time>2011-09-03T12:31:33Z</time>
      </trkpt>
      <trkpt lat="47.69415" lon="-3.27034">
        <ele>16</ele>
        <time>2011-09-03T12:31:37Z</time>
      </trkpt>
      <trkpt lat="47.69345" lon="-3.27077">
        <ele>16</ele>
        <time>2011-09-03T12:31:51Z</time>
      </trkpt>
      <trkpt lat="47.69168" lon="-3.27192">
        <ele>14</ele>
        <time>2011-09-03T12:32:28Z</time>
      </trkpt>
      <trkpt lat="47.69129" lon="-3.2722">
        <ele>13</ele>
        <time>2011-09-03T12:32:37Z</time>
      </trkpt>
      <trkpt lat="47.69088" lon="-3.27252">
        <ele>12</ele>
        <time>2011-09-03T12:32:47Z</time>
      </trkpt>
      <trkpt lat="47.69001" lon="-3.27326">
        <ele>8</ele>
        <time>2011-09-03T12:33:06Z</time>
      </trkpt>
      <trkpt lat="47.68986" lon="-3.27341">
        <ele>7</ele>
        <time>2011-09-03T12:33:09Z</time>
      </trkpt>
      <trkpt lat="47.68978" lon="-3.27353">
        <ele>7</ele>
        <time>2011-09-03T12:33:11Z</time>
      </trkpt>
      <trkpt lat="47.68971" lon="-3.27366">
        <ele>6</ele>
        <time>2011-09-03T12:33:13Z</time>
      </trkpt>
      <trkpt lat="47.68961" lon="-3.27403">
        <ele>6</ele>
        <time>2011-09-03T12:33:18Z</time>
      </trkpt>
      <trkpt lat="47.68944" lon="-3.27521">
        <ele>5</ele>
        <time>2011-09-03T12:33:33Z</time>
      </trkpt>
      <trkpt lat="47.68939" lon="-3.27551">
        <ele>5</ele>
        <time>2011-09-03T12:33:37Z</time>
      </trkpt>
      <trkpt lat="47.68927" lon="-3.27592">
        <ele>5</ele>
        <time>2011-09-03T12:33:43Z</time>
      </trkpt>
      <trkpt lat="47.68913" lon="-3.27622">
        <ele>5</ele>
        <time>2011-09-03T12:33:48Z</time>
      </trkpt>
      <trkpt lat="47.68903" lon="-3.27639">
        <ele>5</ele>
        <time>2011-09-03T12:33:51Z</time>
      </trkpt>
      <trkpt lat="47.68734" lon="-3.27896">
        <ele>6</ele>
        <time>2011-09-03T12:34:40Z</time>
      </trkpt>
      <trkpt lat="47.68643" lon="-3.28031">
        <ele>3</ele>
        <time>2011-09-03T12:35:07Z</time>
      </trkpt>
      <trkpt lat="47.68593" lon="-3.28108">
        <ele>3</ele>
        <time>2011-09-03T12:35:22Z</time>
      </trkpt>
      <trkpt lat="47.68567" lon="-3.28152">
        <ele>3</ele>
        <time>2011-09-03T12:35:30Z</time>
      </trkpt>
      <trkpt lat="47.68544" lon="-3.28199">
        <ele>4</ele>
        <time>2011-09-03T12:35:38Z</time>
      </trkpt>
      <trkpt lat="47.68528" lon="-3.28244">
        <ele>4</ele>
        <time>2011-09-03T12:35:45Z</time>
      </trkpt>
      <trkpt lat="47.68515" lon="-3.28299">
        <ele>5</ele>
        <time>2011-09-03T12:35:53Z</time>
      </trkpt>
      <trkpt lat="47.68508" lon="-3.28362">
        <ele>5</ele>
        <time>2011-09-03T12:36:02Z</time>
      </trkpt>
      <trkpt lat="47.68507" lon="-3.28427">
        <ele>5</ele>
        <time>2011-09-03T12:36:11Z</time>
      </trkpt>
      <trkpt lat="47.6851" lon="-3.28464">
        <ele>5</ele>
        <time>2011-09-03T12:36:16Z</time>
      </trkpt>
      <trkpt lat="47.68515" lon="-3.285">
        <ele>7</ele>
        <time>2011-09-03T12:36:21Z</time>
      </trkpt>
      <trkpt lat="47.68526" lon="-3.28548">
        <ele>7</ele>
        <time>2011-09-03T12:36:28Z</time>
      </trkpt>
      <trkpt lat="47.68539" lon="-3.28588">
        <ele>9</ele>
        <time>2011-09-03T12:36:34Z</time>
      </trkpt>
      <trkpt lat="47.68638" lon="-3.28866">
        <ele>7</ele>
        <time>2011-09-03T12:37:16Z</time>
      </trkpt>
      <trkpt lat="47.68687" lon="-3.29012">
        <ele>3</ele>
        <time>2011-09-03T12:37:38Z</time>
      </trkpt>
      <trkpt lat="47.68852" lon="-3.29523">
        <ele>6.8</ele>
        <time>2011-09-03T12:38:53Z</time>
      </trkpt>
      <trkpt lat="47.68869" lon="-3.29584">
        <ele>6.7</ele>
        <time>2011-09-03T12:39:02Z</time>
      </trkpt>
      <trkpt lat="47.68909" lon="-3.29729">
        <ele>7.6</ele>
        <time>2011-09-03T12:39:23Z</time>
      </trkpt>
      <trkpt lat="47.68972" lon="-3.29968">
        <ele>7.9</ele>
        <time>2011-09-03T12:39:58Z</time>
      </trkpt>
      <trkpt lat="47.69116" lon="-3.30572">
        <ele>7.8</ele>
        <time>2011-09-03T12:41:22Z</time>
      </trkpt>
      <trkpt lat="47.69137" lon="-3.30658">
        <ele>7.9</ele>
        <time>2011-09-03T12:41:34Z</time>
      </trkpt>
      <trkpt lat="47.69182" lon="-3.30827">
        <ele>1</ele>
        <time>2011-09-03T12:41:58Z</time>
      </trkpt>
      <trkpt lat="47.69238" lon="-3.31068">
        <ele>7.7</ele>
        <time>2011-09-03T12:42:32Z</time>
      </trkpt>
      <trkpt lat="47.69419" lon="-3.31816">
        <ele>4</ele>
        <time>2011-09-03T12:44:19Z</time>
      </trkpt>
      <trkpt lat="47.69436" lon="-3.31895">
        <ele>3</ele>
        <time>2011-09-03T12:44:30Z</time>
      </trkpt>
      <trkpt lat="47.69452" lon="-3.32003">
        <ele>3.7</ele>
        <time>2011-09-03T12:44:46Z</time>
      </trkpt>
      <trkpt lat="47.6946" lon="-3.32086">
        <ele>4.4</ele>
        <time>2011-09-03T12:44:58Z</time>
      </trkpt>
      <trkpt lat="47.69463" lon="-3.32156">
        <ele>4.6</ele>
        <time>2011-09-03T12:45:08Z</time>
      </trkpt>
      <trkpt lat="47.69462" lon="-3.32316">
        <ele>2</ele>
        <time>2011-09-03T12:45:30Z</time>
      </trkpt>
      <trkpt lat="47.69464" lon="-3.32369">
        <ele>2</ele>
        <time>2011-09-03T12:45:37Z</time>
      </trkpt>
      <trkpt lat="47.69492" lon="-3.32659">
        <ele>3</ele>
        <time>2011-09-03T12:46:17Z</time>
      </trkpt>
      <trkpt lat="47.69514" lon="-3.32865">
        <ele>2</ele>
        <time>2011-09-03T12:46:45Z</time>
      </trkpt>
      <trkpt lat="47.69538" lon="-3.33448">
        <ele>3</ele>
        <time>2011-09-03T12:48:03Z</time>
      </trkpt>
      <trkpt lat="47.69544" lon="-3.33544">
        <ele>3</ele>
        <time>2011-09-03T12:48:16Z</time>
      </trkpt>
      <trkpt lat="47.6955" lon="-3.33594">
        <ele>4</ele>
        <time>2011-09-03T12:48:23Z</time>
      </trkpt>
      <trkpt lat="47.69566" lon="-3.33691">
        <ele>4</ele>
        <time>2011-09-03T12:48:37Z</time>
      </trkpt>
      <trkpt lat="47.69599" lon="-3.33859">
        <ele>4</ele>
        <time>2011-09-03T12:49:02Z</time>
      </trkpt>
      <trkpt lat="47.69605" lon="-3.33915">
        <ele>4</ele>
        <time>2011-09-03T12:49:10Z</time>
      </trkpt>
      <trkpt lat="47.69607" lon="-3.33958">
        <ele>3</ele>
        <time>2011-09-03T12:49:16Z</time>
      </trkpt>
      <trkpt lat="47.6961" lon="-3.34307">
        <ele>4</ele>
        <time>2011-09-03T12:50:03Z</time>
      </trkpt>
      <trkpt lat="47.69593" lon="-3.34522">
        <ele>3</ele>
        <time>2011-09-03T12:50:34Z</time>
      </trkpt>
      <trkpt lat="47.69594" lon="-3.34556">
        <ele>3</ele>
        <time>2011-09-03T12:50:39Z</time>
      </trkpt>
      <trkpt lat="47.69606" lon="-3.34643">
        <ele>5</ele>
        <time>2011-09-03T12:50:52Z</time>
      </trkpt>
      <trkpt lat="47.69613" lon="-3.34683">
        <ele>5</ele>
        <time>2011-09-03T12:50:58Z</time>
      </trkpt>
      <trkpt lat="47.69615" lon="-3.34719">
        <ele>5</ele>
        <time>2011-09-03T12:51:03Z</time>
      </trkpt>
      <trkpt lat="47.6962" lon="-3.34763">
        <ele>4</ele>
        <time>2011-09-03T12:51:09Z</time>
      </trkpt>
      <trkpt lat="47.69631" lon="-3.34808">
        <ele>4</ele>
        <time>2011-09-03T12:51:16Z</time>
      </trkpt>
      <trkpt lat="47.69643" lon="-3.3484">
        <ele>3</ele>
        <time>2011-09-03T12:51:21Z</time>
      </trkpt>
      <trkpt lat="47.69657" lon="-3.34868">
        <ele>3</ele>
        <time>2011-09-03T12:51:26Z</time>
      </trkpt>
      <trkpt lat="47.69687" lon="-3.34917">
        <ele>4</ele>
        <time>2011-09-03T12:51:36Z</time>
      </trkpt>
      <trkpt lat="47.69786" lon="-3.35068">
        <ele>3</ele>
        <time>2011-09-03T12:52:08Z</time>
      </trkpt>
      <trkpt lat="47.698" lon="-3.35086">
        <ele>3</ele>
        <time>2011-09-03T12:52:12Z</time>
      </trkpt>
      <trkpt lat="47.69812" lon="-3.35099">
        <ele>3</ele>
        <time>2011-09-03T12:52:16Z</time>
      </trkpt>
      <trkpt lat="47.69819" lon="-3.351">
        <ele>3</ele>
        <time>2011-09-03T12:52:18Z</time>
      </trkpt>
      <trkpt lat="47.69823" lon="-3.35099">
        <ele>3</ele>
        <time>2011-09-03T12:52:19Z</time>
      </trkpt>
      <trkpt lat="47.69835" lon="-3.3509">
        <ele>3</ele>
        <time>2011-09-03T12:52:22Z</time>
      </trkpt>
      <trkpt lat="47.69856" lon="-3.35065">
        <ele>3</ele>
        <time>2011-09-03T12:52:28Z</time>
      </trkpt>
      <trkpt lat="47.69877" lon="-3.35036">
        <ele>3</ele>
        <time>2011-09-03T12:52:35Z</time>
      </trkpt>
      <trkpt lat="47.69898" lon="-3.35014">
        <ele>3</ele>
        <time>2011-09-03T12:52:42Z</time>
      </trkpt>
      <trkpt lat="47.69916" lon="-3.35006">
        <ele>2</ele>
        <time>2011-09-03T12:52:48Z</time>
      </trkpt>
      <trkpt lat="47.6995" lon="-3.34979">
        <ele>1</ele>
        <time>2011-09-03T13:00:21Z</time>
      </trkpt>
      <trkpt lat="47.69952" lon="-3.34978">
        <ele>1</ele>
        <time>2011-09-03T13:00:32Z</time>
      </trkpt>
      <trkpt lat="47.69951" lon="-3.34987">
        <ele>1</ele>
        <time>2011-09-03T13:03:58Z</time>
      </trkpt>
      <trkpt lat="47.69943" lon="-3.34993">
        <ele>2</ele>
        <time>2011-09-03T13:04:01Z</time>
      </trkpt>
      <trkpt lat="47.69916" lon="-3.35018">
        <ele>3</ele>
        <time>2011-09-03T13:04:11Z</time>
      </trkpt>
      <trkpt lat="47.69887" lon="-3.35037">
        <ele>3</ele>
        <time>2011-09-03T13:04:21Z</time>
      </trkpt>
      <trkpt lat="47.69878" lon="-3.35047">
        <ele>3</ele>
        <time>2011-09-03T13:04:24Z</time>
      </trkpt>
      <trkpt lat="47.69827" lon="-3.3511">
        <ele>3</ele>
        <time>2011-09-03T13:04:40Z</time>
      </trkpt>
      <trkpt lat="47.69819" lon="-3.35116">
        <ele>3</ele>
        <time>2011-09-03T13:04:42Z</time>
      </trkpt>
      <trkpt lat="47.69816" lon="-3.35117">
        <ele>3</ele>
        <time>2011-09-03T13:04:43Z</time>
      </trkpt>
      <trkpt lat="47.69809" lon="-3.35113">
        <ele>3</ele>
        <time>2011-09-03T13:04:45Z</time>
      </trkpt>
      <trkpt lat="47.698" lon="-3.35103">
        <ele>3</ele>
        <time>2011-09-03T13:04:48Z</time>
      </trkpt>
      <trkpt lat="47.69763" lon="-3.35043">
        <ele>4</ele>
        <time>2011-09-03T13:05:00Z</time>
      </trkpt>
      <trkpt lat="47.69712" lon="-3.34967">
        <ele>4</ele>
        <time>2011-09-03T13:05:15Z</time>
      </trkpt>
      <trkpt lat="47.69657" lon="-3.34879">
        <ele>4</ele>
        <time>2011-09-03T13:05:32Z</time>
      </trkpt>
      <trkpt lat="47.69634" lon="-3.34834">
        <ele>4</ele>
        <time>2011-09-03T13:05:40Z</time>
      </trkpt>
      <trkpt lat="47.69623" lon="-3.34803">
        <ele>4</ele>
        <time>2011-09-03T13:05:45Z</time>
      </trkpt>
      <trkpt lat="47.69613" lon="-3.34759">
        <ele>5</ele>
        <time>2011-09-03T13:05:52Z</time>
      </trkpt>
      <trkpt lat="47.69587" lon="-3.34559">
        <ele>3</ele>
        <time>2011-09-03T13:06:23Z</time>
      </trkpt>
      <trkpt lat="47.69584" lon="-3.34527">
        <ele>3</ele>
        <time>2011-09-03T13:06:28Z</time>
      </trkpt>
      <trkpt lat="47.69585" lon="-3.34506">
        <ele>2</ele>
        <time>2011-09-03T13:06:31Z</time>
      </trkpt>
      <trkpt lat="47.69602" lon="-3.34285">
        <ele>4</ele>
        <time>2011-09-03T13:07:00Z</time>
      </trkpt>
      <trkpt lat="47.69598" lon="-3.33908">
        <ele>4</ele>
        <time>2011-09-03T13:07:49Z</time>
      </trkpt>
      <trkpt lat="47.69592" lon="-3.33861">
        <ele>4</ele>
        <time>2011-09-03T13:07:55Z</time>
      </trkpt>
      <trkpt lat="47.69567" lon="-3.33737">
        <ele>4</ele>
        <time>2011-09-03T13:08:11Z</time>
      </trkpt>
      <trkpt lat="47.69547" lon="-3.33623">
        <ele>4</ele>
        <time>2011-09-03T13:08:26Z</time>
      </trkpt>
      <trkpt lat="47.69535" lon="-3.33538">
        <ele>3</ele>
        <time>2011-09-03T13:08:37Z</time>
      </trkpt>
      <trkpt lat="47.69532" lon="-3.3349">
        <ele>3</ele>
        <time>2011-09-03T13:08:43Z</time>
      </trkpt>
      <trkpt lat="47.69529" lon="-3.33379">
        <ele>3</ele>
        <time>2011-09-03T13:08:57Z</time>
      </trkpt>
      <trkpt lat="47.69506" lon="-3.32862">
        <ele>2</ele>
        <time>2011-09-03T13:10:03Z</time>
      </trkpt>
      <trkpt lat="47.69501" lon="-3.328">
        <ele>2</ele>
        <time>2011-09-03T13:10:11Z</time>
      </trkpt>
      <trkpt lat="47.69482" lon="-3.32644">
        <ele>3</ele>
        <time>2011-09-03T13:10:31Z</time>
      </trkpt>
      <trkpt lat="47.69454" lon="-3.32346">
        <ele>2</ele>
        <time>2011-09-03T13:11:08Z</time>
      </trkpt>
      <trkpt lat="47.69452" lon="-3.3228">
        <ele>1</ele>
        <time>2011-09-03T13:11:16Z</time>
      </trkpt>
      <trkpt lat="47.69454" lon="-3.32145">
        <ele>4.8</ele>
        <time>2011-09-03T13:11:32Z</time>
      </trkpt>
      <trkpt lat="47.69451" lon="-3.32076">
        <ele>4.5</ele>
        <time>2011-09-03T13:11:40Z</time>
      </trkpt>
      <trkpt lat="47.69443" lon="-3.32001">
        <ele>4.1</ele>
        <time>2011-09-03T13:11:49Z</time>
      </trkpt>
      <trkpt lat="47.69427" lon="-3.31896">
        <ele>3</ele>
        <time>2011-09-03T13:12:02Z</time>
      </trkpt>
      <trkpt lat="47.69415" lon="-3.3184">
        <ele>4</ele>
        <time>2011-09-03T13:12:09Z</time>
      </trkpt>
      <trkpt lat="47.69168" lon="-3.30816">
        <ele>1</ele>
        <time>2011-09-03T13:14:20Z</time>
      </trkpt>
      <trkpt lat="47.69118" lon="-3.30625">
        <ele>8.1</ele>
        <time>2011-09-03T13:14:45Z</time>
      </trkpt>
      <trkpt lat="47.6895" lon="-3.2993">
        <ele>8.1</ele>
        <time>2011-09-03T13:16:17Z</time>
      </trkpt>
      <trkpt lat="47.6887" lon="-3.29631">
        <ele>8.7</ele>
        <time>2011-09-03T13:16:57Z</time>
      </trkpt>
      <trkpt lat="47.68831" lon="-3.29495">
        <ele>4</ele>
        <time>2011-09-03T13:17:16Z</time>
      </trkpt>
      <trkpt lat="47.68658" lon="-3.28959">
        <ele>7.3</ele>
        <time>2011-09-03T13:18:36Z</time>
      </trkpt>
      <trkpt lat="47.68527" lon="-3.28582">
        <ele>8</ele>
        <time>2011-09-03T13:19:29Z</time>
      </trkpt>
      <trkpt lat="47.68514" lon="-3.28543">
        <ele>7</ele>
        <time>2011-09-03T13:19:35Z</time>
      </trkpt>
      <trkpt lat="47.68505" lon="-3.2851">
        <ele>7</ele>
        <time>2011-09-03T13:19:40Z</time>
      </trkpt>
      <trkpt lat="47.68499" lon="-3.28471">
        <ele>6</ele>
        <time>2011-09-03T13:19:46Z</time>
      </trkpt>
      <trkpt lat="47.68495" lon="-3.28422">
        <ele>6</ele>
        <time>2011-09-03T13:19:53Z</time>
      </trkpt>
      <trkpt lat="47.68494" lon="-3.28386">
        <ele>6</ele>
        <time>2011-09-03T13:19:58Z</time>
      </trkpt>
      <trkpt lat="47.68496" lon="-3.28349">
        <ele>6</ele>
        <time>2011-09-03T13:20:03Z</time>
      </trkpt>
      <trkpt lat="47.68506" lon="-3.28286">
        <ele>5</ele>
        <time>2011-09-03T13:20:12Z</time>
      </trkpt>
      <trkpt lat="47.68514" lon="-3.28247">
        <ele>4</ele>
        <time>2011-09-03T13:20:18Z</time>
      </trkpt>
      <trkpt lat="47.68527" lon="-3.28205">
        <ele>4</ele>
        <time>2011-09-03T13:20:25Z</time>
      </trkpt>
      <trkpt lat="47.68544" lon="-3.28164">
        <ele>3</ele>
        <time>2011-09-03T13:20:31Z</time>
      </trkpt>
      <trkpt lat="47.6856" lon="-3.28131">
        <ele>3</ele>
        <time>2011-09-03T13:20:36Z</time>
      </trkpt>
      <trkpt lat="47.68583" lon="-3.28092">
        <ele>3</ele>
        <time>2011-09-03T13:20:42Z</time>
      </trkpt>
      <trkpt lat="47.68659" lon="-3.27977">
        <ele>3</ele>
        <time>2011-09-03T13:21:01Z</time>
      </trkpt>
      <trkpt lat="47.68685" lon="-3.27945">
        <ele>4</ele>
        <time>2011-09-03T13:21:07Z</time>
      </trkpt>
      <trkpt lat="47.68734" lon="-3.27873">
        <ele>6</ele>
        <time>2011-09-03T13:21:19Z</time>
      </trkpt>
      <trkpt lat="47.68751" lon="-3.2785">
        <ele>7</ele>
        <time>2011-09-03T13:21:23Z</time>
      </trkpt>
      <trkpt lat="47.68848" lon="-3.27704">
        <ele>6</ele>
        <time>2011-09-03T13:21:48Z</time>
      </trkpt>
      <trkpt lat="47.68883" lon="-3.27656">
        <ele>5</ele>
        <time>2011-09-03T13:21:57Z</time>
      </trkpt>
      <trkpt lat="47.68902" lon="-3.27625">
        <ele>5</ele>
        <time>2011-09-03T13:22:02Z</time>
      </trkpt>
      <trkpt lat="47.6892" lon="-3.27585">
        <ele>5</ele>
        <time>2011-09-03T13:22:08Z</time>
      </trkpt>
      <trkpt lat="47.68938" lon="-3.27532">
        <ele>5</ele>
        <time>2011-09-03T13:22:15Z</time>
      </trkpt>
      <trkpt lat="47.68947" lon="-3.27493">
        <ele>5</ele>
        <time>2011-09-03T13:22:20Z</time>
      </trkpt>
      <trkpt lat="47.68966" lon="-3.27373">
        <ele>6</ele>
        <time>2011-09-03T13:22:35Z</time>
      </trkpt>
      <trkpt lat="47.6897" lon="-3.27359">
        <ele>6</ele>
        <time>2011-09-03T13:22:37Z</time>
      </trkpt>
      <trkpt lat="47.68979" lon="-3.27341">
        <ele>7</ele>
        <time>2011-09-03T13:22:40Z</time>
      </trkpt>
      <trkpt lat="47.68987" lon="-3.27331">
        <ele>7</ele>
        <time>2011-09-03T13:22:42Z</time>
      </trkpt>
      <trkpt lat="47.68999" lon="-3.27317">
        <ele>7</ele>
        <time>2011-09-03T13:22:45Z</time>
      </trkpt>
      <trkpt lat="47.69016" lon="-3.27303">
        <ele>9</ele>
        <time>2011-09-03T13:22:49Z</time>
      </trkpt>
      <trkpt lat="47.69064" lon="-3.27265">
        <ele>10</ele>
        <time>2011-09-03T13:23:00Z</time>
      </trkpt>
      <trkpt lat="47.69153" lon="-3.27191">
        <ele>14</ele>
        <time>2011-09-03T13:23:21Z</time>
      </trkpt>
      <trkpt lat="47.69416" lon="-3.27021">
        <ele>16</ele>
        <time>2011-09-03T13:24:18Z</time>
      </trkpt>
      <trkpt lat="47.69425" lon="-3.27014">
        <ele>16</ele>
        <time>2011-09-03T13:24:20Z</time>
      </trkpt>
      <trkpt lat="47.69438" lon="-3.27">
        <ele>16</ele>
        <time>2011-09-03T13:24:23Z</time>
      </trkpt>
      <trkpt lat="47.69455" lon="-3.26971">
        <ele>17</ele>
        <time>2011-09-03T13:24:28Z</time>
      </trkpt>
      <trkpt lat="47.69465" lon="-3.26945">
        <ele>17</ele>
        <time>2011-09-03T13:24:32Z</time>
      </trkpt>
      <trkpt lat="47.69543" lon="-3.26715">
        <ele>19</ele>
        <time>2011-09-03T13:25:06Z</time>
      </trkpt>
      <trkpt lat="47.69546" lon="-3.2671">
        <ele>19</ele>
        <time>2011-09-03T13:25:07Z</time>
      </trkpt>
      <trkpt lat="47.6955" lon="-3.26701">
        <ele>19</ele>
        <time>2011-09-03T13:25:35Z</time>
      </trkpt>
      <trkpt lat="47.69553" lon="-3.26649">
        <ele>19</ele>
        <time>2011-09-03T13:25:43Z</time>
      </trkpt>
      <trkpt lat="47.69552" lon="-3.2662">
        <ele>19</ele>
        <time>2011-09-03T13:25:47Z</time>
      </trkpt>
      <trkpt lat="47.69527" lon="-3.26474">
        <ele>20</ele>
        <time>2011-09-03T13:26:07Z</time>
      </trkpt>
      <trkpt lat="47.69522" lon="-3.26436">
        <ele>20</ele>
        <time>2011-09-03T13:26:12Z</time>
      </trkpt>
      <trkpt lat="47.69522" lon="-3.26412">
        <ele>21</ele>
        <time>2011-09-03T13:26:15Z</time>
      </trkpt>
      <trkpt lat="47.6953" lon="-3.26369">
        <ele>21</ele>
        <time>2011-09-03T13:26:21Z</time>
      </trkpt>
      <trkpt lat="47.69568" lon="-3.26189">
        <ele>20</ele>
        <time>2011-09-03T13:26:46Z</time>
      </trkpt>
      <trkpt lat="47.69599" lon="-3.25995">
        <ele>18</ele>
        <time>2011-09-03T13:27:12Z</time>
      </trkpt>
      <trkpt lat="47.69612" lon="-3.2592">
        <ele>19</ele>
        <time>2011-09-03T13:27:22Z</time>
      </trkpt>
      <trkpt lat="47.69637" lon="-3.25808">
        <ele>17</ele>
        <time>2011-09-03T13:27:37Z</time>
      </trkpt>
      <trkpt lat="47.69652" lon="-3.2576">
        <ele>17</ele>
        <time>2011-09-03T13:27:44Z</time>
      </trkpt>
      <trkpt lat="47.69655" lon="-3.25755">
        <ele>17</ele>
        <time>2011-09-03T13:27:45Z</time>
      </trkpt>
      <trkpt lat="47.69659" lon="-3.25752">
        <ele>17</ele>
        <time>2011-09-03T13:27:46Z</time>
      </trkpt>
      <trkpt lat="47.69663" lon="-3.25752">
        <ele>17</ele>
        <time>2011-09-03T13:27:47Z</time>
      </trkpt>
      <trkpt lat="47.69685" lon="-3.25764">
        <ele>17</ele>
        <time>2011-09-03T13:27:52Z</time>
      </trkpt>
      <trkpt lat="47.69768" lon="-3.25768">
        <ele>17</ele>
        <time>2011-09-03T13:28:07Z</time>
      </trkpt>
      <trkpt lat="47.69906" lon="-3.25765">
        <ele>19</ele>
        <time>2011-09-03T13:28:34Z</time>
      </trkpt>
      <trkpt lat="47.7005" lon="-3.25764">
        <ele>22</ele>
        <time>2011-09-03T13:29:03Z</time>
      </trkpt>
      <trkpt lat="47.70061" lon="-3.25763">
        <ele>23</ele>
        <time>2011-09-03T13:29:05Z</time>
      </trkpt>
      <trkpt lat="47.70066" lon="-3.2576">
        <ele>23</ele>
        <time>2011-09-03T13:29:06Z</time>
      </trkpt>
      <trkpt lat="47.70081" lon="-3.25744">
        <ele>22</ele>
        <time>2011-09-03T13:29:10Z</time>
      </trkpt>
      <trkpt lat="47.7009" lon="-3.2574">
        <ele>22</ele>
        <time>2011-09-03T13:29:13Z</time>
      </trkpt>
      <trkpt lat="47.70094" lon="-3.2574">
        <ele>22</ele>
        <time>2011-09-03T13:29:14Z</time>
      </trkpt>
      <trkpt lat="47.70098" lon="-3.25741">
        <ele>22</ele>
        <time>2011-09-03T13:29:15Z</time>
      </trkpt>
      <trkpt lat="47.70105" lon="-3.25749">
        <ele>22</ele>
        <time>2011-09-03T13:29:17Z</time>
      </trkpt>
      <trkpt lat="47.70126" lon="-3.25778">
        <ele>22</ele>
        <time>2011-09-03T13:29:23Z</time>
      </trkpt>
      <trkpt lat="47.70149" lon="-3.25816">
        <ele>22</ele>
        <time>2011-09-03T13:29:30Z</time>
      </trkpt>
      <trkpt lat="47.70178" lon="-3.25874">
        <ele>21</ele>
        <time>2011-09-03T13:29:40Z</time>
      </trkpt>
      <trkpt lat="47.70223" lon="-3.25957">
        <ele>20</ele>
        <time>2011-09-03T13:29:55Z</time>
      </trkpt>
      <trkpt lat="47.703" lon="-3.2607">
        <ele>19</ele>
        <time>2011-09-03T13:30:17Z</time>
      </trkpt>
      <trkpt lat="47.70335" lon="-3.26123">
        <ele>19</ele>
        <time>2011-09-03T13:30:27Z</time>
      </trkpt>
      <trkpt lat="47.70414" lon="-3.26267">
        <ele>21</ele>
        <time>2011-09-03T13:30:51Z</time>
      </trkpt>
      <trkpt lat="47.70432" lon="-3.26304">
        <ele>20</ele>
        <time>2011-09-03T13:30:57Z</time>
      </trkpt>
      <trkpt lat="47.70471" lon="-3.26369">
        <ele>21</ele>
        <time>2011-09-03T13:31:08Z</time>
      </trkpt>
      <trkpt lat="47.70554" lon="-3.26514">
        <ele>23</ele>
        <time>2011-09-03T13:31:33Z</time>
      </trkpt>
      <trkpt lat="47.70589" lon="-3.2657">
        <ele>24</ele>
        <time>2011-09-03T13:31:43Z</time>
      </trkpt>
      <trkpt lat="47.70613" lon="-3.26612">
        <ele>24</ele>
        <time>2011-09-03T13:31:50Z</time>
      </trkpt>
      <trkpt lat="47.70637" lon="-3.26664">
        <ele>23</ele>
        <time>2011-09-03T13:31:58Z</time>
      </trkpt>
      <trkpt lat="47.70695" lon="-3.26812">
        <ele>23</ele>
        <time>2011-09-03T13:32:20Z</time>
      </trkpt>
      <trkpt lat="47.70743" lon="-3.26949">
        <ele>23</ele>
        <time>2011-09-03T13:32:40Z</time>
      </trkpt>
      <trkpt lat="47.70779" lon="-3.27042">
        <ele>22</ele>
        <time>2011-09-03T13:32:54Z</time>
      </trkpt>
      <trkpt lat="47.70806" lon="-3.27136">
        <ele>20</ele>
        <time>2011-09-03T13:33:06Z</time>
      </trkpt>
      <trkpt lat="47.70851" lon="-3.27324">
        <ele>16</ele>
        <time>2011-09-03T13:33:28Z</time>
      </trkpt>
      <trkpt lat="47.70893" lon="-3.27527">
        <ele>16</ele>
        <time>2011-09-03T13:33:55Z</time>
      </trkpt>
      <trkpt lat="47.70902" lon="-3.27579">
        <ele>16</ele>
        <time>2011-09-03T13:34:02Z</time>
      </trkpt>
      <trkpt lat="47.70904" lon="-3.27594">
        <ele>17</ele>
        <time>2011-09-03T13:34:04Z</time>
      </trkpt>
      <trkpt lat="47.70909" lon="-3.27686">
        <ele>17</ele>
        <time>2011-09-03T13:34:16Z</time>
      </trkpt>
      <trkpt lat="47.70905" lon="-3.27767">
        <ele>18</ele>
        <time>2011-09-03T13:34:28Z</time>
      </trkpt>
      <trkpt lat="47.70907" lon="-3.27803">
        <ele>19</ele>
        <time>2011-09-03T13:34:34Z</time>
      </trkpt>
      <trkpt lat="47.7091" lon="-3.27835">
        <ele>20</ele>
        <time>2011-09-03T13:34:39Z</time>
      </trkpt>
      <trkpt lat="47.70974" lon="-3.28123">
        <ele>20</ele>
        <time>2011-09-03T13:35:22Z</time>
      </trkpt>
      <trkpt lat="47.71006" lon="-3.28347">
        <ele>18</ele>
        <time>2011-09-03T13:35:52Z</time>
      </trkpt>
      <trkpt lat="47.71014" lon="-3.28416">
        <ele>18</ele>
        <time>2011-09-03T13:36:01Z</time>
      </trkpt>
      <trkpt lat="47.71015" lon="-3.28466">
        <ele>17</ele>
        <time>2011-09-03T13:36:07Z</time>
      </trkpt>
      <trkpt lat="47.71014" lon="-3.28616">
        <ele>14</ele>
        <time>2011-09-03T13:36:22Z</time>
      </trkpt>
      <trkpt lat="47.7102" lon="-3.28816">
        <ele>11</ele>
        <time>2011-09-03T13:36:43Z</time>
      </trkpt>
      <trkpt lat="47.71016" lon="-3.28864">
        <ele>10</ele>
        <time>2011-09-03T13:36:49Z</time>
      </trkpt>
      <trkpt lat="47.70999" lon="-3.2899">
        <ele>9</ele>
        <time>2011-09-03T13:37:05Z</time>
      </trkpt>
      <trkpt lat="47.70995" lon="-3.29043">
        <ele>8</ele>
        <time>2011-09-03T13:37:11Z</time>
      </trkpt>
      <trkpt lat="47.70991" lon="-3.29217">
        <ele>6</ele>
        <time>2011-09-03T13:37:32Z</time>
      </trkpt>
      <trkpt lat="47.70993" lon="-3.29275">
        <ele>6</ele>
        <time>2011-09-03T13:37:39Z</time>
      </trkpt>
      <trkpt lat="47.70997" lon="-3.29329">
        <ele>6</ele>
        <time>2011-09-03T13:37:46Z</time>
      </trkpt>
      <trkpt lat="47.71003" lon="-3.29366">
        <ele>6</ele>
        <time>2011-09-03T13:37:51Z</time>
      </trkpt>
      <trkpt lat="47.71014" lon="-3.29418">
        <ele>7</ele>
        <time>2011-09-03T13:37:58Z</time>
      </trkpt>
      <trkpt lat="47.711" lon="-3.29777">
        <ele>5</ele>
        <time>2011-09-03T13:38:51Z</time>
      </trkpt>
      <trkpt lat="47.71104" lon="-3.298">
        <ele>5</ele>
        <time>2011-09-03T13:38:54Z</time>
      </trkpt>
      <trkpt lat="47.71109" lon="-3.29855">
        <ele>4</ele>
        <time>2011-09-03T13:39:01Z</time>
      </trkpt>
      <trkpt lat="47.71121" lon="-3.29907">
        <ele>4</ele>
        <time>2011-09-03T13:39:08Z</time>
      </trkpt>
      <trkpt lat="47.71127" lon="-3.29929">
        <ele>3</ele>
        <time>2011-09-03T13:39:11Z</time>
      </trkpt>
      <trkpt lat="47.71136" lon="-3.29947">
        <ele>3</ele>
        <time>2011-09-03T13:39:14Z</time>
      </trkpt>
      <trkpt lat="47.7114" lon="-3.2997">
        <ele>3</ele>
        <time>2011-09-03T13:39:18Z</time>
      </trkpt>
      <trkpt lat="47.71149" lon="-3.2998">
        <ele>3</ele>
        <time>2011-09-03T13:39:21Z</time>
      </trkpt>
      <trkpt lat="47.71156" lon="-3.29998">
        <ele>4</ele>
        <time>2011-09-03T13:39:24Z</time>
      </trkpt>
      <trkpt lat="47.71216" lon="-3.30206">
        <ele>5</ele>
        <time>2011-09-03T13:39:56Z</time>
      </trkpt>
      <trkpt lat="47.71222" lon="-3.30215">
        <ele>5</ele>
        <time>2011-09-03T13:39:58Z</time>
      </trkpt>
      <trkpt lat="47.7123" lon="-3.30219">
        <ele>5</ele>
        <time>2011-09-03T13:40:00Z</time>
      </trkpt>
      <trkpt lat="47.71349" lon="-3.30207">
        <ele>8</ele>
        <time>2011-09-03T13:40:25Z</time>
      </trkpt>
      <trkpt lat="47.71472" lon="-3.30199">
        <ele>9</ele>
        <time>2011-09-03T13:40:51Z</time>
      </trkpt>
      <trkpt lat="47.715" lon="-3.30199">
        <ele>10</ele>
        <time>2011-09-03T13:40:58Z</time>
      </trkpt>
      <trkpt lat="47.71533" lon="-3.30204">
        <ele>10</ele>
        <time>2011-09-03T13:41:06Z</time>
      </trkpt>
      <trkpt lat="47.71546" lon="-3.30205">
        <ele>10</ele>
        <time>2011-09-03T13:41:09Z</time>
      </trkpt>
      <trkpt lat="47.71603" lon="-3.302">
        <ele>12</ele>
        <time>2011-09-03T13:41:23Z</time>
      </trkpt>
      <trkpt lat="47.7161" lon="-3.30204">
        <ele>13</ele>
        <time>2011-09-03T13:41:26Z</time>
      </trkpt>
      <trkpt lat="47.71611" lon="-3.30207">
        <ele>13</ele>
        <time>2011-09-03T13:41:27Z</time>
      </trkpt>
      <trkpt lat="47.7161" lon="-3.30222">
        <ele>13</ele>
        <time>2011-09-03T13:41:30Z</time>
      </trkpt>
      <trkpt lat="47.71613" lon="-3.3023">
        <ele>13</ele>
        <time>2011-09-03T13:41:32Z</time>
      </trkpt>
      <trkpt lat="47.71616" lon="-3.30231">
        <ele>13</ele>
        <time>2011-09-03T13:41:33Z</time>
      </trkpt>
      <trkpt lat="47.71648" lon="-3.30176">
        <ele>14</ele>
        <time>2011-09-03T13:41:45Z</time>
      </trkpt>
      <trkpt lat="47.71709" lon="-3.30084">
        <ele>17</ele>
        <time>2011-09-03T13:42:06Z</time>
      </trkpt>
      <trkpt lat="47.71727" lon="-3.30063">
        <ele>17</ele>
        <time>2011-09-03T13:42:13Z</time>
      </trkpt>
      <trkpt lat="47.7176" lon="-3.30034">
        <ele>18</ele>
        <time>2011-09-03T13:42:41Z</time>
      </trkpt>
      <trkpt lat="47.71797" lon="-3.29996">
        <ele>19</ele>
        <time>2011-09-03T13:42:53Z</time>
      </trkpt>
      <trkpt lat="47.71821" lon="-3.29977">
        <ele>19</ele>
        <time>2011-09-03T13:43:00Z</time>
      </trkpt>
      <trkpt lat="47.71841" lon="-3.29958">
        <ele>18</ele>
        <time>2011-09-03T13:43:06Z</time>
      </trkpt>
      <trkpt lat="47.71851" lon="-3.29945">
        <ele>18</ele>
        <time>2011-09-03T13:43:09Z</time>
      </trkpt>
      <trkpt lat="47.71879" lon="-3.29899">
        <ele>16</ele>
        <time>2011-09-03T13:43:18Z</time>
      </trkpt>
      <trkpt lat="47.7191" lon="-3.2986">
        <ele>15</ele>
        <time>2011-09-03T13:43:26Z</time>
      </trkpt>
      <trkpt lat="47.71921" lon="-3.29841">
        <ele>14</ele>
        <time>2011-09-03T13:43:29Z</time>
      </trkpt>
      <trkpt lat="47.71931" lon="-3.29819">
        <ele>14</ele>
        <time>2011-09-03T13:43:32Z</time>
      </trkpt>
      <trkpt lat="47.71978" lon="-3.29702">
        <ele>14</ele>
        <time>2011-09-03T13:43:50Z</time>
      </trkpt>
      <trkpt lat="47.71988" lon="-3.29683">
        <ele>14</ele>
        <time>2011-09-03T13:43:54Z</time>
      </trkpt>
      <trkpt lat="47.72001" lon="-3.29665">
        <ele>15</ele>
        <time>2011-09-03T13:43:58Z</time>
      </trkpt>
      <trkpt lat="47.72013" lon="-3.29654">
        <ele>16</ele>
        <time>2011-09-03T13:44:01Z</time>
      </trkpt>
      <trkpt lat="47.72029" lon="-3.29643">
        <ele>16</ele>
        <time>2011-09-03T13:44:05Z</time>
      </trkpt>
      <trkpt lat="47.72046" lon="-3.29635">
        <ele>16</ele>
        <time>2011-09-03T13:44:09Z</time>
      </trkpt>
      <trkpt lat="47.72074" lon="-3.29625">
        <ele>17</ele>
        <time>2011-09-03T13:44:15Z</time>
      </trkpt>
      <trkpt lat="47.721" lon="-3.29619">
        <ele>18</ele>
        <time>2011-09-03T13:44:21Z</time>
      </trkpt>
      <trkpt lat="47.72156" lon="-3.29613">
        <ele>18</ele>
        <time>2011-09-03T13:44:33Z</time>
      </trkpt>
      <trkpt lat="47.72214" lon="-3.29594">
        <ele>19</ele>
        <time>2011-09-03T13:44:45Z</time>
      </trkpt>
      <trkpt lat="47.72229" lon="-3.29593">
        <ele>19</ele>
        <time>2011-09-03T13:44:48Z</time>
      </trkpt>
      <trkpt lat="47.72245" lon="-3.29596">
        <ele>19</ele>
        <time>2011-09-03T13:44:51Z</time>
      </trkpt>
      <trkpt lat="47.72305" lon="-3.29619">
        <ele>19</ele>
        <time>2011-09-03T13:45:03Z</time>
      </trkpt>
      <trkpt lat="47.72324" lon="-3.29625">
        <ele>19</ele>
        <time>2011-09-03T13:45:07Z</time>
      </trkpt>
      <trkpt lat="47.72339" lon="-3.29627">
        <ele>20</ele>
        <time>2011-09-03T13:45:10Z</time>
      </trkpt>
      <trkpt lat="47.72429" lon="-3.29622">
        <ele>20</ele>
        <time>2011-09-03T13:45:28Z</time>
      </trkpt>
      <trkpt lat="47.72479" lon="-3.29614">
        <ele>20</ele>
        <time>2011-09-03T13:45:38Z</time>
      </trkpt>
      <trkpt lat="47.725" lon="-3.29613">
        <ele>20</ele>
        <time>2011-09-03T13:45:42Z</time>
      </trkpt>
      <trkpt lat="47.72541" lon="-3.29615">
        <ele>20</ele>
        <time>2011-09-03T13:45:50Z</time>
      </trkpt>
      <trkpt lat="47.72581" lon="-3.29629">
        <ele>21</ele>
        <time>2011-09-03T13:45:58Z</time>
      </trkpt>
      <trkpt lat="47.726" lon="-3.29632">
        <ele>22</ele>
        <time>2011-09-03T13:46:02Z</time>
      </trkpt>
      <trkpt lat="47.72614" lon="-3.29632">
        <ele>23</ele>
        <time>2011-09-03T13:46:05Z</time>
      </trkpt>
      <trkpt lat="47.72655" lon="-3.29628">
        <ele>24</ele>
        <time>2011-09-03T13:46:15Z</time>
      </trkpt>
      <trkpt lat="47.72694" lon="-3.29627">
        <ele>25</ele>
        <time>2011-09-03T13:46:25Z</time>
      </trkpt>
      <trkpt lat="47.72732" lon="-3.2963">
        <ele>25</ele>
        <time>2011-09-03T13:46:34Z</time>
      </trkpt>
      <trkpt lat="47.72747" lon="-3.29633">
        <ele>25</ele>
        <time>2011-09-03T13:46:37Z</time>
      </trkpt>
      <trkpt lat="47.72761" lon="-3.29638">
        <ele>25</ele>
        <time>2011-09-03T13:46:40Z</time>
      </trkpt>
      <trkpt lat="47.72779" lon="-3.29649">
        <ele>25</ele>
        <time>2011-09-03T13:46:44Z</time>
      </trkpt>
      <trkpt lat="47.72813" lon="-3.29673">
        <ele>24</ele>
        <time>2011-09-03T13:46:52Z</time>
      </trkpt>
      <trkpt lat="47.72865" lon="-3.29695">
        <ele>23</ele>
        <time>2011-09-03T13:47:02Z</time>
      </trkpt>
      <trkpt lat="47.72882" lon="-3.29705">
        <ele>22</ele>
        <time>2011-09-03T13:47:06Z</time>
      </trkpt>
      <trkpt lat="47.72905" lon="-3.29721">
        <ele>22</ele>
        <time>2011-09-03T13:47:11Z</time>
      </trkpt>
      <trkpt lat="47.7291" lon="-3.29723">
        <ele>22</ele>
        <time>2011-09-03T13:47:12Z</time>
      </trkpt>
      <trkpt lat="47.7292" lon="-3.29724">
        <ele>22</ele>
        <time>2011-09-03T13:47:14Z</time>
      </trkpt>
      <trkpt lat="47.7293" lon="-3.29722">
        <ele>22</ele>
        <time>2011-09-03T13:47:16Z</time>
      </trkpt>
      <trkpt lat="47.7295" lon="-3.29714">
        <ele>22</ele>
        <time>2011-09-03T13:47:20Z</time>
      </trkpt>
      <trkpt lat="47.72975" lon="-3.29702">
        <ele>22</ele>
        <time>2011-09-03T13:47:25Z</time>
      </trkpt>
      <trkpt lat="47.72989" lon="-3.29693">
        <ele>22</ele>
        <time>2011-09-03T13:47:28Z</time>
      </trkpt>
      <trkpt lat="47.73011" lon="-3.29673">
        <ele>22</ele>
        <time>2011-09-03T13:47:33Z</time>
      </trkpt>
      <trkpt lat="47.73045" lon="-3.29635">
        <ele>23</ele>
        <time>2011-09-03T13:47:41Z</time>
      </trkpt>
      <trkpt lat="47.73058" lon="-3.29623">
        <ele>23</ele>
        <time>2011-09-03T13:47:44Z</time>
      </trkpt>
      <trkpt lat="47.73074" lon="-3.29618">
        <ele>23</ele>
        <time>2011-09-03T13:47:47Z</time>
      </trkpt>
      <trkpt lat="47.73106" lon="-3.29615">
        <ele>24</ele>
        <time>2011-09-03T13:47:53Z</time>
      </trkpt>
      <trkpt lat="47.73121" lon="-3.29611">
        <ele>24</ele>
        <time>2011-09-03T13:47:56Z</time>
      </trkpt>
      <trkpt lat="47.7316" lon="-3.2959">
        <ele>24</ele>
        <time>2011-09-03T13:48:04Z</time>
      </trkpt>
      <trkpt lat="47.73181" lon="-3.2958">
        <ele>25</ele>
        <time>2011-09-03T13:48:08Z</time>
      </trkpt>
      <trkpt lat="47.73196" lon="-3.29575">
        <ele>25</ele>
        <time>2011-09-03T13:48:11Z</time>
      </trkpt>
      <trkpt lat="47.73212" lon="-3.29573">
        <ele>26</ele>
        <time>2011-09-03T13:48:14Z</time>
      </trkpt>
      <trkpt lat="47.73247" lon="-3.29578">
        <ele>27</ele>
        <time>2011-09-03T13:48:21Z</time>
      </trkpt>
      <trkpt lat="47.73257" lon="-3.29579">
        <ele>28</ele>
        <time>2011-09-03T13:48:23Z</time>
      </trkpt>
      <trkpt lat="47.73276" lon="-3.29575">
        <ele>27</ele>
        <time>2011-09-03T13:48:27Z</time>
      </trkpt>
      <trkpt lat="47.73331" lon="-3.29561">
        <ele>26</ele>
        <time>2011-09-03T13:48:39Z</time>
      </trkpt>
      <trkpt lat="47.73346" lon="-3.2956">
        <ele>26</ele>
        <time>2011-09-03T13:48:42Z</time>
      </trkpt>
      <trkpt lat="47.73356" lon="-3.2956">
        <ele>26</ele>
        <time>2011-09-03T13:48:44Z</time>
      </trkpt>
      <trkpt lat="47.73389" lon="-3.29569">
        <ele>27</ele>
        <time>2011-09-03T13:48:51Z</time>
      </trkpt>
      <trkpt lat="47.73428" lon="-3.29593">
        <ele>30</ele>
        <time>2011-09-03T13:49:00Z</time>
      </trkpt>
      <trkpt lat="47.73445" lon="-3.296">
        <ele>30</ele>
        <time>2011-09-03T13:49:04Z</time>
      </trkpt>
      <trkpt lat="47.73464" lon="-3.29605">
        <ele>31</ele>
        <time>2011-09-03T13:49:09Z</time>
      </trkpt>
      <trkpt lat="47.73479" lon="-3.29606">
        <ele>31</ele>
        <time>2011-09-03T13:49:13Z</time>
      </trkpt>
      <trkpt lat="47.73488" lon="-3.29604">
        <ele>31</ele>
        <time>2011-09-03T13:49:15Z</time>
      </trkpt>
      <trkpt lat="47.73521" lon="-3.29591">
        <ele>31</ele>
        <time>2011-09-03T13:49:22Z</time>
      </trkpt>
      <trkpt lat="47.73558" lon="-3.29586">
        <ele>31</ele>
        <time>2011-09-03T13:49:29Z</time>
      </trkpt>
      <trkpt lat="47.73666" lon="-3.2956">
        <ele>31</ele>
        <time>2011-09-03T13:49:51Z</time>
      </trkpt>
      <trkpt lat="47.73688" lon="-3.29559">
        <ele>31</ele>
        <time>2011-09-03T13:49:55Z</time>
      </trkpt>
      <trkpt lat="47.7373" lon="-3.29562">
        <ele>31</ele>
        <time>2011-09-03T13:50:03Z</time>
      </trkpt>
      <trkpt lat="47.7375" lon="-3.2956">
        <ele>32</ele>
        <time>2011-09-03T13:50:07Z</time>
      </trkpt>
      <trkpt lat="47.73779" lon="-3.29555">
        <ele>32</ele>
        <time>2011-09-03T13:50:13Z</time>
      </trkpt>
      <trkpt lat="47.73808" lon="-3.29546">
        <ele>32</ele>
        <time>2011-09-03T13:50:19Z</time>
      </trkpt>
      <trkpt lat="47.73889" lon="-3.29508">
        <ele>34</ele>
        <time>2011-09-03T13:50:36Z</time>
      </trkpt>
      <trkpt lat="47.73905" lon="-3.29504">
        <ele>34</ele>
        <time>2011-09-03T13:50:39Z</time>
      </trkpt>
      <trkpt lat="47.7393" lon="-3.29512">
        <ele>34</ele>
        <time>2011-09-03T13:50:44Z</time>
      </trkpt>
      <trkpt lat="47.73965" lon="-3.2953">
        <ele>34</ele>
        <time>2011-09-03T13:50:52Z</time>
      </trkpt>
      <trkpt lat="47.73979" lon="-3.29536">
        <ele>34</ele>
        <time>2011-09-03T13:50:57Z</time>
      </trkpt>
      <trkpt lat="47.73988" lon="-3.29544">
        <ele>34</ele>
        <time>2011-09-03T13:51:00Z</time>
      </trkpt>
      <trkpt lat="47.74004" lon="-3.29548">
        <ele>35</ele>
        <time>2011-09-03T13:51:04Z</time>
      </trkpt>
      <trkpt lat="47.74016" lon="-3.29547">
        <ele>35</ele>
        <time>2011-09-03T13:51:07Z</time>
      </trkpt>
      <trkpt lat="47.74054" lon="-3.29542">
        <ele>36</ele>
        <time>2011-09-03T13:51:16Z</time>
      </trkpt>
      <trkpt lat="47.74084" lon="-3.29534">
        <ele>37</ele>
        <time>2011-09-03T13:51:24Z</time>
      </trkpt>
      <trkpt lat="47.74126" lon="-3.29529">
        <ele>37</ele>
        <time>2011-09-03T13:51:35Z</time>
      </trkpt>
      <trkpt lat="47.74173" lon="-3.29517">
        <ele>38</ele>
        <time>2011-09-03T13:51:46Z</time>
      </trkpt>
      <trkpt lat="47.74199" lon="-3.29515">
        <ele>38</ele>
        <time>2011-09-03T13:51:52Z</time>
      </trkpt>
      <trkpt lat="47.74211" lon="-3.29516">
        <ele>38</ele>
        <time>2011-09-03T13:51:55Z</time>
      </trkpt>
      <trkpt lat="47.7423" lon="-3.29521">
        <ele>38</ele>
        <time>2011-09-03T13:51:59Z</time>
      </trkpt>
      <trkpt lat="47.74243" lon="-3.29527">
        <ele>38</ele>
        <time>2011-09-03T13:52:02Z</time>
      </trkpt>
      <trkpt lat="47.74262" lon="-3.29533">
        <ele>38</ele>
        <time>2011-09-03T13:52:06Z</time>
      </trkpt>
      <trkpt lat="47.74302" lon="-3.29553">
        <ele>38</ele>
        <time>2011-09-03T13:52:16Z</time>
      </trkpt>
      <trkpt lat="47.74354" lon="-3.29571">
        <ele>38</ele>
        <time>2011-09-03T13:52:27Z</time>
      </trkpt>
      <trkpt lat="47.74375" lon="-3.29576">
        <ele>38</ele>
        <time>2011-09-03T13:52:32Z</time>
      </trkpt>
      <trkpt lat="47.74403" lon="-3.29579">
        <ele>38</ele>
        <time>2011-09-03T13:52:38Z</time>
      </trkpt>
      <trkpt lat="47.74447" lon="-3.29578">
        <ele>37</ele>
        <time>2011-09-03T13:52:47Z</time>
      </trkpt>
      <trkpt lat="47.74463" lon="-3.29575">
        <ele>36</ele>
        <time>2011-09-03T13:52:50Z</time>
      </trkpt>
      <trkpt lat="47.74494" lon="-3.29563">
        <ele>36</ele>
        <time>2011-09-03T13:52:56Z</time>
      </trkpt>
      <trkpt lat="47.74505" lon="-3.29562">
        <ele>34</ele>
        <time>2011-09-03T13:52:58Z</time>
      </trkpt>
      <trkpt lat="47.74518" lon="-3.29565">
        <ele>34</ele>
        <time>2011-09-03T13:53:00Z</time>
      </trkpt>
      <trkpt lat="47.74531" lon="-3.29571">
        <ele>34</ele>
        <time>2011-09-03T13:53:02Z</time>
      </trkpt>
      <trkpt lat="47.74666" lon="-3.29661">
        <ele>27</ele>
        <time>2011-09-03T13:53:19Z</time>
      </trkpt>
      <trkpt lat="47.74675" lon="-3.29666">
        <ele>27</ele>
        <time>2011-09-03T13:53:20Z</time>
      </trkpt>
      <trkpt lat="47.74684" lon="-3.29667">
        <ele>25</ele>
        <time>2011-09-03T13:53:21Z</time>
      </trkpt>
      <trkpt lat="47.74692" lon="-3.29665">
        <ele>27</ele>
        <time>2011-09-03T13:53:22Z</time>
      </trkpt>
      <trkpt lat="47.74705" lon="-3.29653">
        <ele>28</ele>
        <time>2011-09-03T13:53:24Z</time>
      </trkpt>
      <trkpt lat="47.74719" lon="-3.29632">
        <ele>28</ele>
        <time>2011-09-03T13:53:27Z</time>
      </trkpt>
      <trkpt lat="47.74737" lon="-3.2959">
        <ele>29</ele>
        <time>2011-09-03T13:53:34Z</time>
      </trkpt>
      <trkpt lat="47.74762" lon="-3.29527">
        <ele>33</ele>
        <time>2011-09-03T13:53:44Z</time>
      </trkpt>
      <trkpt lat="47.74784" lon="-3.2948">
        <ele>33</ele>
        <time>2011-09-03T13:53:52Z</time>
      </trkpt>
      <trkpt lat="47.74823" lon="-3.29382">
        <ele>33</ele>
        <time>2011-09-03T13:54:08Z</time>
      </trkpt>
      <trkpt lat="47.74849" lon="-3.29329">
        <ele>33</ele>
        <time>2011-09-03T13:54:17Z</time>
      </trkpt>
      <trkpt lat="47.74862" lon="-3.29307">
        <ele>33</ele>
        <time>2011-09-03T13:54:21Z</time>
      </trkpt>
      <trkpt lat="47.74876" lon="-3.29289">
        <ele>34</ele>
        <time>2011-09-03T13:54:25Z</time>
      </trkpt>
      <trkpt lat="47.74894" lon="-3.29275">
        <ele>34</ele>
        <time>2011-09-03T13:54:29Z</time>
      </trkpt>
      <trkpt lat="47.74908" lon="-3.29268">
        <ele>35</ele>
        <time>2011-09-03T13:54:32Z</time>
      </trkpt>
      <trkpt lat="47.74938" lon="-3.29258">
        <ele>36</ele>
        <time>2011-09-03T13:54:38Z</time>
      </trkpt>
      <trkpt lat="47.74952" lon="-3.29251">
        <ele>36</ele>
        <time>2011-09-03T13:54:41Z</time>
      </trkpt>
      <trkpt lat="47.74961" lon="-3.29245">
        <ele>38</ele>
        <time>2011-09-03T13:54:43Z</time>
      </trkpt>
      <trkpt lat="47.74974" lon="-3.29233">
        <ele>38</ele>
        <time>2011-09-03T13:54:46Z</time>
      </trkpt>
      <trkpt lat="47.75005" lon="-3.29197">
        <ele>39</ele>
        <time>2011-09-03T13:54:54Z</time>
      </trkpt>
      <trkpt lat="47.75016" lon="-3.29181">
        <ele>39</ele>
        <time>2011-09-03T13:54:57Z</time>
      </trkpt>
      <trkpt lat="47.75043" lon="-3.29122">
        <ele>40</ele>
        <time>2011-09-03T13:55:06Z</time>
      </trkpt>
      <trkpt lat="47.75065" lon="-3.29058">
        <ele>39</ele>
        <time>2011-09-03T13:55:16Z</time>
      </trkpt>
      <trkpt lat="47.75087" lon="-3.29029">
        <ele>36</ele>
        <time>2011-09-03T13:55:22Z</time>
      </trkpt>
      <trkpt lat="47.75095" lon="-3.29012">
        <ele>36</ele>
        <time>2011-09-03T13:55:25Z</time>
      </trkpt>
      <trkpt lat="47.75105" lon="-3.28997">
        <ele>35</ele>
        <time>2011-09-03T13:55:28Z</time>
      </trkpt>
      <trkpt lat="47.75128" lon="-3.28974">
        <ele>35</ele>
        <time>2011-09-03T13:55:34Z</time>
      </trkpt>
      <trkpt lat="47.75136" lon="-3.28967">
        <ele>35</ele>
        <time>2011-09-03T13:55:36Z</time>
      </trkpt>
      <trkpt lat="47.75141" lon="-3.28965">
        <ele>35</ele>
        <time>2011-09-03T13:55:37Z</time>
      </trkpt>
      <trkpt lat="47.75145" lon="-3.28966">
        <ele>35</ele>
        <time>2011-09-03T13:55:38Z</time>
      </trkpt>
      <trkpt lat="47.75148" lon="-3.2897">
        <ele>35</ele>
        <time>2011-09-03T13:55:39Z</time>
      </trkpt>
      <trkpt lat="47.7515" lon="-3.28976">
        <ele>35</ele>
        <time>2011-09-03T13:55:40Z</time>
      </trkpt>
      <trkpt lat="47.75152" lon="-3.2899">
        <ele>35</ele>
        <time>2011-09-03T13:55:42Z</time>
      </trkpt>
      <trkpt lat="47.75151" lon="-3.29019">
        <ele>35</ele>
        <time>2011-09-03T13:55:46Z</time>
      </trkpt>
      <trkpt lat="47.75156" lon="-3.29043">
        <ele>36</ele>
        <time>2011-09-03T13:55:49Z</time>
      </trkpt>
      <trkpt lat="47.7518" lon="-3.29101">
        <ele>35</ele>
        <time>2011-09-03T13:55:57Z</time>
      </trkpt>
      <trkpt lat="47.75186" lon="-3.2914">
        <ele>34</ele>
        <time>2011-09-03T13:56:02Z</time>
      </trkpt>
      <trkpt lat="47.75191" lon="-3.2919">
        <ele>33</ele>
        <time>2011-09-03T13:56:09Z</time>
      </trkpt>
      <trkpt lat="47.75192" lon="-3.29196">
        <ele>33</ele>
        <time>2011-09-03T13:56:10Z</time>
      </trkpt>
      <trkpt lat="47.75195" lon="-3.292">
        <ele>33</ele>
        <time>2011-09-03T13:56:11Z</time>
      </trkpt>
      <trkpt lat="47.75207" lon="-3.29211">
        <ele>33</ele>
        <time>2011-09-03T13:56:14Z</time>
      </trkpt>
      <trkpt lat="47.75213" lon="-3.29222">
        <ele>33</ele>
        <time>2011-09-03T13:56:16Z</time>
      </trkpt>
      <trkpt lat="47.75219" lon="-3.29295">
        <ele>33</ele>
        <time>2011-09-03T13:56:26Z</time>
      </trkpt>
      <trkpt lat="47.75222" lon="-3.29348">
        <ele>33</ele>
        <time>2011-09-03T13:56:34Z</time>
      </trkpt>
      <trkpt lat="47.75222" lon="-3.29371">
        <ele>33</ele>
        <time>2011-09-03T13:56:38Z</time>
      </trkpt>
      <trkpt lat="47.75224" lon="-3.29382">
        <ele>32</ele>
        <time>2011-09-03T13:56:40Z</time>
      </trkpt>
      <trkpt lat="47.75225" lon="-3.29388">
        <ele>32</ele>
        <time>2011-09-03T13:56:41Z</time>
      </trkpt>
      <trkpt lat="47.75231" lon="-3.29397">
        <ele>32</ele>
        <time>2011-09-03T13:56:43Z</time>
      </trkpt>
      <trkpt lat="47.75264" lon="-3.29434">
        <ele>31</ele>
        <time>2011-09-03T13:56:51Z</time>
      </trkpt>
      <trkpt lat="47.75268" lon="-3.29441">
        <ele>30</ele>
        <time>2011-09-03T13:56:52Z</time>
      </trkpt>
      <trkpt lat="47.75272" lon="-3.29456">
        <ele>30</ele>
        <time>2011-09-03T13:56:54Z</time>
      </trkpt>
      <trkpt lat="47.75274" lon="-3.29482">
        <ele>30</ele>
        <time>2011-09-03T13:56:57Z</time>
      </trkpt>
      <trkpt lat="47.75277" lon="-3.29559">
        <ele>29</ele>
        <time>2011-09-03T13:57:05Z</time>
      </trkpt>
      <trkpt lat="47.75282" lon="-3.29587">
        <ele>29</ele>
        <time>2011-09-03T13:57:08Z</time>
      </trkpt>
      <trkpt lat="47.75289" lon="-3.29601">
        <ele>29</ele>
        <time>2011-09-03T13:57:11Z</time>
      </trkpt>
      <trkpt lat="47.75291" lon="-3.29603">
        <ele>29</ele>
        <time>2011-09-03T13:57:12Z</time>
      </trkpt>
      <trkpt lat="47.75297" lon="-3.29604">
        <ele>29</ele>
        <time>2011-09-03T13:57:14Z</time>
      </trkpt>
      <trkpt lat="47.75307" lon="-3.29602">
        <ele>28</ele>
        <time>2011-09-03T13:57:17Z</time>
      </trkpt>
      <trkpt lat="47.75332" lon="-3.2959">
        <ele>27</ele>
        <time>2011-09-03T13:57:24Z</time>
      </trkpt>
      <trkpt lat="47.75352" lon="-3.29583">
        <ele>27</ele>
        <time>2011-09-03T13:57:30Z</time>
      </trkpt>
      <trkpt lat="47.75374" lon="-3.29578">
        <ele>28</ele>
        <time>2011-09-03T13:57:36Z</time>
      </trkpt>
      <trkpt lat="47.75387" lon="-3.29577">
        <ele>28</ele>
        <time>2011-09-03T13:57:39Z</time>
      </trkpt>
      <trkpt lat="47.75433" lon="-3.29584">
        <ele>27</ele>
        <time>2011-09-03T13:57:52Z</time>
      </trkpt>
      <trkpt lat="47.7548" lon="-3.29597">
        <ele>27</ele>
        <time>2011-09-03T13:58:04Z</time>
      </trkpt>
      <trkpt lat="47.75527" lon="-3.29606">
        <ele>27</ele>
        <time>2011-09-03T13:58:16Z</time>
      </trkpt>
      <trkpt lat="47.75551" lon="-3.29613">
        <ele>27</ele>
        <time>2011-09-03T13:58:22Z</time>
      </trkpt>
      <trkpt lat="47.75588" lon="-3.29619">
        <ele>27</ele>
        <time>2011-09-03T13:58:32Z</time>
      </trkpt>
      <trkpt lat="47.75602" lon="-3.29617">
        <ele>27</ele>
        <time>2011-09-03T13:58:36Z</time>
      </trkpt>
      <trkpt lat="47.75639" lon="-3.29605">
        <ele>27</ele>
        <time>2011-09-03T13:58:46Z</time>
      </trkpt>
      <trkpt lat="47.75692" lon="-3.29592">
        <ele>29</ele>
        <time>2011-09-03T13:59:00Z</time>
      </trkpt>
      <trkpt lat="47.75738" lon="-3.29582">
        <ele>31</ele>
        <time>2011-09-03T13:59:13Z</time>
      </trkpt>
      <trkpt lat="47.7577" lon="-3.29574">
        <ele>31</ele>
        <time>2011-09-03T13:59:22Z</time>
      </trkpt>
      <trkpt lat="47.75788" lon="-3.29571">
        <ele>31</ele>
        <time>2011-09-03T13:59:26Z</time>
      </trkpt>
      <trkpt lat="47.75809" lon="-3.29568">
        <ele>31</ele>
        <time>2011-09-03T13:59:31Z</time>
      </trkpt>
      <trkpt lat="47.75891" lon="-3.2957">
        <ele>29</ele>
        <time>2011-09-03T13:59:48Z</time>
      </trkpt>
      <trkpt lat="47.75913" lon="-3.29572">
        <ele>29</ele>
        <time>2011-09-03T13:59:53Z</time>
      </trkpt>
      <trkpt lat="47.75941" lon="-3.29579">
        <ele>29</ele>
        <time>2011-09-03T13:59:59Z</time>
      </trkpt>
      <trkpt lat="47.75946" lon="-3.29578">
        <ele>29</ele>
        <time>2011-09-03T14:00:00Z</time>
      </trkpt>
      <trkpt lat="47.75956" lon="-3.29572">
        <ele>28</ele>
        <time>2011-09-03T14:00:02Z</time>
      </trkpt>
      <trkpt lat="47.75963" lon="-3.29561">
        <ele>28</ele>
        <time>2011-09-03T14:00:04Z</time>
      </trkpt>
      <trkpt lat="47.75975" lon="-3.29534">
        <ele>28</ele>
        <time>2011-09-03T14:00:08Z</time>
      </trkpt>
      <trkpt lat="47.75984" lon="-3.29522">
        <ele>28</ele>
        <time>2011-09-03T14:00:10Z</time>
      </trkpt>
      <trkpt lat="47.7599" lon="-3.29518">
        <ele>28</ele>
        <time>2011-09-03T14:00:11Z</time>
      </trkpt>
      <trkpt lat="47.7602" lon="-3.29504">
        <ele>28</ele>
        <time>2011-09-03T14:00:16Z</time>
      </trkpt>
      <trkpt lat="47.76097" lon="-3.29472">
        <ele>30</ele>
        <time>2011-09-03T14:00:28Z</time>
      </trkpt>
      <trkpt lat="47.76125" lon="-3.29465">
        <ele>30</ele>
        <time>2011-09-03T14:00:32Z</time>
      </trkpt>
      <trkpt lat="47.7614" lon="-3.29465">
        <ele>30</ele>
        <time>2011-09-03T14:00:34Z</time>
      </trkpt>
      <trkpt lat="47.76148" lon="-3.29467">
        <ele>30</ele>
        <time>2011-09-03T14:00:35Z</time>
      </trkpt>
      <trkpt lat="47.76165" lon="-3.29472">
        <ele>29</ele>
        <time>2011-09-03T14:00:37Z</time>
      </trkpt>
      <trkpt lat="47.76208" lon="-3.29503">
        <ele>25</ele>
        <time>2011-09-03T14:00:43Z</time>
      </trkpt>
      <trkpt lat="47.7623" lon="-3.29514">
        <ele>25</ele>
        <time>2011-09-03T14:00:46Z</time>
      </trkpt>
      <trkpt lat="47.76254" lon="-3.2952">
        <ele>24</ele>
        <time>2011-09-03T14:00:50Z</time>
      </trkpt>
      <trkpt lat="47.7626" lon="-3.29518">
        <ele>25</ele>
        <time>2011-09-03T14:00:51Z</time>
      </trkpt>
      <trkpt lat="47.76265" lon="-3.29518">
        <ele>24</ele>
        <time>2011-09-03T14:00:52Z</time>
      </trkpt>
      <trkpt lat="47.76295" lon="-3.2952">
        <ele>24</ele>
        <time>2011-09-03T14:00:59Z</time>
      </trkpt>
      <trkpt lat="47.76315" lon="-3.29521">
        <ele>24</ele>
        <time>2011-09-03T14:01:03Z</time>
      </trkpt>
      <trkpt lat="47.76361" lon="-3.29519">
        <ele>24</ele>
        <time>2011-09-03T14:01:12Z</time>
      </trkpt>
      <trkpt lat="47.76389" lon="-3.29521">
        <ele>24</ele>
        <time>2011-09-03T14:01:17Z</time>
      </trkpt>
      <trkpt lat="47.76412" lon="-3.29525">
        <ele>24</ele>
        <time>2011-09-03T14:01:21Z</time>
      </trkpt>
      <trkpt lat="47.76428" lon="-3.29529">
        <ele>24</ele>
        <time>2011-09-03T14:01:24Z</time>
      </trkpt>
      <trkpt lat="47.76462" lon="-3.29543">
        <ele>24</ele>
        <time>2011-09-03T14:01:31Z</time>
      </trkpt>
      <trkpt lat="47.76479" lon="-3.29548">
        <ele>24</ele>
        <time>2011-09-03T14:01:35Z</time>
      </trkpt>
      <trkpt lat="47.76484" lon="-3.29556">
        <ele>24</ele>
        <time>2011-09-03T14:01:37Z</time>
      </trkpt>
      <trkpt lat="47.76485" lon="-3.29561">
        <ele>24</ele>
        <time>2011-09-03T14:01:38Z</time>
      </trkpt>
      <trkpt lat="47.76486" lon="-3.29567">
        <ele>24</ele>
        <time>2011-09-03T14:01:39Z</time>
      </trkpt>
      <trkpt lat="47.76484" lon="-3.29578">
        <ele>24</ele>
        <time>2011-09-03T14:01:41Z</time>
      </trkpt>
      <trkpt lat="47.76477" lon="-3.29597">
        <ele>24</ele>
        <time>2011-09-03T14:01:44Z</time>
      </trkpt>
      <trkpt lat="47.76462" lon="-3.29623">
        <ele>25</ele>
        <time>2011-09-03T14:01:49Z</time>
      </trkpt>
      <trkpt lat="47.7642" lon="-3.29706">
        <ele>29</ele>
        <time>2011-09-03T14:02:03Z</time>
      </trkpt>
      <trkpt lat="47.76401" lon="-3.29737">
        <ele>28</ele>
        <time>2011-09-03T14:02:09Z</time>
      </trkpt>
      <trkpt lat="47.76387" lon="-3.29757">
        <ele>30</ele>
        <time>2011-09-03T14:02:14Z</time>
      </trkpt>
      <trkpt lat="47.76363" lon="-3.29802">
        <ele>29</ele>
        <time>2011-09-03T14:02:25Z</time>
      </trkpt>
      <trkpt lat="47.76356" lon="-3.29818">
        <ele>28</ele>
        <time>2011-09-03T14:02:31Z</time>
      </trkpt>
      <trkpt lat="47.76356" lon="-3.29824">
        <ele>28</ele>
        <time>2011-09-03T14:02:32Z</time>
      </trkpt>
      <trkpt lat="47.76363" lon="-3.29855">
        <ele>28</ele>
        <time>2011-09-03T14:02:37Z</time>
      </trkpt>
      <trkpt lat="47.76391" lon="-3.29932">
        <ele>26</ele>
        <time>2011-09-03T14:02:52Z</time>
      </trkpt>
      <trkpt lat="47.76427" lon="-3.30018">
        <ele>19</ele>
        <time>2011-09-03T14:03:32Z</time>
      </trkpt>
      <trkpt lat="47.76528" lon="-3.30277">
        <ele>19</ele>
        <time>2011-09-03T14:05:36Z</time>
      </trkpt>
      <trkpt lat="47.76562" lon="-3.30375">
        <ele>19</ele>
        <time>2011-09-03T14:06:20Z</time>
      </trkpt>
      <trkpt lat="47.76588" lon="-3.30457">
        <ele>29</ele>
        <time>2011-09-03T14:06:48Z</time>
      </trkpt>
      <trkpt lat="47.76618" lon="-3.3058">
        <ele>31</ele>
        <time>2011-09-03T14:07:08Z</time>
      </trkpt>
      <trkpt lat="47.76626" lon="-3.30621">
        <ele>28</ele>
        <time>2011-09-03T14:07:15Z</time>
      </trkpt>
      <trkpt lat="47.76627" lon="-3.30632">
        <ele>28</ele>
        <time>2011-09-03T14:07:17Z</time>
      </trkpt>
      <trkpt lat="47.76621" lon="-3.30659">
        <ele>27</ele>
        <time>2011-09-03T14:07:22Z</time>
      </trkpt>
      <trkpt lat="47.7662" lon="-3.30672">
        <ele>25</ele>
        <time>2011-09-03T14:07:24Z</time>
      </trkpt>
      <trkpt lat="47.76621" lon="-3.30713">
        <ele>25</ele>
        <time>2011-09-03T14:07:29Z</time>
      </trkpt>
      <trkpt lat="47.76628" lon="-3.30799">
        <ele>24</ele>
        <time>2011-09-03T14:07:39Z</time>
      </trkpt>
      <trkpt lat="47.76646" lon="-3.30907">
        <ele>25</ele>
        <time>2011-09-03T14:07:54Z</time>
      </trkpt>
      <trkpt lat="47.76647" lon="-3.30928">
        <ele>26</ele>
        <time>2011-09-03T14:07:57Z</time>
      </trkpt>
      <trkpt lat="47.76643" lon="-3.3095">
        <ele>26</ele>
        <time>2011-09-03T14:08:00Z</time>
      </trkpt>
      <trkpt lat="47.7663" lon="-3.30976">
        <ele>26</ele>
        <time>2011-09-03T14:08:04Z</time>
      </trkpt>
      <trkpt lat="47.7662" lon="-3.30996">
        <ele>26</ele>
        <time>2011-09-03T14:08:07Z</time>
      </trkpt>
      <trkpt lat="47.7659" lon="-3.31042">
        <ele>26</ele>
        <time>2011-09-03T14:08:15Z</time>
      </trkpt>
      <trkpt lat="47.76537" lon="-3.31114">
        <ele>26</ele>
        <time>2011-09-03T14:08:29Z</time>
      </trkpt>
      <trkpt lat="47.76506" lon="-3.31157">
        <ele>27</ele>
        <time>2011-09-03T14:08:37Z</time>
      </trkpt>
      <trkpt lat="47.76496" lon="-3.31174">
        <ele>26</ele>
        <time>2011-09-03T14:08:40Z</time>
      </trkpt>
      <trkpt lat="47.76484" lon="-3.31198">
        <ele>25</ele>
        <time>2011-09-03T14:08:44Z</time>
      </trkpt>
      <trkpt lat="47.76463" lon="-3.31248">
        <ele>25</ele>
        <time>2011-09-03T14:08:53Z</time>
      </trkpt>
      <trkpt lat="47.76433" lon="-3.31324">
        <ele>27</ele>
        <time>2011-09-03T14:09:09Z</time>
      </trkpt>
      <trkpt lat="47.76426" lon="-3.31349">
        <ele>28</ele>
        <time>2011-09-03T14:09:14Z</time>
      </trkpt>
      <trkpt lat="47.76419" lon="-3.31384">
        <ele>29</ele>
        <time>2011-09-03T14:09:21Z</time>
      </trkpt>
      <trkpt lat="47.76406" lon="-3.31462">
        <ele>32</ele>
        <time>2011-09-03T14:09:36Z</time>
      </trkpt>
      <trkpt lat="47.76403" lon="-3.31499">
        <ele>32</ele>
        <time>2011-09-03T14:09:43Z</time>
      </trkpt>
      <trkpt lat="47.76399" lon="-3.31507">
        <ele>33</ele>
        <time>2011-09-03T14:09:45Z</time>
      </trkpt>
      <trkpt lat="47.76391" lon="-3.31516">
        <ele>33</ele>
        <time>2011-09-03T14:09:48Z</time>
      </trkpt>
      <trkpt lat="47.76384" lon="-3.3153">
        <ele>33</ele>
        <time>2011-09-03T14:09:51Z</time>
      </trkpt>
      <trkpt lat="47.76368" lon="-3.31576">
        <ele>33</ele>
        <time>2011-09-03T14:10:01Z</time>
      </trkpt>
      <trkpt lat="47.76356" lon="-3.31621">
        <ele>33</ele>
        <time>2011-09-03T14:10:10Z</time>
      </trkpt>
      <trkpt lat="47.76346" lon="-3.31693">
        <ele>33</ele>
        <time>2011-09-03T14:10:23Z</time>
      </trkpt>
      <trkpt lat="47.76327" lon="-3.31862">
        <ele>29</ele>
        <time>2011-09-03T14:10:48Z</time>
      </trkpt>
      <trkpt lat="47.7632" lon="-3.31905">
        <ele>28</ele>
        <time>2011-09-03T14:10:53Z</time>
      </trkpt>
      <trkpt lat="47.76297" lon="-3.31975">
        <ele>27</ele>
        <time>2011-09-03T14:11:01Z</time>
      </trkpt>
      <trkpt lat="47.76268" lon="-3.32059">
        <ele>23</ele>
        <time>2011-09-03T14:11:10Z</time>
      </trkpt>
      <trkpt lat="47.76264" lon="-3.32067">
        <ele>23</ele>
        <time>2011-09-03T14:11:11Z</time>
      </trkpt>
      <trkpt lat="47.76247" lon="-3.32087">
        <ele>22</ele>
        <time>2011-09-03T14:11:14Z</time>
      </trkpt>
      <trkpt lat="47.76228" lon="-3.32099">
        <ele>19</ele>
        <time>2011-09-03T14:11:17Z</time>
      </trkpt>
      <trkpt lat="47.76214" lon="-3.32101">
        <ele>19</ele>
        <time>2011-09-03T14:11:19Z</time>
      </trkpt>
      <trkpt lat="47.76201" lon="-3.321">
        <ele>18</ele>
        <time>2011-09-03T14:11:21Z</time>
      </trkpt>
      <trkpt lat="47.76136" lon="-3.32085">
        <ele>16</ele>
        <time>2011-09-03T14:11:31Z</time>
      </trkpt>
      <trkpt lat="47.76117" lon="-3.32083">
        <ele>18</ele>
        <time>2011-09-03T14:11:34Z</time>
      </trkpt>
      <trkpt lat="47.76111" lon="-3.32085">
        <ele>15</ele>
        <time>2011-09-03T14:11:35Z</time>
      </trkpt>
      <trkpt lat="47.76105" lon="-3.3209">
        <ele>14</ele>
        <time>2011-09-03T14:11:36Z</time>
      </trkpt>
      <trkpt lat="47.76088" lon="-3.32107">
        <ele>14</ele>
        <time>2011-09-03T14:11:39Z</time>
      </trkpt>
      <trkpt lat="47.7608" lon="-3.32125">
        <ele>12</ele>
        <time>2011-09-03T14:11:41Z</time>
      </trkpt>
      <trkpt lat="47.76077" lon="-3.32145">
        <ele>11</ele>
        <time>2011-09-03T14:11:43Z</time>
      </trkpt>
      <trkpt lat="47.76076" lon="-3.32255">
        <ele>8</ele>
        <time>2011-09-03T14:11:53Z</time>
      </trkpt>
      <trkpt lat="47.76075" lon="-3.32266">
        <ele>8</ele>
        <time>2011-09-03T14:11:54Z</time>
      </trkpt>
      <trkpt lat="47.76069" lon="-3.32287">
        <ele>7</ele>
        <time>2011-09-03T14:11:56Z</time>
      </trkpt>
      <trkpt lat="47.76065" lon="-3.32296">
        <ele>7</ele>
        <time>2011-09-03T14:11:57Z</time>
      </trkpt>
      <trkpt lat="47.75987" lon="-3.32438">
        <ele>5</ele>
        <time>2011-09-03T14:12:15Z</time>
      </trkpt>
      <trkpt lat="47.75978" lon="-3.32462">
        <ele>5</ele>
        <time>2011-09-03T14:12:18Z</time>
      </trkpt>
      <trkpt lat="47.75954" lon="-3.3255">
        <ele>4</ele>
        <time>2011-09-03T14:12:31Z</time>
      </trkpt>
      <trkpt lat="47.75947" lon="-3.32633">
        <ele>4</ele>
        <time>2011-09-03T14:12:43Z</time>
      </trkpt>
      <trkpt lat="47.75949" lon="-3.32658">
        <ele>4</ele>
        <time>2011-09-03T14:12:47Z</time>
      </trkpt>
      <trkpt lat="47.75938" lon="-3.32708">
        <ele>4</ele>
        <time>2011-09-03T14:12:56Z</time>
      </trkpt>
      <trkpt lat="47.75933" lon="-3.32741">
        <ele>4</ele>
        <time>2011-09-03T14:13:02Z</time>
      </trkpt>
      <trkpt lat="47.75922" lon="-3.32902">
        <ele>7</ele>
        <time>2011-09-03T14:13:30Z</time>
      </trkpt>
      <trkpt lat="47.75921" lon="-3.32931">
        <ele>8</ele>
        <time>2011-09-03T14:13:35Z</time>
      </trkpt>
      <trkpt lat="47.75926" lon="-3.32966">
        <ele>7</ele>
        <time>2011-09-03T14:13:41Z</time>
      </trkpt>
      <trkpt lat="47.75933" lon="-3.32995">
        <ele>7</ele>
        <time>2011-09-03T14:13:46Z</time>
      </trkpt>
      <trkpt lat="47.75935" lon="-3.33">
        <ele>7</ele>
        <time>2011-09-03T14:13:47Z</time>
      </trkpt>
      <trkpt lat="47.75958" lon="-3.33031">
        <ele>6</ele>
        <time>2011-09-03T14:13:54Z</time>
      </trkpt>
      <trkpt lat="47.75965" lon="-3.33042">
        <ele>6</ele>
        <time>2011-09-03T14:13:56Z</time>
      </trkpt>
      <trkpt lat="47.75968" lon="-3.33048">
        <ele>6</ele>
        <time>2011-09-03T14:13:57Z</time>
      </trkpt>
      <trkpt lat="47.75977" lon="-3.33083">
        <ele>7</ele>
        <time>2011-09-03T14:14:04Z</time>
      </trkpt>
      <trkpt lat="47.75978" lon="-3.331">
        <ele>7</ele>
        <time>2011-09-03T14:14:07Z</time>
      </trkpt>
      <trkpt lat="47.75976" lon="-3.33112">
        <ele>8</ele>
        <time>2011-09-03T14:14:09Z</time>
      </trkpt>
      <trkpt lat="47.75983" lon="-3.33158">
        <ele>8</ele>
        <time>2011-09-03T14:14:18Z</time>
      </trkpt>
      <trkpt lat="47.75983" lon="-3.33197">
        <ele>11</ele>
        <time>2011-09-03T14:14:26Z</time>
      </trkpt>
      <trkpt lat="47.7598" lon="-3.33228">
        <ele>11</ele>
        <time>2011-09-03T14:14:32Z</time>
      </trkpt>
      <trkpt lat="47.75962" lon="-3.33306">
        <ele>15</ele>
        <time>2011-09-03T14:14:49Z</time>
      </trkpt>
      <trkpt lat="47.75947" lon="-3.33358">
        <ele>16</ele>
        <time>2011-09-03T14:15:00Z</time>
      </trkpt>
      <trkpt lat="47.75927" lon="-3.33409">
        <ele>16</ele>
        <time>2011-09-03T14:15:11Z</time>
      </trkpt>
      <trkpt lat="47.75917" lon="-3.33439">
        <ele>17</ele>
        <time>2011-09-03T14:15:17Z</time>
      </trkpt>
      <trkpt lat="47.75909" lon="-3.33469">
        <ele>17</ele>
        <time>2011-09-03T14:15:23Z</time>
      </trkpt>
      <trkpt lat="47.75905" lon="-3.33499">
        <ele>17</ele>
        <time>2011-09-03T14:15:29Z</time>
      </trkpt>
      <trkpt lat="47.75898" lon="-3.33612">
        <ele>17</ele>
        <time>2011-09-03T14:15:50Z</time>
      </trkpt>
      <trkpt lat="47.75894" lon="-3.33713">
        <ele>18</ele>
        <time>2011-09-03T14:16:08Z</time>
      </trkpt>
      <trkpt lat="47.75897" lon="-3.33729">
        <ele>18</ele>
        <time>2011-09-03T14:16:11Z</time>
      </trkpt>
      <trkpt lat="47.75901" lon="-3.33743">
        <ele>18</ele>
        <time>2011-09-03T14:16:14Z</time>
      </trkpt>
      <trkpt lat="47.75906" lon="-3.33756">
        <ele>18</ele>
        <time>2011-09-03T14:16:17Z</time>
      </trkpt>
      <trkpt lat="47.75916" lon="-3.3377">
        <ele>19</ele>
        <time>2011-09-03T14:16:21Z</time>
      </trkpt>
      <trkpt lat="47.75919" lon="-3.33784">
        <ele>19</ele>
        <time>2011-09-03T14:16:24Z</time>
      </trkpt>
      <trkpt lat="47.75914" lon="-3.33807">
        <ele>20</ele>
        <time>2011-09-03T14:16:29Z</time>
      </trkpt>
      <trkpt lat="47.75898" lon="-3.33842">
        <ele>22</ele>
        <time>2011-09-03T14:16:37Z</time>
      </trkpt>
      <trkpt lat="47.75893" lon="-3.3385">
        <ele>22</ele>
        <time>2011-09-03T14:16:39Z</time>
      </trkpt>
      <trkpt lat="47.75878" lon="-3.33868">
        <ele>23</ele>
        <time>2011-09-03T14:16:44Z</time>
      </trkpt>
      <trkpt lat="47.75838" lon="-3.33936">
        <ele>25</ele>
        <time>2011-09-03T14:17:00Z</time>
      </trkpt>
      <trkpt lat="47.75826" lon="-3.33964">
        <ele>25</ele>
        <time>2011-09-03T14:17:07Z</time>
      </trkpt>
      <trkpt lat="47.7579" lon="-3.34023">
        <ele>24</ele>
        <time>2011-09-03T14:17:25Z</time>
      </trkpt>
      <trkpt lat="47.75757" lon="-3.34085">
        <ele>24</ele>
        <time>2011-09-03T14:17:41Z</time>
      </trkpt>
      <trkpt lat="47.75749" lon="-3.34105">
        <ele>24</ele>
        <time>2011-09-03T14:17:45Z</time>
      </trkpt>
      <trkpt lat="47.7573" lon="-3.34168">
        <ele>22</ele>
        <time>2011-09-03T14:17:57Z</time>
      </trkpt>
      <trkpt lat="47.75722" lon="-3.34211">
        <ele>22</ele>
        <time>2011-09-03T14:18:04Z</time>
      </trkpt>
      <trkpt lat="47.7571" lon="-3.34312">
        <ele>19</ele>
        <time>2011-09-03T14:18:20Z</time>
      </trkpt>
      <trkpt lat="47.75701" lon="-3.34415">
        <ele>15</ele>
        <time>2011-09-03T14:18:31Z</time>
      </trkpt>
      <trkpt lat="47.75695" lon="-3.34464">
        <ele>13</ele>
        <time>2011-09-03T14:18:36Z</time>
      </trkpt>
      <trkpt lat="47.75694" lon="-3.34483">
        <ele>13</ele>
        <time>2011-09-03T14:18:38Z</time>
      </trkpt>
      <trkpt lat="47.75695" lon="-3.34492">
        <ele>13</ele>
        <time>2011-09-03T14:18:39Z</time>
      </trkpt>
      <trkpt lat="47.75713" lon="-3.3459">
        <ele>9</ele>
        <time>2011-09-03T14:18:52Z</time>
      </trkpt>
      <trkpt lat="47.75722" lon="-3.34623">
        <ele>9</ele>
        <time>2011-09-03T14:18:58Z</time>
      </trkpt>
      <trkpt lat="47.75729" lon="-3.34635">
        <ele>9</ele>
        <time>2011-09-03T14:19:01Z</time>
      </trkpt>
      <trkpt lat="47.75726" lon="-3.34659">
        <ele>8</ele>
        <time>2011-09-03T14:19:05Z</time>
      </trkpt>
      <trkpt lat="47.75727" lon="-3.34673">
        <ele>7</ele>
        <time>2011-09-03T14:19:07Z</time>
      </trkpt>
      <trkpt lat="47.75729" lon="-3.3468">
        <ele>7</ele>
        <time>2011-09-03T14:19:08Z</time>
      </trkpt>
      <trkpt lat="47.75732" lon="-3.34687">
        <ele>7</ele>
        <time>2011-09-03T14:19:09Z</time>
      </trkpt>
      <trkpt lat="47.7574" lon="-3.347">
        <ele>6</ele>
        <time>2011-09-03T14:19:11Z</time>
      </trkpt>
      <trkpt lat="47.75765" lon="-3.34732">
        <ele>8</ele>
        <time>2011-09-03T14:19:18Z</time>
      </trkpt>
      <trkpt lat="47.75771" lon="-3.34743">
        <ele>8</ele>
        <time>2011-09-03T14:19:21Z</time>
      </trkpt>
      <trkpt lat="47.75777" lon="-3.34763">
        <ele>8</ele>
        <time>2011-09-03T14:19:25Z</time>
      </trkpt>
      <trkpt lat="47.7578" lon="-3.34779">
        <ele>9</ele>
        <time>2011-09-03T14:19:28Z</time>
      </trkpt>
      <trkpt lat="47.75777" lon="-3.34825">
        <ele>9</ele>
        <time>2011-09-03T14:19:36Z</time>
      </trkpt>
      <trkpt lat="47.75776" lon="-3.34929">
        <ele>8</ele>
        <time>2011-09-03T14:19:53Z</time>
      </trkpt>
      <trkpt lat="47.75775" lon="-3.34958">
        <ele>8</ele>
        <time>2011-09-03T14:19:58Z</time>
      </trkpt>
      <trkpt lat="47.75769" lon="-3.34989">
        <ele>8</ele>
        <time>2011-09-03T14:20:03Z</time>
      </trkpt>
      <trkpt lat="47.75739" lon="-3.35108">
        <ele>3</ele>
        <time>2011-09-03T14:20:19Z</time>
      </trkpt>
      <trkpt lat="47.75737" lon="-3.35123">
        <ele>3</ele>
        <time>2011-09-03T14:20:21Z</time>
      </trkpt>
      <trkpt lat="47.75742" lon="-3.35135">
        <ele>3</ele>
        <time>2011-09-03T14:20:23Z</time>
      </trkpt>
      <trkpt lat="47.75751" lon="-3.35143">
        <ele>4</ele>
        <time>2011-09-03T14:20:25Z</time>
      </trkpt>
      <trkpt lat="47.75761" lon="-3.35146">
        <ele>4</ele>
        <time>2011-09-03T14:20:27Z</time>
      </trkpt>
      <trkpt lat="47.75776" lon="-3.35146">
        <ele>3</ele>
        <time>2011-09-03T14:20:30Z</time>
      </trkpt>
      <trkpt lat="47.75785" lon="-3.35147">
        <ele>3</ele>
        <time>2011-09-03T14:20:32Z</time>
      </trkpt>
      <trkpt lat="47.75805" lon="-3.35156">
        <ele>3</ele>
        <time>2011-09-03T14:20:37Z</time>
      </trkpt>
      <trkpt lat="47.75812" lon="-3.35173">
        <ele>1</ele>
        <time>2011-09-03T14:20:41Z</time>
      </trkpt>
      <trkpt lat="47.75815" lon="-3.35176">
        <ele>1</ele>
        <time>2011-09-03T14:20:42Z</time>
      </trkpt>
      <trkpt lat="47.75832" lon="-3.35188">
        <ele>1</ele>
        <time>2011-09-03T14:20:46Z</time>
      </trkpt>
      <trkpt lat="47.75914" lon="-3.35261">
        <ele>1</ele>
        <time>2011-09-03T14:21:06Z</time>
      </trkpt>
      <trkpt lat="47.75916" lon="-3.35269">
        <ele>1</ele>
        <time>2011-09-03T14:21:08Z</time>
      </trkpt>
      <trkpt lat="47.75915" lon="-3.35273">
        <ele>1</ele>
        <time>2011-09-03T14:21:09Z</time>
      </trkpt>
      <trkpt lat="47.75908" lon="-3.35283">
        <ele>1</ele>
        <time>2011-09-03T14:21:12Z</time>
      </trkpt>
      <trkpt lat="47.75843" lon="-3.35363">
        <ele>2</ele>
        <time>2011-09-03T14:21:35Z</time>
      </trkpt>
      <trkpt lat="47.75746" lon="-3.35479">
        <ele>2.3</ele>
        <time>2011-09-03T14:22:06Z</time>
      </trkpt>
      <trkpt lat="47.7573" lon="-3.35496">
        <ele>4.7</ele>
        <time>2011-09-03T14:22:12Z</time>
      </trkpt>
      <trkpt lat="47.75726" lon="-3.35498">
        <ele>5.3</ele>
        <time>2011-09-03T14:22:13Z</time>
      </trkpt>
      <trkpt lat="47.75712" lon="-3.35497">
        <ele>5.5</ele>
        <time>2011-09-03T14:22:16Z</time>
      </trkpt>
      <trkpt lat="47.75665" lon="-3.35485">
        <ele>4</ele>
        <time>2011-09-03T14:22:24Z</time>
      </trkpt>
      <trkpt lat="47.75646" lon="-3.35483">
        <ele>3.5</ele>
        <time>2011-09-03T14:22:27Z</time>
      </trkpt>
      <trkpt lat="47.75616" lon="-3.35482">
        <ele>3.9</ele>
        <time>2011-09-03T14:22:32Z</time>
      </trkpt>
      <trkpt lat="47.75581" lon="-3.35478">
        <ele>5</ele>
        <time>2011-09-03T14:22:38Z</time>
      </trkpt>
      <trkpt lat="47.75566" lon="-3.35484">
        <ele>5</ele>
        <time>2011-09-03T14:22:41Z</time>
      </trkpt>
      <trkpt lat="47.75561" lon="-3.35483">
        <ele>5</ele>
        <time>2011-09-03T14:22:42Z</time>
      </trkpt>
      <trkpt lat="47.75523" lon="-3.3547">
        <ele>5</ele>
        <time>2011-09-03T14:22:50Z</time>
      </trkpt>
      <trkpt lat="47.75513" lon="-3.35468">
        <ele>5</ele>
        <time>2011-09-03T14:22:52Z</time>
      </trkpt>
      <trkpt lat="47.75504" lon="-3.35471">
        <ele>5</ele>
        <time>2011-09-03T14:22:54Z</time>
      </trkpt>
      <trkpt lat="47.75495" lon="-3.35479">
        <ele>4</ele>
        <time>2011-09-03T14:22:56Z</time>
      </trkpt>
      <trkpt lat="47.75489" lon="-3.3549">
        <ele>5</ele>
        <time>2011-09-03T14:22:58Z</time>
      </trkpt>
      <trkpt lat="47.75479" lon="-3.35524">
        <ele>6</ele>
        <time>2011-09-03T14:23:03Z</time>
      </trkpt>
      <trkpt lat="47.75444" lon="-3.35623">
        <ele>11</ele>
        <time>2011-09-03T14:23:19Z</time>
      </trkpt>
      <trkpt lat="47.75444" lon="-3.35629">
        <ele>11</ele>
        <time>2011-09-03T14:23:20Z</time>
      </trkpt>
      <trkpt lat="47.75446" lon="-3.35638">
        <ele>11</ele>
        <time>2011-09-03T14:23:22Z</time>
      </trkpt>
      <trkpt lat="47.75452" lon="-3.35651">
        <ele>11</ele>
        <time>2011-09-03T14:23:25Z</time>
      </trkpt>
      <trkpt lat="47.75453" lon="-3.35662">
        <ele>11</ele>
        <time>2011-09-03T14:23:27Z</time>
      </trkpt>
      <trkpt lat="47.75437" lon="-3.35718">
        <ele>13</ele>
        <time>2011-09-03T14:23:37Z</time>
      </trkpt>
      <trkpt lat="47.75437" lon="-3.35724">
        <ele>13</ele>
        <time>2011-09-03T14:23:38Z</time>
      </trkpt>
      <trkpt lat="47.75446" lon="-3.35733">
        <ele>13</ele>
        <time>2011-09-03T14:23:40Z</time>
      </trkpt>
      <trkpt lat="47.75449" lon="-3.35738">
        <ele>13</ele>
        <time>2011-09-03T14:23:41Z</time>
      </trkpt>
      <trkpt lat="47.75453" lon="-3.35751">
        <ele>13</ele>
        <time>2011-09-03T14:23:43Z</time>
      </trkpt>
      <trkpt lat="47.75437" lon="-3.35805">
        <ele>14</ele>
        <time>2011-09-03T14:23:51Z</time>
      </trkpt>
      <trkpt lat="47.75432" lon="-3.35818">
        <ele>14</ele>
        <time>2011-09-03T14:23:53Z</time>
      </trkpt>
      <trkpt lat="47.75419" lon="-3.35832">
        <ele>15</ele>
        <time>2011-09-03T14:23:56Z</time>
      </trkpt>
      <trkpt lat="47.75405" lon="-3.35843">
        <ele>13</ele>
        <time>2011-09-03T14:23:59Z</time>
      </trkpt>
      <trkpt lat="47.75387" lon="-3.35854">
        <ele>12</ele>
        <time>2011-09-03T14:24:03Z</time>
      </trkpt>
      <trkpt lat="47.75377" lon="-3.35857">
        <ele>11</ele>
        <time>2011-09-03T14:24:05Z</time>
      </trkpt>
      <trkpt lat="47.75367" lon="-3.35854">
        <ele>11</ele>
        <time>2011-09-03T14:24:07Z</time>
      </trkpt>
      <trkpt lat="47.75344" lon="-3.35835">
        <ele>10</ele>
        <time>2011-09-03T14:24:13Z</time>
      </trkpt>
      <trkpt lat="47.75341" lon="-3.35834">
        <ele>10</ele>
        <time>2011-09-03T14:24:14Z</time>
      </trkpt>
      <trkpt lat="47.75338" lon="-3.35839">
        <ele>10</ele>
        <time>2011-09-03T14:24:17Z</time>
      </trkpt>
      <trkpt lat="47.75337" lon="-3.35846">
        <ele>10</ele>
        <time>2011-09-03T14:24:20Z</time>
      </trkpt>
      <trkpt lat="47.75332" lon="-3.3585">
        <ele>8</ele>
        <time>2011-09-03T14:24:23Z</time>
      </trkpt>
      <trkpt lat="47.75326" lon="-3.35852">
        <ele>8</ele>
        <time>2011-09-03T14:24:26Z</time>
      </trkpt>
      <trkpt lat="47.75314" lon="-3.35852">
        <ele>8</ele>
        <time>2011-09-03T14:24:30Z</time>
      </trkpt>
      <trkpt lat="47.75302" lon="-3.35847">
        <ele>7</ele>
        <time>2011-09-03T14:24:33Z</time>
      </trkpt>
      <trkpt lat="47.75277" lon="-3.35829">
        <ele>6</ele>
        <time>2011-09-03T14:24:40Z</time>
      </trkpt>
      <trkpt lat="47.75274" lon="-3.35828">
        <ele>6</ele>
        <time>2011-09-03T14:24:41Z</time>
      </trkpt>
      <trkpt lat="47.75266" lon="-3.35832">
        <ele>6</ele>
        <time>2011-09-03T14:24:43Z</time>
      </trkpt>
      <trkpt lat="47.7525" lon="-3.35851">
        <ele>6</ele>
        <time>2011-09-03T14:24:48Z</time>
      </trkpt>
      <trkpt lat="47.75244" lon="-3.35863">
        <ele>6</ele>
        <time>2011-09-03T14:24:51Z</time>
      </trkpt>
      <trkpt lat="47.75213" lon="-3.36008">
        <ele>11</ele>
        <time>2011-09-03T14:25:17Z</time>
      </trkpt>
      <trkpt lat="47.75203" lon="-3.36012">
        <ele>11</ele>
        <time>2011-09-03T14:25:22Z</time>
      </trkpt>
      <trkpt lat="47.75197" lon="-3.36012">
        <ele>11</ele>
        <time>2011-09-03T14:25:24Z</time>
      </trkpt>
      <trkpt lat="47.75174" lon="-3.36002">
        <ele>12</ele>
        <time>2011-09-03T14:25:31Z</time>
      </trkpt>
      <trkpt lat="47.7517" lon="-3.36002">
        <ele>12</ele>
        <time>2011-09-03T14:25:32Z</time>
      </trkpt>
      <trkpt lat="47.7516" lon="-3.36008">
        <ele>12</ele>
        <time>2011-09-03T14:25:35Z</time>
      </trkpt>
      <trkpt lat="47.75159" lon="-3.36018">
        <ele>12</ele>
        <time>2011-09-03T14:25:37Z</time>
      </trkpt>
      <trkpt lat="47.75172" lon="-3.36066">
        <ele>12</ele>
        <time>2011-09-03T14:26:16Z</time>
      </trkpt>
      <trkpt lat="47.75182" lon="-3.3609">
        <ele>13</ele>
        <time>2011-09-03T14:26:28Z</time>
      </trkpt>
      <trkpt lat="47.75189" lon="-3.36101">
        <ele>13</ele>
        <time>2011-09-03T14:26:36Z</time>
      </trkpt>
      <trkpt lat="47.75183" lon="-3.36128">
        <ele>13</ele>
        <time>2011-09-03T14:27:26Z</time>
      </trkpt>
      <trkpt lat="47.75178" lon="-3.36137">
        <ele>13</ele>
        <time>2011-09-03T14:27:28Z</time>
      </trkpt>
      <trkpt lat="47.75176" lon="-3.36138">
        <ele>13</ele>
        <time>2011-09-03T14:27:29Z</time>
      </trkpt>
      <trkpt lat="47.7517" lon="-3.36138">
        <ele>13</ele>
        <time>2011-09-03T14:27:31Z</time>
      </trkpt>
      <trkpt lat="47.75153" lon="-3.36143">
        <ele>14</ele>
        <time>2011-09-03T14:27:36Z</time>
      </trkpt>
      <trkpt lat="47.75124" lon="-3.3615">
        <ele>14</ele>
        <time>2011-09-03T14:27:43Z</time>
      </trkpt>
      <trkpt lat="47.75102" lon="-3.36158">
        <ele>14</ele>
        <time>2011-09-03T14:27:49Z</time>
      </trkpt>
      <trkpt lat="47.75094" lon="-3.36159">
        <ele>15</ele>
        <time>2011-09-03T14:27:51Z</time>
      </trkpt>
      <trkpt lat="47.75066" lon="-3.36172">
        <ele>16</ele>
        <time>2011-09-03T14:27:57Z</time>
      </trkpt>
      <trkpt lat="47.75033" lon="-3.36177">
        <ele>16</ele>
        <time>2011-09-03T14:28:03Z</time>
      </trkpt>
      <trkpt lat="47.75017" lon="-3.36184">
        <ele>16</ele>
        <time>2011-09-03T14:28:06Z</time>
      </trkpt>
      <trkpt lat="47.74961" lon="-3.36226">
        <ele>16</ele>
        <time>2011-09-03T14:28:19Z</time>
      </trkpt>
      <trkpt lat="47.74944" lon="-3.36257">
        <ele>15</ele>
        <time>2011-09-03T14:28:26Z</time>
      </trkpt>
      <trkpt lat="47.74929" lon="-3.36274">
        <ele>15</ele>
        <time>2011-09-03T14:28:30Z</time>
      </trkpt>
      <trkpt lat="47.74915" lon="-3.36284">
        <ele>14</ele>
        <time>2011-09-03T14:28:33Z</time>
      </trkpt>
      <trkpt lat="47.74877" lon="-3.36305">
        <ele>13</ele>
        <time>2011-09-03T14:28:40Z</time>
      </trkpt>
      <trkpt lat="47.74822" lon="-3.36343">
        <ele>11</ele>
        <time>2011-09-03T14:28:52Z</time>
      </trkpt>
      <trkpt lat="47.74819" lon="-3.36347">
        <ele>11</ele>
        <time>2011-09-03T14:28:53Z</time>
      </trkpt>
      <trkpt lat="47.74816" lon="-3.36354">
        <ele>11</ele>
        <time>2011-09-03T14:28:54Z</time>
      </trkpt>
      <trkpt lat="47.74817" lon="-3.36374">
        <ele>11</ele>
        <time>2011-09-03T14:28:56Z</time>
      </trkpt>
      <trkpt lat="47.74823" lon="-3.36407">
        <ele>11</ele>
        <time>2011-09-03T14:29:01Z</time>
      </trkpt>
      <trkpt lat="47.74826" lon="-3.36431">
        <ele>11</ele>
        <time>2011-09-03T14:29:04Z</time>
      </trkpt>
      <trkpt lat="47.74825" lon="-3.36438">
        <ele>11</ele>
        <time>2011-09-03T14:29:05Z</time>
      </trkpt>
      <trkpt lat="47.74818" lon="-3.36451">
        <ele>11</ele>
        <time>2011-09-03T14:29:07Z</time>
      </trkpt>
      <trkpt lat="47.74806" lon="-3.36467">
        <ele>10</ele>
        <time>2011-09-03T14:29:10Z</time>
      </trkpt>
      <trkpt lat="47.74796" lon="-3.36476">
        <ele>10</ele>
        <time>2011-09-03T14:29:12Z</time>
      </trkpt>
      <trkpt lat="47.74783" lon="-3.36492">
        <ele>10</ele>
        <time>2011-09-03T14:29:15Z</time>
      </trkpt>
      <trkpt lat="47.74713" lon="-3.36586">
        <ele>6</ele>
        <time>2011-09-03T14:29:32Z</time>
      </trkpt>
      <trkpt lat="47.74659" lon="-3.36651">
        <ele>9</ele>
        <time>2011-09-03T14:29:45Z</time>
      </trkpt>
      <trkpt lat="47.74642" lon="-3.36674">
        <ele>9</ele>
        <time>2011-09-03T14:29:49Z</time>
      </trkpt>
      <trkpt lat="47.74606" lon="-3.36718">
        <ele>9</ele>
        <time>2011-09-03T14:29:58Z</time>
      </trkpt>
      <trkpt lat="47.74572" lon="-3.36764">
        <ele>10</ele>
        <time>2011-09-03T14:30:07Z</time>
      </trkpt>
      <trkpt lat="47.74558" lon="-3.36788">
        <ele>10</ele>
        <time>2011-09-03T14:30:11Z</time>
      </trkpt>
      <trkpt lat="47.7455" lon="-3.3681">
        <ele>10</ele>
        <time>2011-09-03T14:30:14Z</time>
      </trkpt>
      <trkpt lat="47.74539" lon="-3.36851">
        <ele>10</ele>
        <time>2011-09-03T14:30:20Z</time>
      </trkpt>
      <trkpt lat="47.74531" lon="-3.3701">
        <ele>11</ele>
        <time>2011-09-03T14:30:43Z</time>
      </trkpt>
      <trkpt lat="47.74524" lon="-3.37071">
        <ele>10</ele>
        <time>2011-09-03T14:30:51Z</time>
      </trkpt>
      <trkpt lat="47.74516" lon="-3.37261">
        <ele>7</ele>
        <time>2011-09-03T14:31:16Z</time>
      </trkpt>
      <trkpt lat="47.74513" lon="-3.37308">
        <ele>7</ele>
        <time>2011-09-03T14:31:25Z</time>
      </trkpt>
      <trkpt lat="47.74513" lon="-3.37353">
        <ele>9</ele>
        <time>2011-09-03T14:31:31Z</time>
      </trkpt>
      <trkpt lat="47.74509" lon="-3.37432">
        <ele>10</ele>
        <time>2011-09-03T14:31:53Z</time>
      </trkpt>
      <trkpt lat="47.7451" lon="-3.37513">
        <ele>12</ele>
        <time>2011-09-03T14:32:11Z</time>
      </trkpt>
      <trkpt lat="47.74506" lon="-3.37643">
        <ele>12</ele>
        <time>2011-09-03T14:32:30Z</time>
      </trkpt>
      <trkpt lat="47.74502" lon="-3.37737">
        <ele>12</ele>
        <time>2011-09-03T14:32:44Z</time>
      </trkpt>
      <trkpt lat="47.74499" lon="-3.37751">
        <ele>13</ele>
        <time>2011-09-03T14:32:46Z</time>
      </trkpt>
      <trkpt lat="47.7448" lon="-3.37806">
        <ele>15</ele>
        <time>2011-09-03T14:32:55Z</time>
      </trkpt>
      <trkpt lat="47.74467" lon="-3.37853">
        <ele>15</ele>
        <time>2011-09-03T14:33:03Z</time>
      </trkpt>
      <trkpt lat="47.74435" lon="-3.37951">
        <ele>15</ele>
        <time>2011-09-03T14:33:22Z</time>
      </trkpt>
      <trkpt lat="47.74414" lon="-3.37997">
        <ele>17</ele>
        <time>2011-09-03T14:33:30Z</time>
      </trkpt>
      <trkpt lat="47.74408" lon="-3.38014">
        <ele>17</ele>
        <time>2011-09-03T14:33:33Z</time>
      </trkpt>
      <trkpt lat="47.74392" lon="-3.38074">
        <ele>16</ele>
        <time>2011-09-03T14:33:45Z</time>
      </trkpt>
      <trkpt lat="47.74388" lon="-3.38094">
        <ele>16</ele>
        <time>2011-09-03T14:34:22Z</time>
      </trkpt>
      <trkpt lat="47.74386" lon="-3.38129">
        <ele>17</ele>
        <time>2011-09-03T14:34:27Z</time>
      </trkpt>
      <trkpt lat="47.74383" lon="-3.38142">
        <ele>17</ele>
        <time>2011-09-03T14:34:29Z</time>
      </trkpt>
      <trkpt lat="47.74377" lon="-3.38154">
        <ele>17</ele>
        <time>2011-09-03T14:34:31Z</time>
      </trkpt>
      <trkpt lat="47.74354" lon="-3.38187">
        <ele>18</ele>
        <time>2011-09-03T14:34:38Z</time>
      </trkpt>
      <trkpt lat="47.74341" lon="-3.38214">
        <ele>18</ele>
        <time>2011-09-03T14:34:43Z</time>
      </trkpt>
      <trkpt lat="47.74324" lon="-3.38261">
        <ele>19</ele>
        <time>2011-09-03T14:34:51Z</time>
      </trkpt>
      <trkpt lat="47.74304" lon="-3.38323">
        <ele>18</ele>
        <time>2011-09-03T14:35:01Z</time>
      </trkpt>
      <trkpt lat="47.74291" lon="-3.38364">
        <ele>17</ele>
        <time>2011-09-03T14:35:08Z</time>
      </trkpt>
      <trkpt lat="47.74279" lon="-3.3841">
        <ele>18</ele>
        <time>2011-09-03T14:35:16Z</time>
      </trkpt>
      <trkpt lat="47.74271" lon="-3.38433">
        <ele>19</ele>
        <time>2011-09-03T14:35:21Z</time>
      </trkpt>
      <trkpt lat="47.74269" lon="-3.38437">
        <ele>19</ele>
        <time>2011-09-03T14:35:25Z</time>
      </trkpt>
      <trkpt lat="47.74258" lon="-3.3843">
        <ele>19</ele>
        <time>2011-09-03T14:35:30Z</time>
      </trkpt>
      <trkpt lat="47.7423" lon="-3.38404">
        <ele>20</ele>
        <time>2011-09-03T14:35:42Z</time>
      </trkpt>
      <trkpt lat="47.74191" lon="-3.38364">
        <ele>20</ele>
        <time>2011-09-03T14:38:25Z</time>
      </trkpt>
      <trkpt lat="47.74186" lon="-3.38355">
        <ele>20</ele>
        <time>2011-09-03T14:38:40Z</time>
      </trkpt>
      <trkpt lat="47.74183" lon="-3.38337">
        <ele>20</ele>
        <time>2011-09-03T14:39:06Z</time>
      </trkpt>
      <trkpt lat="47.74181" lon="-3.38337">
        <ele>20</ele>
        <time>2011-09-03T14:39:54Z</time>
      </trkpt>
      <trkpt lat="47.74174" lon="-3.38327">
        <ele>20</ele>
        <time>2011-09-03T14:40:12Z</time>
      </trkpt>
      <trkpt lat="47.74171" lon="-3.38324">
        <ele>20</ele>
        <time>2011-09-03T14:40:24Z</time>
      </trkpt>
      <trkpt lat="47.74171" lon="-3.38325">
        <ele>20</ele>
        <time>2011-09-03T14:40:33Z</time>
      </trkpt>
      <trkpt lat="47.74169" lon="-3.38321">
        <ele>20</ele>
        <time>2011-09-03T14:40:48Z</time>
      </trkpt>
      <trkpt lat="47.74173" lon="-3.38333">
        <ele>20</ele>
        <time>2011-09-03T14:41:54Z</time>
      </trkpt>
      <trkpt lat="47.74154" lon="-3.38322">
        <ele>20</ele>
        <time>2011-09-03T14:45:38Z</time>
      </trkpt>
      <trkpt lat="47.74119" lon="-3.38293">
        <ele>20</ele>
        <time>2011-09-03T14:45:49Z</time>
      </trkpt>
      <trkpt lat="47.74092" lon="-3.38268">
        <ele>20</ele>
        <time>2011-09-03T14:45:57Z</time>
      </trkpt>
      <trkpt lat="47.74015" lon="-3.38191">
        <ele>16</ele>
        <time>2011-09-03T14:46:16Z</time>
      </trkpt>
      <trkpt lat="47.74011" lon="-3.38189">
        <ele>16</ele>
        <time>2011-09-03T14:46:17Z</time>
      </trkpt>
      <trkpt lat="47.74006" lon="-3.38188">
        <ele>16</ele>
        <time>2011-09-03T14:46:18Z</time>
      </trkpt>
      <trkpt lat="47.74002" lon="-3.3819">
        <ele>16</ele>
        <time>2011-09-03T14:46:19Z</time>
      </trkpt>
      <trkpt lat="47.74" lon="-3.38194">
        <ele>14</ele>
        <time>2011-09-03T14:46:20Z</time>
      </trkpt>
      <trkpt lat="47.73998" lon="-3.38206">
        <ele>14</ele>
        <time>2011-09-03T14:46:22Z</time>
      </trkpt>
      <trkpt lat="47.73993" lon="-3.38264">
        <ele>15</ele>
        <time>2011-09-03T14:46:31Z</time>
      </trkpt>
      <trkpt lat="47.73985" lon="-3.38491">
        <ele>23</ele>
        <time>2011-09-03T14:47:09Z</time>
      </trkpt>
      <trkpt lat="47.73982" lon="-3.38523">
        <ele>23</ele>
        <time>2011-09-03T14:47:15Z</time>
      </trkpt>
      <trkpt lat="47.73979" lon="-3.38542">
        <ele>23</ele>
        <time>2011-09-03T14:47:19Z</time>
      </trkpt>
      <trkpt lat="47.7397" lon="-3.38566">
        <ele>23</ele>
        <time>2011-09-03T14:47:24Z</time>
      </trkpt>
      <trkpt lat="47.73955" lon="-3.38593">
        <ele>22</ele>
        <time>2011-09-03T14:47:30Z</time>
      </trkpt>
      <trkpt lat="47.73921" lon="-3.38628">
        <ele>21</ele>
        <time>2011-09-03T14:47:38Z</time>
      </trkpt>
      <trkpt lat="47.73899" lon="-3.38658">
        <ele>19</ele>
        <time>2011-09-03T14:47:43Z</time>
      </trkpt>
      <trkpt lat="47.73887" lon="-3.38678">
        <ele>18</ele>
        <time>2011-09-03T14:47:46Z</time>
      </trkpt>
      <trkpt lat="47.7387" lon="-3.38746">
        <ele>18</ele>
        <time>2011-09-03T14:47:57Z</time>
      </trkpt>
      <trkpt lat="47.7386" lon="-3.38796">
        <ele>19</ele>
        <time>2011-09-03T14:48:05Z</time>
      </trkpt>
      <trkpt lat="47.73832" lon="-3.38893">
        <ele>20</ele>
        <time>2011-09-03T14:48:22Z</time>
      </trkpt>
      <trkpt lat="47.73811" lon="-3.38996">
        <ele>21</ele>
        <time>2011-09-03T14:48:40Z</time>
      </trkpt>
      <trkpt lat="47.73783" lon="-3.39082">
        <ele>23</ele>
        <time>2011-09-03T14:49:00Z</time>
      </trkpt>
      <trkpt lat="47.73778" lon="-3.39101">
        <ele>25</ele>
        <time>2011-09-03T14:49:05Z</time>
      </trkpt>
      <trkpt lat="47.73778" lon="-3.39115">
        <ele>25</ele>
        <time>2011-09-03T14:49:08Z</time>
      </trkpt>
      <trkpt lat="47.73765" lon="-3.3914">
        <ele>25</ele>
        <time>2011-09-03T14:49:14Z</time>
      </trkpt>
      <trkpt lat="47.73751" lon="-3.39186">
        <ele>25</ele>
        <time>2011-09-03T14:49:23Z</time>
      </trkpt>
      <trkpt lat="47.73746" lon="-3.3921">
        <ele>23</ele>
        <time>2011-09-03T14:49:27Z</time>
      </trkpt>
      <trkpt lat="47.73743" lon="-3.39244">
        <ele>23</ele>
        <time>2011-09-03T14:49:32Z</time>
      </trkpt>
      <trkpt lat="47.73731" lon="-3.39379">
        <ele>22</ele>
        <time>2011-09-03T14:49:55Z</time>
      </trkpt>
      <trkpt lat="47.73719" lon="-3.39503">
        <ele>24</ele>
        <time>2011-09-03T14:50:15Z</time>
      </trkpt>
      <trkpt lat="47.73712" lon="-3.39586">
        <ele>22</ele>
        <time>2011-09-03T14:50:28Z</time>
      </trkpt>
      <trkpt lat="47.73713" lon="-3.39631">
        <ele>21</ele>
        <time>2011-09-03T14:50:35Z</time>
      </trkpt>
      <trkpt lat="47.73712" lon="-3.39649">
        <ele>20</ele>
        <time>2011-09-03T14:50:38Z</time>
      </trkpt>
      <trkpt lat="47.73705" lon="-3.39721">
        <ele>18</ele>
        <time>2011-09-03T14:50:49Z</time>
      </trkpt>
      <trkpt lat="47.737" lon="-3.39759">
        <ele>18</ele>
        <time>2011-09-03T14:50:55Z</time>
      </trkpt>
      <trkpt lat="47.73702" lon="-3.39812">
        <ele>18</ele>
        <time>2011-09-03T14:51:03Z</time>
      </trkpt>
      <trkpt lat="47.73708" lon="-3.39844">
        <ele>20</ele>
        <time>2011-09-03T14:51:09Z</time>
      </trkpt>
      <trkpt lat="47.73715" lon="-3.39867">
        <ele>20</ele>
        <time>2011-09-03T14:51:14Z</time>
      </trkpt>
      <trkpt lat="47.73725" lon="-3.39894">
        <ele>20</ele>
        <time>2011-09-03T14:51:19Z</time>
      </trkpt>
      <trkpt lat="47.73757" lon="-3.39971">
        <ele>20</ele>
        <time>2011-09-03T14:51:36Z</time>
      </trkpt>
      <trkpt lat="47.73762" lon="-3.39993">
        <ele>20</ele>
        <time>2011-09-03T14:51:41Z</time>
      </trkpt>
      <trkpt lat="47.73762" lon="-3.40019">
        <ele>20</ele>
        <time>2011-09-03T14:51:47Z</time>
      </trkpt>
      <trkpt lat="47.73758" lon="-3.40043">
        <ele>20</ele>
        <time>2011-09-03T14:51:52Z</time>
      </trkpt>
      <trkpt lat="47.73753" lon="-3.40062">
        <ele>19</ele>
        <time>2011-09-03T14:51:56Z</time>
      </trkpt>
      <trkpt lat="47.73745" lon="-3.40082">
        <ele>18</ele>
        <time>2011-09-03T14:52:00Z</time>
      </trkpt>
      <trkpt lat="47.73676" lon="-3.40169">
        <ele>14</ele>
        <time>2011-09-03T14:52:14Z</time>
      </trkpt>
      <trkpt lat="47.73657" lon="-3.40188">
        <ele>13</ele>
        <time>2011-09-03T14:52:17Z</time>
      </trkpt>
      <trkpt lat="47.73637" lon="-3.40205">
        <ele>12</ele>
        <time>2011-09-03T14:52:20Z</time>
      </trkpt>
      <trkpt lat="47.73589" lon="-3.40237">
        <ele>9</ele>
        <time>2011-09-03T14:52:27Z</time>
      </trkpt>
      <trkpt lat="47.7357" lon="-3.40252">
        <ele>7</ele>
        <time>2011-09-03T14:52:30Z</time>
      </trkpt>
      <trkpt lat="47.73531" lon="-3.40285">
        <ele>7</ele>
        <time>2011-09-03T14:52:36Z</time>
      </trkpt>
      <trkpt lat="47.73492" lon="-3.40324">
        <ele>6</ele>
        <time>2011-09-03T14:52:43Z</time>
      </trkpt>
      <trkpt lat="47.73478" lon="-3.40333">
        <ele>7</ele>
        <time>2011-09-03T14:52:46Z</time>
      </trkpt>
      <trkpt lat="47.73469" lon="-3.40337">
        <ele>5</ele>
        <time>2011-09-03T14:52:48Z</time>
      </trkpt>
      <trkpt lat="47.7346" lon="-3.40338">
        <ele>5</ele>
        <time>2011-09-03T14:52:50Z</time>
      </trkpt>
      <trkpt lat="47.73442" lon="-3.40334">
        <ele>6</ele>
        <time>2011-09-03T14:52:54Z</time>
      </trkpt>
      <trkpt lat="47.73431" lon="-3.40329">
        <ele>8</ele>
        <time>2011-09-03T14:52:57Z</time>
      </trkpt>
      <trkpt lat="47.73424" lon="-3.40324">
        <ele>8</ele>
        <time>2011-09-03T14:52:59Z</time>
      </trkpt>
      <trkpt lat="47.73408" lon="-3.40309">
        <ele>8</ele>
        <time>2011-09-03T14:53:03Z</time>
      </trkpt>
      <trkpt lat="47.73369" lon="-3.40266">
        <ele>8</ele>
        <time>2011-09-03T14:53:14Z</time>
      </trkpt>
      <trkpt lat="47.7336" lon="-3.40262">
        <ele>8</ele>
        <time>2011-09-03T14:53:16Z</time>
      </trkpt>
      <trkpt lat="47.73355" lon="-3.40261">
        <ele>8</ele>
        <time>2011-09-03T14:53:17Z</time>
      </trkpt>
      <trkpt lat="47.7335" lon="-3.40263">
        <ele>7</ele>
        <time>2011-09-03T14:53:18Z</time>
      </trkpt>
      <trkpt lat="47.73346" lon="-3.40266">
        <ele>7</ele>
        <time>2011-09-03T14:53:19Z</time>
      </trkpt>
      <trkpt lat="47.73339" lon="-3.40275">
        <ele>7</ele>
        <time>2011-09-03T14:53:21Z</time>
      </trkpt>
      <trkpt lat="47.7333" lon="-3.40289">
        <ele>7</ele>
        <time>2011-09-03T14:53:24Z</time>
      </trkpt>
      <trkpt lat="47.7332" lon="-3.40313">
        <ele>7</ele>
        <time>2011-09-03T14:53:29Z</time>
      </trkpt>
      <trkpt lat="47.73313" lon="-3.40342">
        <ele>9</ele>
        <time>2011-09-03T14:53:35Z</time>
      </trkpt>
      <trkpt lat="47.73308" lon="-3.40387">
        <ele>10</ele>
        <time>2011-09-03T14:53:45Z</time>
      </trkpt>
      <trkpt lat="47.73304" lon="-3.40398">
        <ele>10</ele>
        <time>2011-09-03T14:53:48Z</time>
      </trkpt>
      <trkpt lat="47.73293" lon="-3.40409">
        <ele>11</ele>
        <time>2011-09-03T14:53:53Z</time>
      </trkpt>
      <trkpt lat="47.73262" lon="-3.40414">
        <ele>13</ele>
        <time>2011-09-03T14:54:04Z</time>
      </trkpt>
      <trkpt lat="47.73243" lon="-3.40423">
        <ele>15</ele>
        <time>2011-09-03T14:54:09Z</time>
      </trkpt>
      <trkpt lat="47.7323" lon="-3.40437">
        <ele>16</ele>
        <time>2011-09-03T14:54:13Z</time>
      </trkpt>
      <trkpt lat="47.73226" lon="-3.40445">
        <ele>16</ele>
        <time>2011-09-03T14:54:15Z</time>
      </trkpt>
      <trkpt lat="47.73222" lon="-3.40459">
        <ele>16</ele>
        <time>2011-09-03T14:54:18Z</time>
      </trkpt>
      <trkpt lat="47.73221" lon="-3.40477">
        <ele>17</ele>
        <time>2011-09-03T14:54:22Z</time>
      </trkpt>
      <trkpt lat="47.73226" lon="-3.40505">
        <ele>18</ele>
        <time>2011-09-03T14:54:29Z</time>
      </trkpt>
      <trkpt lat="47.73228" lon="-3.40533">
        <ele>19</ele>
        <time>2011-09-03T14:55:26Z</time>
      </trkpt>
      <trkpt lat="47.73227" lon="-3.40572">
        <ele>20</ele>
        <time>2011-09-03T14:55:38Z</time>
      </trkpt>
      <trkpt lat="47.7322" lon="-3.40601">
        <ele>22</ele>
        <time>2011-09-03T14:55:45Z</time>
      </trkpt>
      <trkpt lat="47.73207" lon="-3.40631">
        <ele>23</ele>
        <time>2011-09-03T14:55:52Z</time>
      </trkpt>
      <trkpt lat="47.732" lon="-3.4064">
        <ele>23</ele>
        <time>2011-09-03T14:55:55Z</time>
      </trkpt>
      <trkpt lat="47.73189" lon="-3.40651">
        <ele>24</ele>
        <time>2011-09-03T14:55:59Z</time>
      </trkpt>
      <trkpt lat="47.7318" lon="-3.40657">
        <ele>24</ele>
        <time>2011-09-03T14:56:02Z</time>
      </trkpt>
      <trkpt lat="47.7317" lon="-3.40659">
        <ele>24</ele>
        <time>2011-09-03T14:56:05Z</time>
      </trkpt>
      <trkpt lat="47.73155" lon="-3.40662">
        <ele>24</ele>
        <time>2011-09-03T14:56:10Z</time>
      </trkpt>
      <trkpt lat="47.73142" lon="-3.40662">
        <ele>24</ele>
        <time>2011-09-03T14:56:14Z</time>
      </trkpt>
      <trkpt lat="47.73108" lon="-3.40654">
        <ele>23</ele>
        <time>2011-09-03T14:56:24Z</time>
      </trkpt>
      <trkpt lat="47.73097" lon="-3.40653">
        <ele>23</ele>
        <time>2011-09-03T14:56:27Z</time>
      </trkpt>
      <trkpt lat="47.73086" lon="-3.40655">
        <ele>23</ele>
        <time>2011-09-03T14:56:30Z</time>
      </trkpt>
      <trkpt lat="47.73076" lon="-3.40661">
        <ele>23</ele>
        <time>2011-09-03T14:56:33Z</time>
      </trkpt>
      <trkpt lat="47.73068" lon="-3.40669">
        <ele>24</ele>
        <time>2011-09-03T14:56:36Z</time>
      </trkpt>
      <trkpt lat="47.73063" lon="-3.40676">
        <ele>24</ele>
        <time>2011-09-03T14:56:38Z</time>
      </trkpt>
      <trkpt lat="47.73037" lon="-3.40732">
        <ele>25</ele>
        <time>2011-09-03T14:56:51Z</time>
      </trkpt>
      <trkpt lat="47.73014" lon="-3.40778">
        <ele>26</ele>
        <time>2011-09-03T14:57:03Z</time>
      </trkpt>
      <trkpt lat="47.73004" lon="-3.40791">
        <ele>26</ele>
        <time>2011-09-03T14:57:07Z</time>
      </trkpt>
      <trkpt lat="47.72988" lon="-3.40805">
        <ele>27</ele>
        <time>2011-09-03T14:57:12Z</time>
      </trkpt>
      <trkpt lat="47.72979" lon="-3.40808">
        <ele>27</ele>
        <time>2011-09-03T14:57:15Z</time>
      </trkpt>
      <trkpt lat="47.72957" lon="-3.40811">
        <ele>27</ele>
        <time>2011-09-03T14:57:22Z</time>
      </trkpt>
      <trkpt lat="47.72885" lon="-3.40801">
        <ele>28</ele>
        <time>2011-09-03T14:57:36Z</time>
      </trkpt>
      <trkpt lat="47.72863" lon="-3.40796">
        <ele>28</ele>
        <time>2011-09-03T14:57:41Z</time>
      </trkpt>
      <trkpt lat="47.72854" lon="-3.40795">
        <ele>28</ele>
        <time>2011-09-03T14:57:44Z</time>
      </trkpt>
      <trkpt lat="47.72841" lon="-3.40798">
        <ele>29</ele>
        <time>2011-09-03T14:57:48Z</time>
      </trkpt>
      <trkpt lat="47.72817" lon="-3.40807">
        <ele>32</ele>
        <time>2011-09-03T14:57:56Z</time>
      </trkpt>
      <trkpt lat="47.72804" lon="-3.40807">
        <ele>32</ele>
        <time>2011-09-03T14:58:00Z</time>
      </trkpt>
      <trkpt lat="47.72788" lon="-3.408">
        <ele>32</ele>
        <time>2011-09-03T14:58:05Z</time>
      </trkpt>
      <trkpt lat="47.72759" lon="-3.40775">
        <ele>32</ele>
        <time>2011-09-03T14:58:15Z</time>
      </trkpt>
      <trkpt lat="47.72746" lon="-3.40769">
        <ele>34</ele>
        <time>2011-09-03T14:58:19Z</time>
      </trkpt>
      <trkpt lat="47.72737" lon="-3.40765">
        <ele>34</ele>
        <time>2011-09-03T14:58:22Z</time>
      </trkpt>
      <trkpt lat="47.72728" lon="-3.40765">
        <ele>34</ele>
        <time>2011-09-03T14:58:25Z</time>
      </trkpt>
      <trkpt lat="47.72719" lon="-3.40767">
        <ele>34</ele>
        <time>2011-09-03T14:58:28Z</time>
      </trkpt>
      <trkpt lat="47.72713" lon="-3.40771">
        <ele>34</ele>
        <time>2011-09-03T14:58:30Z</time>
      </trkpt>
      <trkpt lat="47.72699" lon="-3.40786">
        <ele>35</ele>
        <time>2011-09-03T14:58:35Z</time>
      </trkpt>
      <trkpt lat="47.7269" lon="-3.40801">
        <ele>35</ele>
        <time>2011-09-03T14:58:40Z</time>
      </trkpt>
      <trkpt lat="47.72669" lon="-3.40896">
        <ele>38</ele>
        <time>2011-09-03T14:59:03Z</time>
      </trkpt>
      <trkpt lat="47.72653" lon="-3.40956">
        <ele>39</ele>
        <time>2011-09-03T14:59:15Z</time>
      </trkpt>
      <trkpt lat="47.72645" lon="-3.4098">
        <ele>39</ele>
        <time>2011-09-03T14:59:20Z</time>
      </trkpt>
      <trkpt lat="47.7263" lon="-3.41014">
        <ele>39</ele>
        <time>2011-09-03T14:59:28Z</time>
      </trkpt>
      <trkpt lat="47.72618" lon="-3.41032">
        <ele>38</ele>
        <time>2011-09-03T14:59:33Z</time>
      </trkpt>
      <trkpt lat="47.72603" lon="-3.41046">
        <ele>38</ele>
        <time>2011-09-03T14:59:38Z</time>
      </trkpt>
      <trkpt lat="47.726" lon="-3.41049">
        <ele>38</ele>
        <time>2011-09-03T14:59:39Z</time>
      </trkpt>
      <trkpt lat="47.72579" lon="-3.41056">
        <ele>36</ele>
        <time>2011-09-03T14:59:44Z</time>
      </trkpt>
      <trkpt lat="47.72566" lon="-3.41063">
        <ele>36</ele>
        <time>2011-09-03T14:59:47Z</time>
      </trkpt>
      <trkpt lat="47.72558" lon="-3.41072">
        <ele>36</ele>
        <time>2011-09-03T14:59:49Z</time>
      </trkpt>
      <trkpt lat="47.72548" lon="-3.41094">
        <ele>35</ele>
        <time>2011-09-03T14:59:53Z</time>
      </trkpt>
      <trkpt lat="47.72544" lon="-3.41097">
        <ele>35</ele>
        <time>2011-09-03T14:59:54Z</time>
      </trkpt>
      <trkpt lat="47.72511" lon="-3.41102">
        <ele>35</ele>
        <time>2011-09-03T15:00:02Z</time>
      </trkpt>
      <trkpt lat="47.72477" lon="-3.41112">
        <ele>35</ele>
        <time>2011-09-03T15:00:10Z</time>
      </trkpt>
      <trkpt lat="47.72465" lon="-3.41113">
        <ele>35</ele>
        <time>2011-09-03T15:00:13Z</time>
      </trkpt>
      <trkpt lat="47.72457" lon="-3.41109">
        <ele>35</ele>
        <time>2011-09-03T15:00:15Z</time>
      </trkpt>
      <trkpt lat="47.72441" lon="-3.41098">
        <ele>35</ele>
        <time>2011-09-03T15:00:19Z</time>
      </trkpt>
      <trkpt lat="47.72383" lon="-3.41045">
        <ele>35</ele>
        <time>2011-09-03T15:00:34Z</time>
      </trkpt>
      <trkpt lat="47.72307" lon="-3.4098">
        <ele>34</ele>
        <time>2011-09-03T15:00:51Z</time>
      </trkpt>
      <trkpt lat="47.72298" lon="-3.40976">
        <ele>34</ele>
        <time>2011-09-03T15:00:53Z</time>
      </trkpt>
      <trkpt lat="47.72294" lon="-3.40976">
        <ele>34</ele>
        <time>2011-09-03T15:00:54Z</time>
      </trkpt>
      <trkpt lat="47.72286" lon="-3.40982">
        <ele>34</ele>
        <time>2011-09-03T15:00:56Z</time>
      </trkpt>
      <trkpt lat="47.72282" lon="-3.40986">
        <ele>34</ele>
        <time>2011-09-03T15:00:57Z</time>
      </trkpt>
      <trkpt lat="47.72275" lon="-3.41004">
        <ele>34</ele>
        <time>2011-09-03T15:01:00Z</time>
      </trkpt>
      <trkpt lat="47.72245" lon="-3.41086">
        <ele>35</ele>
        <time>2011-09-03T15:01:13Z</time>
      </trkpt>
      <trkpt lat="47.7222" lon="-3.41143">
        <ele>34</ele>
        <time>2011-09-03T15:01:23Z</time>
      </trkpt>
      <trkpt lat="47.72204" lon="-3.41188">
        <ele>33</ele>
        <time>2011-09-03T15:01:31Z</time>
      </trkpt>
      <trkpt lat="47.72182" lon="-3.41263">
        <ele>32</ele>
        <time>2011-09-03T15:01:43Z</time>
      </trkpt>
      <trkpt lat="47.72157" lon="-3.41324">
        <ele>32</ele>
        <time>2011-09-03T15:01:53Z</time>
      </trkpt>
      <trkpt lat="47.72148" lon="-3.41356">
        <ele>30</ele>
        <time>2011-09-03T15:01:57Z</time>
      </trkpt>
      <trkpt lat="47.72123" lon="-3.41463">
        <ele>27</ele>
        <time>2011-09-03T15:02:09Z</time>
      </trkpt>
      <trkpt lat="47.72108" lon="-3.41546">
        <ele>25</ele>
        <time>2011-09-03T15:02:18Z</time>
      </trkpt>
      <trkpt lat="47.72101" lon="-3.41561">
        <ele>24</ele>
        <time>2011-09-03T15:02:20Z</time>
      </trkpt>
      <trkpt lat="47.72086" lon="-3.41577">
        <ele>23</ele>
        <time>2011-09-03T15:02:23Z</time>
      </trkpt>
      <trkpt lat="47.72074" lon="-3.41581">
        <ele>22</ele>
        <time>2011-09-03T15:02:25Z</time>
      </trkpt>
      <trkpt lat="47.72062" lon="-3.41581">
        <ele>23</ele>
        <time>2011-09-03T15:02:27Z</time>
      </trkpt>
      <trkpt lat="47.72046" lon="-3.41576">
        <ele>23</ele>
        <time>2011-09-03T15:02:30Z</time>
      </trkpt>
      <trkpt lat="47.72017" lon="-3.41558">
        <ele>23</ele>
        <time>2011-09-03T15:02:36Z</time>
      </trkpt>
      <trkpt lat="47.72008" lon="-3.41555">
        <ele>23</ele>
        <time>2011-09-03T15:02:38Z</time>
      </trkpt>
      <trkpt lat="47.71986" lon="-3.41552">
        <ele>22</ele>
        <time>2011-09-03T15:02:43Z</time>
      </trkpt>
      <trkpt lat="47.71961" lon="-3.41552">
        <ele>21</ele>
        <time>2011-09-03T15:02:48Z</time>
      </trkpt>
      <trkpt lat="47.71951" lon="-3.41555">
        <ele>21</ele>
        <time>2011-09-03T15:02:50Z</time>
      </trkpt>
      <trkpt lat="47.71942" lon="-3.41562">
        <ele>21</ele>
        <time>2011-09-03T15:02:52Z</time>
      </trkpt>
      <trkpt lat="47.71935" lon="-3.41572">
        <ele>20</ele>
        <time>2011-09-03T15:02:54Z</time>
      </trkpt>
      <trkpt lat="47.71926" lon="-3.41589">
        <ele>19</ele>
        <time>2011-09-03T15:02:57Z</time>
      </trkpt>
      <trkpt lat="47.71919" lon="-3.41608">
        <ele>19</ele>
        <time>2011-09-03T15:03:00Z</time>
      </trkpt>
      <trkpt lat="47.71911" lon="-3.4164">
        <ele>20</ele>
        <time>2011-09-03T15:03:05Z</time>
      </trkpt>
      <trkpt lat="47.71879" lon="-3.41829">
        <ele>19</ele>
        <time>2011-09-03T15:03:34Z</time>
      </trkpt>
      <trkpt lat="47.71872" lon="-3.41877">
        <ele>20</ele>
        <time>2011-09-03T15:03:41Z</time>
      </trkpt>
      <trkpt lat="47.71858" lon="-3.42033">
        <ele>22</ele>
        <time>2011-09-03T15:04:04Z</time>
      </trkpt>
      <trkpt lat="47.71831" lon="-3.42181">
        <ele>23</ele>
        <time>2011-09-03T15:04:26Z</time>
      </trkpt>
      <trkpt lat="47.71827" lon="-3.42199">
        <ele>23</ele>
        <time>2011-09-03T15:04:29Z</time>
      </trkpt>
      <trkpt lat="47.71805" lon="-3.42237">
        <ele>22</ele>
        <time>2011-09-03T15:04:36Z</time>
      </trkpt>
      <trkpt lat="47.71792" lon="-3.42254">
        <ele>21</ele>
        <time>2011-09-03T15:04:40Z</time>
      </trkpt>
      <trkpt lat="47.7178" lon="-3.42266">
        <ele>21</ele>
        <time>2011-09-03T15:04:43Z</time>
      </trkpt>
      <trkpt lat="47.71763" lon="-3.42281">
        <ele>21</ele>
        <time>2011-09-03T15:04:47Z</time>
      </trkpt>
      <trkpt lat="47.71732" lon="-3.42319">
        <ele>20</ele>
        <time>2011-09-03T15:04:56Z</time>
      </trkpt>
      <trkpt lat="47.71705" lon="-3.42341">
        <ele>19</ele>
        <time>2011-09-03T15:05:03Z</time>
      </trkpt>
      <trkpt lat="47.71687" lon="-3.4235">
        <ele>19</ele>
        <time>2011-09-03T15:05:07Z</time>
      </trkpt>
      <trkpt lat="47.71673" lon="-3.42355">
        <ele>19</ele>
        <time>2011-09-03T15:05:10Z</time>
      </trkpt>
      <trkpt lat="47.71627" lon="-3.42362">
        <ele>17</ele>
        <time>2011-09-03T15:05:19Z</time>
      </trkpt>
      <trkpt lat="47.71567" lon="-3.42364">
        <ele>15</ele>
        <time>2011-09-03T15:05:32Z</time>
      </trkpt>
      <trkpt lat="47.71544" lon="-3.42361">
        <ele>15</ele>
        <time>2011-09-03T15:05:37Z</time>
      </trkpt>
      <trkpt lat="47.7153" lon="-3.42355">
        <ele>15</ele>
        <time>2011-09-03T15:05:40Z</time>
      </trkpt>
      <trkpt lat="47.71515" lon="-3.42346">
        <ele>14</ele>
        <time>2011-09-03T15:05:43Z</time>
      </trkpt>
      <trkpt lat="47.715" lon="-3.42332">
        <ele>14</ele>
        <time>2011-09-03T15:05:46Z</time>
      </trkpt>
      <trkpt lat="47.71467" lon="-3.4229">
        <ele>13</ele>
        <time>2011-09-03T15:05:53Z</time>
      </trkpt>
      <trkpt lat="47.71451" lon="-3.42265">
        <ele>13</ele>
        <time>2011-09-03T15:05:57Z</time>
      </trkpt>
      <trkpt lat="47.71415" lon="-3.42198">
        <ele>13</ele>
        <time>2011-09-03T15:06:09Z</time>
      </trkpt>
      <trkpt lat="47.71393" lon="-3.42162">
        <ele>14</ele>
        <time>2011-09-03T15:06:16Z</time>
      </trkpt>
      <trkpt lat="47.71376" lon="-3.42139">
        <ele>14</ele>
        <time>2011-09-03T15:06:21Z</time>
      </trkpt>
      <trkpt lat="47.71356" lon="-3.4212">
        <ele>15</ele>
        <time>2011-09-03T15:06:26Z</time>
      </trkpt>
      <trkpt lat="47.71336" lon="-3.42105">
        <ele>15</ele>
        <time>2011-09-03T15:06:31Z</time>
      </trkpt>
      <trkpt lat="47.7131" lon="-3.42093">
        <ele>15</ele>
        <time>2011-09-03T15:06:37Z</time>
      </trkpt>
      <trkpt lat="47.71239" lon="-3.42069">
        <ele>17</ele>
        <time>2011-09-03T15:06:55Z</time>
      </trkpt>
      <trkpt lat="47.71215" lon="-3.42057">
        <ele>17</ele>
        <time>2011-09-03T15:07:02Z</time>
      </trkpt>
      <trkpt lat="47.71159" lon="-3.42035">
        <ele>16</ele>
        <time>2011-09-03T15:07:15Z</time>
      </trkpt>
      <trkpt lat="47.71131" lon="-3.42028">
        <ele>16</ele>
        <time>2011-09-03T15:07:21Z</time>
      </trkpt>
      <trkpt lat="47.71114" lon="-3.42026">
        <ele>16</ele>
        <time>2011-09-03T15:07:25Z</time>
      </trkpt>
      <trkpt lat="47.71095" lon="-3.4203">
        <ele>15</ele>
        <time>2011-09-03T15:07:29Z</time>
      </trkpt>
      <trkpt lat="47.70942" lon="-3.42098">
        <ele>13</ele>
        <time>2011-09-03T15:08:02Z</time>
      </trkpt>
      <trkpt lat="47.70917" lon="-3.42104">
        <ele>13</ele>
        <time>2011-09-03T15:08:07Z</time>
      </trkpt>
      <trkpt lat="47.7088" lon="-3.42109">
        <ele>13</ele>
        <time>2011-09-03T15:08:15Z</time>
      </trkpt>
      <trkpt lat="47.70864" lon="-3.42113">
        <ele>13</ele>
        <time>2011-09-03T15:08:19Z</time>
      </trkpt>
      <trkpt lat="47.70858" lon="-3.42117">
        <ele>13</ele>
        <time>2011-09-03T15:08:21Z</time>
      </trkpt>
      <trkpt lat="47.70846" lon="-3.42128">
        <ele>13</ele>
        <time>2011-09-03T15:08:24Z</time>
      </trkpt>
      <trkpt lat="47.70836" lon="-3.42132">
        <ele>13</ele>
        <time>2011-09-03T15:08:26Z</time>
      </trkpt>
      <trkpt lat="47.70827" lon="-3.42129">
        <ele>12</ele>
        <time>2011-09-03T15:08:28Z</time>
      </trkpt>
      <trkpt lat="47.70813" lon="-3.42119">
        <ele>12</ele>
        <time>2011-09-03T15:08:31Z</time>
      </trkpt>
      <trkpt lat="47.70804" lon="-3.42116">
        <ele>12</ele>
        <time>2011-09-03T15:08:33Z</time>
      </trkpt>
      <trkpt lat="47.70752" lon="-3.42114">
        <ele>12</ele>
        <time>2011-09-03T15:08:45Z</time>
      </trkpt>
      <trkpt lat="47.70737" lon="-3.42115">
        <ele>11</ele>
        <time>2011-09-03T15:08:48Z</time>
      </trkpt>
      <trkpt lat="47.7072" lon="-3.42119">
        <ele>11</ele>
        <time>2011-09-03T15:08:51Z</time>
      </trkpt>
      <trkpt lat="47.70704" lon="-3.4213">
        <ele>11</ele>
        <time>2011-09-03T15:08:54Z</time>
      </trkpt>
      <trkpt lat="47.70693" lon="-3.4214">
        <ele>11</ele>
        <time>2011-09-03T15:08:56Z</time>
      </trkpt>
      <trkpt lat="47.70681" lon="-3.42161">
        <ele>10</ele>
        <time>2011-09-03T15:08:59Z</time>
      </trkpt>
      <trkpt lat="47.70672" lon="-3.42182">
        <ele>10</ele>
        <time>2011-09-03T15:09:02Z</time>
      </trkpt>
      <trkpt lat="47.70667" lon="-3.42203">
        <ele>9</ele>
        <time>2011-09-03T15:09:05Z</time>
      </trkpt>
      <trkpt lat="47.70655" lon="-3.4226">
        <ele>7</ele>
        <time>2011-09-03T15:09:13Z</time>
      </trkpt>
      <trkpt lat="47.70646" lon="-3.42317">
        <ele>7</ele>
        <time>2011-09-03T15:09:21Z</time>
      </trkpt>
      <trkpt lat="47.70636" lon="-3.42363">
        <ele>6</ele>
        <time>2011-09-03T15:09:28Z</time>
      </trkpt>
      <trkpt lat="47.70635" lon="-3.4237">
        <ele>6</ele>
        <time>2011-09-03T15:09:29Z</time>
      </trkpt>
      <trkpt lat="47.70635" lon="-3.42394">
        <ele>6</ele>
        <time>2011-09-03T15:09:33Z</time>
      </trkpt>
      <trkpt lat="47.70632" lon="-3.42405">
        <ele>6</ele>
        <time>2011-09-03T15:09:35Z</time>
      </trkpt>
      <trkpt lat="47.70606" lon="-3.42436">
        <ele>5</ele>
        <time>2011-09-03T15:09:42Z</time>
      </trkpt>
      <trkpt lat="47.70586" lon="-3.42469">
        <ele>5</ele>
        <time>2011-09-03T15:09:48Z</time>
      </trkpt>
      <trkpt lat="47.70571" lon="-3.42501">
        <ele>5</ele>
        <time>2011-09-03T15:09:54Z</time>
      </trkpt>
      <trkpt lat="47.7056" lon="-3.42539">
        <ele>5</ele>
        <time>2011-09-03T15:10:00Z</time>
      </trkpt>
      <trkpt lat="47.7055" lon="-3.42593">
        <ele>4</ele>
        <time>2011-09-03T15:10:08Z</time>
      </trkpt>
      <trkpt lat="47.7053" lon="-3.42709">
        <ele>5</ele>
        <time>2011-09-03T15:10:24Z</time>
      </trkpt>
      <trkpt lat="47.70464" lon="-3.43189">
        <ele>5</ele>
        <time>2011-09-03T15:11:32Z</time>
      </trkpt>
      <trkpt lat="47.70458" lon="-3.43232">
        <ele>5</ele>
        <time>2011-09-03T15:11:38Z</time>
      </trkpt>
      <trkpt lat="47.70452" lon="-3.43258">
        <ele>4</ele>
        <time>2011-09-03T15:11:42Z</time>
      </trkpt>
      <trkpt lat="47.70446" lon="-3.43265">
        <ele>4</ele>
        <time>2011-09-03T15:11:44Z</time>
      </trkpt>
      <trkpt lat="47.70443" lon="-3.43267">
        <ele>4</ele>
        <time>2011-09-03T15:11:45Z</time>
      </trkpt>
      <trkpt lat="47.70437" lon="-3.43266">
        <ele>4</ele>
        <time>2011-09-03T15:11:47Z</time>
      </trkpt>
      <trkpt lat="47.70428" lon="-3.43259">
        <ele>5</ele>
        <time>2011-09-03T15:11:50Z</time>
      </trkpt>
      <trkpt lat="47.70337" lon="-3.43221">
        <ele>6</ele>
        <time>2011-09-03T15:12:17Z</time>
      </trkpt>
      <trkpt lat="47.70245" lon="-3.43155">
        <ele>4</ele>
        <time>2011-09-03T15:12:37Z</time>
      </trkpt>
      <trkpt lat="47.70228" lon="-3.43139">
        <ele>4</ele>
        <time>2011-09-03T15:12:42Z</time>
      </trkpt>
      <trkpt lat="47.70224" lon="-3.43138">
        <ele>4</ele>
        <time>2011-09-03T15:12:43Z</time>
      </trkpt>
      <trkpt lat="47.70216" lon="-3.4314">
        <ele>4</ele>
        <time>2011-09-03T15:12:45Z</time>
      </trkpt>
      <trkpt lat="47.70203" lon="-3.43151">
        <ele>4</ele>
        <time>2011-09-03T15:12:49Z</time>
      </trkpt>
      <trkpt lat="47.70198" lon="-3.43153">
        <ele>4</ele>
        <time>2011-09-03T15:12:51Z</time>
      </trkpt>
    </trkseg>
  </trk>
</gpx>